[[{"header":{"parameterUnit":"m.s-1","parameterCategory":1,"la1":30.6,"la2":29.2853,"lo1":-89.7004,"lo2":-87.6739,"dx":0.0162,"dy":0.0183,"nx":112,"ny":82,"refTime":"2023-02-01T06:00:00:Z","depth":0,"parameterNumber":2,"parameterNumberName":"U-component_of_WINDS"},"data":[0.0,0.0,0.0,0.0,0.0,0.0,0.0,0.0,0.0,0.0,0.0,0.0,0.0,0.0,0.0,0.0,0.0,0.0,0.0,0.0,0.0,0.0,0.0,0.0,0.0,0.0,0.0,0.0,0.0,0.0,0.0,0.0,0.0,0.0,0.0,0.0,0.0,0.0,0.0,0.0,0.0,0.0,0.0,0.0,0.0,0.0,0.0,0.0,0.0,0.0,0.0,0.0,0.0,0.0,0.0,0.0,0.0,0.0,0.0,0.0,0.0,0.0,0.0,0.0,0.0,0.0,0.0,0.0,0.0,0.0,0.0,0.0,0.0,0.0,0.0,0.0,0.0,0.0,0.0,0.0,0.0,0.0,0.0,0.0,0.0,0.0,0.0,0.0,0.0,0.0,2.4005,2.5673,2.5398,2.4877,2.4281,2.0908,1.8919,1.9089,0.0,0.0,0.0,0.0,0.0,0.0,0.0,0.0,0.0,0.0,0.0,0.0,0.0,0.0,0.0,0.0,0.0,0.0,0.0,0.0,0.0,0.0,0.0,0.0,0.0,0.0,0.0,0.0,0.0,0.0,0.0,0.0,0.0,0.0,0.0,0.0,0.0,0.0,0.0,0.0,0.0,0.0,0.0,0.0,0.0,0.0,0.0,0.0,0.0,0.0,0.0,0.0,0.0,0.0,0.0,0.0,0.0,0.0,0.0,0.0,0.0,0.0,0.0,0.0,0.0,0.0,0.0,0.0,0.0,0.0,0.0,0.0,0.0,0.0,0.0,0.0,0.0,0.0,0.0,0.0,0.0,0.0,0.0,0.0,0.0,0.0,0.0,0.0,0.0,0.0,0.0,0.0,0.0,0.0,0.0,0.0,0.0,0.0,0.0,0.0,0.0,0.0,0.0,0.0,2.4408,2.5166,2.5143,2.4541,2.317,2.0036,1.8422,1.9058,0.0,0.0,0.0,0.0,0.0,0.0,0.0,0.0,0.0,0.0,0.0,0.0,0.0,0.0,0.0,0.0,0.0,0.0,0.0,0.0,0.0,0.0,0.0,0.0,0.0,0.0,0.0,0.0,0.0,0.0,0.0,0.0,0.0,0.0,0.0,0.0,0.0,0.0,0.0,0.0,0.0,0.0,0.0,0.0,0.0,0.0,0.0,0.0,0.0,0.0,0.0,0.0,0.0,0.0,0.0,0.0,0.0,0.0,0.0,0.0,0.0,0.0,0.0,0.0,0.0,0.0,0.0,0.0,0.0,0.0,0.0,0.0,0.0,0.0,0.0,0.0,0.0,0.0,0.0,0.0,0.0,0.0,0.0,0.0,0.0,0.0,0.0,0.0,0.0,0.0,0.0,0.0,0.0,0.0,0.0,0.0,0.0,0.0,0.0,0.0,0.0,0.0,0.0,2.4302,2.4549,2.5046,2.474,2.4215,2.3515,2.0093,1.8354,1.9204,1.6967,0.0,0.0,0.0,0.0,0.0,0.0,0.0,0.0,0.0,0.0,0.0,0.0,0.0,0.0,0.0,0.0,0.0,0.0,0.0,0.0,0.0,0.0,0.0,0.0,0.0,0.0,0.0,0.0,0.0,0.0,0.0,0.0,0.0,0.0,0.0,0.0,0.0,0.0,0.0,0.0,0.0,0.0,0.0,0.0,0.0,0.0,0.0,0.0,0.0,0.0,0.0,0.0,0.0,0.0,0.0,0.0,0.0,0.0,0.0,0.0,0.0,0.0,0.0,0.0,0.0,0.0,0.0,0.0,0.0,0.0,0.0,0.0,0.0,0.0,0.0,0.0,0.0,0.0,0.0,0.0,0.0,0.0,0.0,0.0,0.0,0.0,0.0,0.0,0.0,0.0,0.0,0.0,0.0,0.0,0.0,0.0,0.0,0.0,0.0,0.0,0.0,0.0,2.4446,2.4585,2.468,2.4358,2.3822,2.3127,1.9794,1.8092,1.882,1.6431,0.0,0.0,0.0,0.0,0.0,0.0,0.0,0.0,0.0,0.0,0.0,0.0,0.0,0.0,0.0,0.0,0.0,0.0,0.0,0.0,0.0,0.0,0.0,0.0,0.0,0.0,0.0,0.0,0.0,0.0,0.0,0.0,0.0,0.0,0.0,0.0,0.0,0.0,0.0,0.0,0.0,0.0,0.0,0.0,0.0,0.0,0.0,0.0,0.0,0.0,0.0,0.0,0.0,0.0,0.0,0.0,0.0,0.0,0.0,0.0,0.0,0.0,0.0,0.0,0.0,0.0,0.0,0.0,0.0,0.0,0.0,0.0,0.0,0.0,0.0,0.0,0.0,0.0,0.0,0.0,0.0,0.0,0.0,0.0,0.0,0.0,0.0,0.0,0.0,0.0,0.0,0.0,0.0,0.0,0.0,0.0,0.0,0.0,0.0,0.0,0.0,0.0,2.4702,2.4594,2.3616,2.4096,2.3333,2.0509,1.8315,1.7162,1.7341,1.5408,0.0,0.0,0.0,0.0,0.0,0.0,0.0,0.0,0.0,0.0,0.0,0.0,0.0,0.0,0.0,0.0,0.0,0.0,0.0,0.0,0.0,0.0,0.0,0.0,0.0,0.0,0.0,0.0,0.0,0.0,0.0,0.0,0.0,0.0,0.0,0.0,0.0,0.0,0.0,0.0,0.0,0.0,0.0,0.0,0.0,0.0,0.0,0.0,0.0,0.0,0.0,0.0,0.0,0.0,0.0,0.0,0.0,0.0,0.0,0.0,0.0,0.0,0.0,0.0,0.0,0.0,0.0,0.0,0.0,0.0,0.0,0.0,0.0,0.0,0.0,0.0,0.0,0.0,0.0,0.0,0.0,0.0,0.0,0.0,0.0,0.0,0.0,0.0,0.0,0.0,0.0,0.0,0.0,0.0,0.0,0.0,0.0,0.0,0.0,0.0,0.0,0.0,2.3717,2.3349,2.3391,2.3241,2.2377,2.0527,1.9056,1.8056,1.76,0.0,0.0,0.0,0.0,0.0,0.0,0.0,0.0,0.0,0.0,0.0,0.0,0.0,0.0,0.0,0.0,0.0,0.0,0.0,0.0,0.0,0.0,0.0,0.0,0.0,0.0,0.0,0.0,0.0,0.0,0.0,0.0,0.0,0.0,0.0,0.0,0.0,0.0,0.0,0.0,0.0,0.0,0.0,0.0,0.0,0.0,0.0,0.0,0.0,0.0,0.0,0.0,0.0,0.0,0.0,0.0,0.0,0.0,0.0,0.0,0.0,0.0,0.0,0.0,0.0,0.0,0.0,0.0,0.0,0.0,0.0,0.0,0.0,0.0,0.0,0.0,0.0,0.0,0.0,0.0,0.0,0.0,0.0,0.0,0.0,0.0,0.0,0.0,0.0,0.0,0.0,0.0,0.0,0.0,0.0,0.0,0.0,0.0,0.0,0.0,0.0,0.0,2.3841,2.3195,2.275,2.3021,2.2818,2.2,2.0395,1.9086,1.8107,1.7481,0.0,0.0,0.0,0.0,0.0,0.0,0.0,0.0,0.0,0.0,0.0,0.0,0.0,0.0,0.0,0.0,0.0,0.0,0.0,0.0,0.0,0.0,0.0,0.0,0.0,0.0,0.0,0.0,0.0,0.0,0.0,0.0,0.0,0.0,0.0,0.0,0.0,0.0,0.0,0.0,0.0,0.0,0.0,0.0,0.0,0.0,0.0,0.0,0.0,0.0,0.0,0.0,0.0,0.0,0.0,0.0,0.0,0.0,0.0,0.0,0.0,0.0,0.0,0.0,0.0,0.0,0.0,0.0,0.0,0.0,0.0,0.0,0.0,0.0,0.0,0.0,0.0,0.0,0.0,0.0,0.0,0.0,0.0,0.0,0.0,0.0,0.0,0.0,0.0,0.0,0.0,0.0,0.0,0.0,0.0,0.0,0.0,0.0,0.0,0.0,0.0,0.0,2.3153,2.3298,2.3105,2.2381,2.2953,2.2317,1.9717,1.7964,1.6903,0.0,0.0,0.0,0.0,0.0,0.0,0.0,0.0,0.0,0.0,0.0,0.0,0.0,0.0,0.0,0.0,0.0,0.0,0.0,0.0,0.0,0.0,0.0,0.0,0.0,0.0,0.0,0.0,0.0,0.0,0.0,0.0,0.0,0.0,0.0,0.0,0.0,0.0,0.0,0.0,0.0,0.0,0.0,0.0,0.0,0.0,0.0,0.0,0.0,0.0,0.0,0.0,0.0,0.0,0.0,0.0,0.0,0.0,0.0,0.0,0.0,0.0,0.0,0.0,0.0,0.0,0.0,0.0,0.0,0.0,0.0,0.0,0.0,0.0,0.0,0.0,0.0,0.0,0.0,0.0,0.0,0.0,0.0,0.0,0.0,0.0,0.0,0.0,0.0,0.0,0.0,0.0,0.0,0.0,0.0,0.0,0.0,0.0,0.0,0.0,0.0,0.0,0.0,2.281,2.2719,2.2533,2.2313,2.2023,2.1122,1.93,1.7955,1.6938,1.6319,0.0,0.0,0.0,0.0,0.0,0.0,0.0,0.0,0.0,0.0,0.0,0.0,0.0,0.0,0.0,0.0,0.0,0.0,0.0,0.0,0.0,0.0,0.0,0.0,0.0,0.0,0.0,0.0,0.0,0.0,0.0,0.0,0.0,0.0,0.0,0.0,0.0,0.0,0.0,0.0,0.0,0.0,0.0,0.0,0.0,0.0,0.0,0.0,0.0,0.0,0.0,0.0,0.0,0.0,0.0,0.0,0.0,0.0,0.0,0.0,0.0,0.0,0.0,0.0,0.0,0.0,0.0,0.0,0.0,0.0,0.0,0.0,0.0,0.0,0.0,0.0,0.0,0.0,0.0,0.0,0.0,0.0,0.0,0.0,0.0,0.0,0.0,0.0,0.0,0.0,0.0,0.0,0.0,0.0,0.0,0.0,0.0,0.0,0.0,0.0,0.0,0.0,2.2673,2.2463,2.2296,2.2296,2.1507,2.0428,1.9113,1.7583,1.6443,1.5827,0.0,0.0,0.0,0.0,0.0,0.0,0.0,0.0,0.0,0.0,0.0,0.0,0.0,0.0,0.0,0.0,0.0,0.0,0.0,0.0,0.0,0.0,0.0,0.0,0.0,0.0,0.0,0.0,0.0,0.0,0.0,0.0,0.0,0.0,0.0,0.0,0.0,0.0,0.0,0.0,0.0,0.0,0.0,0.0,0.0,0.0,0.0,0.0,0.0,0.0,0.0,0.0,0.0,0.0,0.0,0.0,0.0,0.0,0.0,0.0,0.0,0.0,0.0,0.0,0.0,0.0,0.0,0.0,0.0,0.0,0.0,0.0,0.0,0.0,0.0,0.0,0.0,0.0,0.0,0.0,0.0,0.0,0.0,0.0,0.0,0.0,0.0,0.0,0.0,0.0,0.0,0.0,0.0,0.0,0.0,0.0,0.0,0.0,0.0,0.0,0.0,0.0,2.2725,2.2501,2.2282,2.2237,2.118,2.0078,1.9026,1.6967,1.5595,1.5324,0.0,0.0,0.0,0.0,0.0,0.0,0.0,0.0,0.0,0.0,0.0,0.0,0.0,0.0,0.0,0.0,0.0,0.0,0.0,0.0,0.0,0.0,0.0,0.0,0.0,0.0,0.0,0.0,0.0,0.0,0.0,0.0,0.0,0.0,0.0,0.0,0.0,0.0,0.0,0.0,0.0,0.0,0.0,0.0,0.0,0.0,0.0,0.0,0.0,0.0,0.0,0.0,0.0,0.0,0.0,0.0,0.0,0.0,0.0,0.0,1.8945,1.9145,0.0,0.0,0.0,0.0,0.0,0.0,0.0,0.0,0.0,0.0,0.0,0.0,0.0,0.0,0.0,0.0,0.0,0.0,0.0,0.0,0.0,0.0,0.0,0.0,0.0,0.0,0.0,0.0,0.0,0.0,0.0,0.0,0.0,0.0,0.0,0.0,0.0,0.0,0.0,0.0,2.317,2.2691,2.2149,2.1794,2.0544,1.9412,1.8603,1.6458,1.5214,1.529,1.4598,0.0,0.0,0.0,0.0,0.0,0.0,0.0,0.0,0.0,0.0,0.0,0.0,0.0,0.0,0.0,0.0,0.0,0.0,0.0,0.0,0.0,0.0,0.0,0.0,0.0,0.0,0.0,0.0,0.0,0.0,0.0,0.0,0.0,0.0,0.0,0.0,0.0,0.0,0.0,0.0,0.0,0.0,0.0,0.0,0.0,0.0,0.0,0.0,0.0,0.0,0.0,0.0,0.0,0.0,0.0,0.0,0.0,0.0,0.0,1.8748,1.8812,0.0,0.0,0.0,0.0,0.0,0.0,0.0,0.0,0.0,0.0,0.0,0.0,0.0,0.0,0.0,0.0,0.0,0.0,0.0,0.0,0.0,0.0,0.0,0.0,0.0,0.0,0.0,0.0,0.0,0.0,0.0,0.0,0.0,0.0,0.0,0.0,0.0,0.0,0.0,0.0,2.3411,2.2442,2.1716,2.1777,2.0392,1.9175,1.8454,1.6465,1.5144,1.4938,1.4406,0.0,0.0,0.0,0.0,0.0,0.0,0.0,0.0,0.0,0.0,0.0,0.0,0.0,0.0,0.0,0.0,0.0,0.0,0.0,0.0,0.0,0.0,0.0,0.0,0.0,0.0,0.0,0.0,0.0,0.0,0.0,0.0,0.0,0.0,0.0,0.0,0.0,0.0,0.0,0.0,0.0,0.0,0.0,0.0,0.0,0.0,0.0,0.0,0.0,0.0,0.0,0.0,0.0,1.9199,1.9352,1.9146,1.961,1.985,1.9884,1.8846,1.8585,1.8888,1.8706,0.0,0.0,0.0,0.0,0.0,0.0,0.0,0.0,0.0,0.0,0.0,0.0,0.0,0.0,0.0,0.0,0.0,0.0,0.0,0.0,0.0,0.0,0.0,0.0,1.7046,1.6999,1.7814,0.0,0.0,0.0,0.0,0.0,0.0,0.0,0.0,0.0,0.0,0.0,2.3539,2.2216,2.1358,2.183,2.0377,1.9106,1.8331,1.6579,1.5202,1.4529,1.4158,1.3948,0.0,0.0,0.0,0.0,0.0,0.0,0.0,0.0,0.0,0.0,0.0,0.0,0.0,0.0,0.0,0.0,0.0,0.0,0.0,0.0,0.0,0.0,0.0,0.0,0.0,0.0,0.0,0.0,0.0,0.0,0.0,0.0,1.7689,1.8242,0.0,0.0,0.0,0.0,0.0,0.0,0.0,0.0,0.0,0.0,0.0,0.0,0.0,2.1041,2.036,2.1446,2.1475,2.0382,2.1037,2.0753,1.9698,1.9773,2.0042,2.0453,1.984,0.0,1.8831,1.7901,0.0,0.0,0.0,0.0,0.0,0.0,0.0,0.0,0.0,0.0,0.0,0.0,0.0,0.0,0.0,0.0,0.0,0.0,0.0,0.0,0.0,0.0,1.7952,1.7495,1.7695,1.7899,0.0,1.744,1.7415,1.7415,1.7882,0.0,0.0,0.0,0.0,0.0,0.0,0.0,2.3671,2.2636,2.1749,2.1428,2.0194,1.8962,1.7888,1.6381,1.5202,1.4529,1.3764,1.3334,1.3401,1.3871,0.0,0.0,0.0,0.0,0.0,0.0,0.0,0.0,0.0,0.0,0.0,0.0,0.0,0.0,0.0,0.0,0.0,0.0,0.0,0.0,0.0,0.0,0.0,0.0,0.0,0.0,0.0,0.0,0.0,1.7674,1.8053,1.8581,1.8857,1.9121,0.0,0.0,0.0,0.0,0.0,0.0,0.0,0.0,0.0,2.1337,2.1745,2.1723,2.1157,2.1689,2.1843,2.1609,2.1895,2.1907,2.1641,2.1641,2.1617,2.1535,2.1,2.0437,1.9828,1.8726,1.8462,1.8735,0.0,0.0,0.0,0.0,1.8907,1.8918,1.8685,1.8601,1.8558,1.8188,0.0,0.0,0.0,0.0,0.0,0.0,0.0,0.0,0.0,0.0,1.8303,1.8666,1.8468,1.8229,1.8268,1.8037,1.7606,0.0,1.7566,1.837,1.9093,0.0,0.0,0.0,0.0,2.244,2.3896,2.2436,2.1338,2.1516,2.036,1.921,1.8345,1.6912,1.5783,1.5105,1.3885,1.3089,1.2859,1.3599,1.3991,0.0,0.0,0.0,0.0,0.0,0.0,0.0,0.0,0.0,0.0,0.0,0.0,0.0,0.0,0.0,0.0,0.0,0.0,0.0,0.0,0.0,0.0,0.0,0.0,0.0,0.0,0.0,0.0,1.7852,1.8355,1.8744,1.9033,1.9309,0.0,0.0,0.0,0.0,0.0,0.0,2.1914,2.3042,2.3379,2.2749,2.3012,2.2949,2.2548,2.2879,2.3158,2.3376,2.3576,2.3685,2.3735,2.3735,2.3446,2.2924,2.2372,2.1923,2.1423,1.9834,1.9479,1.9804,1.9107,1.9103,1.9503,1.9391,1.939,1.9396,1.9277,1.9198,1.9083,1.8442,1.8341,1.8387,1.8035,0.0,0.0,0.0,0.0,1.9481,1.9744,1.9327,1.9032,1.9836,1.9522,1.912,1.9397,1.9233,1.8631,0.0,1.7626,1.8291,1.8599,0.0,0.0,2.2153,2.1779,2.1952,2.3875,2.2423,2.1335,2.1665,2.0647,1.9615,1.8777,1.7458,1.6358,1.5541,1.4193,1.3108,1.2347,1.3236,1.3517,1.3033,0.0,0.0,0.0,0.0,0.0,0.0,0.0,0.0,0.0,0.0,0.0,0.0,0.0,0.0,0.0,0.0,0.0,0.0,0.0,0.0,0.0,0.0,0.0,0.0,0.0,0.0,0.0,0.0,0.0,1.8242,1.9145,0.0,0.0,0.0,0.0,2.1395,2.243,2.3017,2.302,2.4092,2.4488,2.3929,2.4895,2.5423,2.5385,2.6653,2.695,2.6285,2.7009,2.6672,2.5473,2.5473,2.5184,2.4625,2.4117,2.3853,2.3615,2.088,1.9787,1.9876,2.0367,2.0595,2.0622,2.0595,2.062,2.0543,1.9963,1.9761,1.9849,2.0365,2.088,2.1106,2.0,2.0476,0.0,0.0,2.0117,2.0407,1.9927,2.0202,2.0578,2.0629,2.1006,2.1192,2.0717,2.1006,2.069,0.0,1.8166,1.8556,1.9719,0.0,2.1014,2.2224,2.2939,2.335,2.3348,2.2915,2.2373,2.1754,2.1081,2.012,1.8807,1.7806,1.6764,1.5569,1.4594,1.3399,1.1906,1.2625,1.2888,1.2542,1.3443,0.0,0.0,0.0,0.0,0.0,0.0,0.0,0.0,0.0,0.0,0.0,0.0,0.0,0.0,0.0,0.0,0.0,0.0,0.0,0.0,0.0,0.0,0.0,0.0,0.0,0.0,0.0,0.0,2.0238,2.0966,0.0,2.2171,2.2246,2.2636,2.3565,2.3973,2.4519,2.5234,2.5988,2.6477,2.664,2.7005,2.7205,2.7205,2.7678,2.7792,2.7519,2.7779,2.7678,2.7205,2.6841,2.6389,2.585,2.5272,2.4833,2.4456,2.3439,2.2184,2.0878,2.0754,2.0691,2.0691,2.0691,2.1144,2.1644,2.1079,2.1117,2.133,2.0855,2.0578,2.0388,2.039,2.0648,2.1048,2.1322,2.1557,2.1805,2.2367,2.2372,2.2347,2.2723,2.241,2.197,2.1769,2.1606,2.1282,2.0476,1.9723,1.9485,2.0322,1.9971,2.0423,2.2798,2.3065,2.3262,2.4033,2.3642,2.2862,2.1799,2.1111,2.0202,1.8943,1.7879,1.6978,1.6184,1.4857,1.3691,1.2743,1.2886,1.2955,1.289,1.3865,1.4778,0.0,0.0,0.0,0.0,0.0,0.0,0.0,0.0,0.0,0.0,0.0,0.0,0.0,0.0,0.0,0.0,0.0,0.0,0.0,0.0,0.0,0.0,0.0,0.0,0.0,2.0401,2.1493,2.2246,2.2975,2.364,2.4217,2.4061,2.4324,2.531,2.5887,2.6615,2.7568,2.8109,2.8574,2.8938,2.8775,2.8674,2.8674,2.8674,2.8674,2.8674,2.8674,2.8574,2.8373,2.8009,2.7544,2.7027,2.6615,2.6251,2.5912,2.5724,2.4669,2.3118,2.2388,2.2071,2.2071,2.2071,2.2535,2.3088,2.2523,2.2447,2.2498,2.1986,2.1531,2.133,2.1923,2.2071,2.2221,2.2949,2.312,2.3339,2.4079,2.396,2.3772,2.418,2.3703,2.312,2.312,2.2874,2.2611,2.2611,2.1393,2.0489,2.0905,2.0338,2.0732,2.3366,2.3338,2.3406,2.4586,2.4271,2.3279,2.1578,2.1033,2.0191,1.8741,1.8198,1.7501,1.6565,1.5511,1.4516,1.3535,1.3376,1.3345,1.3454,1.4271,1.4903,1.5298,0.0,0.0,0.0,0.0,0.0,0.0,0.0,0.0,0.0,0.0,0.0,0.0,0.0,0.0,0.0,0.0,0.0,0.0,0.0,0.0,0.0,0.0,0.0,1.9987,2.2297,2.4054,2.4079,2.5021,2.5485,2.4963,2.5423,2.5963,2.6587,2.8097,2.9252,2.9817,3.0357,3.0633,3.0633,3.0105,2.9817,2.9817,2.9804,2.9792,2.9792,2.9792,2.9503,2.8913,2.89,2.8599,2.8134,2.8109,2.8109,2.8059,2.7532,2.7027,2.6436,2.5285,2.4813,2.4813,2.4755,2.4755,2.468,2.4142,2.3622,2.3246,2.3841,2.4017,2.413,2.465,2.48,2.48,2.4825,2.4825,2.4813,2.4838,2.4838,2.4838,2.4813,2.4825,2.4825,2.48,2.48,2.4813,2.4788,2.3075,2.1594,2.1594,2.1581,2.2175,2.3903,2.3865,0.0,2.49,2.4751,2.3603,2.1125,2.0897,2.0163,1.8291,1.8706,1.8344,1.6606,1.6556,1.5836,1.4181,1.3988,1.3959,1.4102,1.4485,1.4698,1.4698,0.0,0.0,0.0,0.0,0.0,0.0,0.0,0.0,0.0,0.0,0.0,0.0,0.0,0.0,0.0,0.0,0.0,0.0,0.0,0.0,0.0,2.2284,2.2887,2.2268,2.3916,2.531,2.577,2.6753,2.7519,2.7734,2.831,2.8875,2.9428,3.0244,3.0783,3.0947,3.1097,3.1173,3.1173,3.067,3.0394,3.0394,2.9993,2.9792,2.9792,2.9792,2.9704,2.9541,2.9076,2.8813,2.865,2.8285,2.8109,2.8097,2.7946,2.7795,2.7507,2.5975,2.5385,2.5236,2.411,2.3701,2.3676,2.3532,2.3867,2.4349,2.4512,2.4562,2.4695,2.5222,2.5121,2.4983,2.5787,2.5711,2.5473,2.5933,2.6047,2.59,2.5485,2.5699,2.582,2.4996,2.5121,2.5272,2.4895,2.4318,2.3904,2.3904,2.3577,2.3788,2.5175,2.5004,0.0,2.512,2.4405,2.3385,2.2089,2.1637,2.0703,1.8906,1.8915,1.8306,1.662,1.6157,1.5522,1.4571,1.4126,1.3894,1.388,1.4425,1.4698,0.0,0.0,0.0,0.0,0.0,0.0,0.0,0.0,0.0,0.0,0.0,0.0,0.0,0.0,0.0,0.0,0.0,0.0,0.0,0.0,0.0,0.0,2.3816,2.5071,2.5164,2.6038,2.6854,2.7431,2.8273,2.8938,2.9264,2.9804,3.0269,3.0595,3.1311,3.1738,3.1738,3.1738,3.1738,3.1738,3.1009,3.062,3.062,3.0068,2.9792,2.9792,2.9792,2.9792,2.9779,2.9453,2.9289,2.9277,2.895,2.8812,2.88,2.8549,2.8176,0.0,0.0,0.0,0.0,0.0,2.3421,2.312,2.3519,2.3893,2.4238,2.4658,2.4805,2.4902,2.545,2.5367,2.5323,2.6236,2.6248,2.6072,2.6411,2.6499,2.6411,2.6072,2.6424,2.6663,2.5988,2.6276,2.6553,2.6251,2.6189,0.0,2.5887,2.5021,2.4754,2.5975,2.5545,2.5159,2.5338,2.434,2.3098,2.1822,2.1236,2.0224,1.8468,1.8777,0.0,0.0,0.0,1.5898,1.4744,1.4642,0.0,0.0,0.0,1.4329,1.4329,0.0,0.0,0.0,1.4224,1.4201,0.0,0.0,0.0,0.0,0.0,0.0,0.0,0.0,0.0,0.0,0.0,0.0,0.0,0.0,0.0,0.0,2.5215,2.6989,2.8113,2.8399,2.8612,2.895,2.9528,2.9867,2.9804,3.0407,3.0771,3.0708,3.1564,3.208,3.208,3.1953,0.0,0.0,0.0,3.0425,3.0496,2.9947,2.9725,2.9792,2.9792,2.9792,2.9792,2.9792,2.9792,2.9792,2.9792,2.9714,2.9586,2.9024,2.8177,2.723,2.7593,2.7062,2.5972,2.4588,2.349,2.2811,2.378,0.0,0.0,2.4519,2.48,2.4882,2.5376,2.5517,2.5643,2.6299,2.6502,2.6524,2.6565,2.6637,2.6663,2.66,2.7052,2.7444,2.7394,2.7808,2.8185,2.8109,2.8109,2.7946,2.7457,2.6113,2.541,2.6361,2.5736,2.5242,2.5484,2.4353,2.2884,2.1154,0.0,0.0,1.7909,1.8584,1.839,1.6706,1.697,1.6447,1.4766,1.5141,1.5118,1.4502,1.3967,1.3708,1.3708,1.3152,1.2925,1.2974,1.3464,1.342,0.0,0.0,0.0,0.0,0.0,0.0,0.0,0.0,0.0,0.0,0.0,0.0,0.0,0.0,0.0,2.4059,2.5902,2.7654,2.9102,3.0158,3.047,2.9716,3.0118,3.0281,2.9829,3.1072,3.1725,3.1273,3.1327,3.1388,3.1388,3.0479,2.9941,2.9941,2.9324,2.9253,2.9786,2.9258,2.9245,2.9792,0.0,0.0,2.9792,2.9792,2.9792,2.9792,2.9792,2.9287,2.8426,2.8318,2.7622,2.6563,2.5761,2.4826,2.387,2.3575,2.3165,2.2779,2.3296,2.37,2.4115,2.4626,2.4817,2.4828,2.4918,2.4952,0.0,2.6214,2.65,2.6601,2.7018,2.7457,2.767,2.7231,2.7883,2.8449,2.8047,2.8386,2.8599,2.8185,2.8109,2.8072,2.7959,2.7318,2.6728,2.6524,2.5921,2.536,2.4996,2.3918,2.3056,2.2673,2.1781,2.0901,2.0139,1.9421,1.8499,1.731,1.6426,1.5571,1.4721,1.4342,1.3873,1.3272,1.3128,1.3079,1.3079,1.2954,1.3057,1.3379,1.3175,1.3017,0.0,0.0,0.0,0.0,0.0,0.0,0.0,0.0,0.0,0.0,0.0,1.9723,2.0565,0.0,2.3419,2.4798,2.6946,2.8721,2.9504,3.065,3.1097,3.0294,3.067,3.0796,3.0256,3.1424,3.2102,3.1825,3.1447,3.1223,3.1223,3.0228,2.9607,2.9418,2.907,2.897,2.9097,2.8337,2.8422,2.93,2.9071,2.9236,2.9792,2.9792,2.9495,2.8937,2.8937,2.8319,2.725,2.6696,2.6119,2.5545,2.4366,2.3886,2.3677,2.3125,2.2655,2.2392,2.3058,2.3493,2.3809,2.4255,2.4417,2.4417,2.4417,2.4417,2.4563,2.5422,2.6057,2.6439,2.6117,2.6671,2.7076,2.6254,2.6664,2.7329,2.7612,2.8104,2.8602,2.8875,2.895,2.885,2.8561,2.8285,2.7821,2.7027,2.6172,2.5498,2.5247,2.396,2.3108,2.3108,2.2146,2.1142,2.0313,1.9246,1.838,1.7827,1.7226,1.6466,1.5485,1.494,1.4279,1.3531,1.3301,1.3301,1.3506,1.3506,1.3588,1.3792,1.3578,1.3506,0.0,0.0,0.0,0.0,0.0,0.0,0.0,1.6914,1.7467,1.8437,1.9258,2.0166,2.1387,2.2999,2.4396,2.523,2.7502,2.9222,2.9222,3.0537,3.1241,3.0661,3.1163,3.1336,3.0821,3.1518,3.1965,3.1866,3.1013,3.0531,3.0636,2.9771,2.9157,2.8833,2.8707,2.8528,2.823,2.7447,2.7507,2.8456,2.8075,2.8335,2.917,2.917,2.8661,2.7763,2.755,2.6982,2.6099,2.4957,2.4457,2.4382,2.3474,2.346,2.3887,2.2958,2.2373,2.2136,2.2982,2.3216,2.3227,2.367,2.3824,2.3824,2.3824,2.3824,2.395,2.4628,2.547,2.5977,2.515,2.5725,2.626,2.5189,2.5389,2.6028,2.6944,2.764,2.8386,2.9275,2.9663,2.9641,2.9176,2.8963,2.8549,2.7595,2.6578,2.5887,2.5774,2.4506,2.3509,2.3296,2.241,2.1305,2.0075,1.907,1.848,1.8367,1.8111,1.7448,1.6252,1.5697,1.5003,1.4121,1.3773,1.3773,1.4104,1.4104,1.4153,1.4231,1.4231,1.4192,1.4948,1.5162,1.5625,1.5948,1.6328,1.6921,0.0,1.8691,1.9355,2.0576,2.126,2.1875,2.2826,2.3462,2.4142,2.5009,2.6661,2.7796,2.7796,3.0125,3.1478,3.052,3.1422,3.1901,3.1348,3.1321,3.1125,3.0659,2.8991,2.8183,2.854,2.7433,2.6784,2.6745,2.6735,2.6802,2.6932,2.6816,2.6926,2.7273,2.7217,2.7095,2.6894,2.6894,2.6812,2.6637,2.563,2.5115,2.4914,2.3757,2.3309,2.3256,2.3135,2.3149,2.3187,2.3066,2.276,2.25,2.2948,2.2873,2.267,2.305,2.3197,2.3197,2.3197,2.3197,2.3428,2.4482,2.4882,2.5079,2.5422,2.6008,2.6314,2.5663,2.5983,2.6435,2.6558,2.7406,2.8136,2.8255,2.9106,2.9779,2.9704,2.9264,2.8687,2.8109,2.7494,2.6952,2.6461,2.5749,2.4958,2.4004,2.3296,2.2297,2.0729,1.9987,1.9422,1.8945,1.7836,1.6924,1.6238,1.5508,1.482,1.4104,1.4065,1.4065,1.4104,1.4104,1.4309,1.4717,1.4717,1.4502,1.5797,1.6192,1.666,1.709,1.7715,1.8428,1.9163,1.9922,2.0713,2.1726,2.2519,2.333,2.4453,2.459,2.4902,2.6016,2.7181,2.7929,2.7929,2.9393,3.0193,2.9569,3.0274,3.095,3.137,3.1277,3.0953,3.043,2.8682,2.7788,2.8191,2.7282,2.6641,2.6396,2.6631,2.6527,2.6109,2.5876,2.6146,2.686,2.6356,2.6366,2.6844,2.6606,2.6141,2.5484,2.4584,2.4085,2.3757,2.3299,2.3091,2.3091,2.3091,2.3091,2.3091,2.3091,2.2984,2.2857,2.3033,2.2984,2.2867,2.3042,2.3091,2.3091,2.3091,2.3091,2.3222,2.3671,2.4296,2.4703,2.4272,2.4819,2.5293,2.4346,2.4333,2.4681,2.5378,2.6378,2.736,2.7964,2.9028,2.9792,2.9792,2.9591,2.9352,2.9126,2.8059,2.7241,2.7002,2.6151,2.5184,2.4117,2.3446,2.2694,2.1707,2.0842,2.0042,1.9397,1.8526,1.7543,1.6423,1.586,1.5338,1.4873,1.4639,1.4629,1.4855,1.4855,1.4971,1.5146,1.5146,1.5049,1.6563,1.7139,1.7715,1.8369,1.918,1.9961,2.0508,2.1309,2.2178,2.3037,2.3711,2.4473,2.5489,2.5469,2.5566,2.6504,2.7312,2.7791,2.7544,2.8406,2.8879,2.8353,2.917,2.9923,3.0236,3.039,3.0169,2.9489,2.8075,2.7459,2.7852,2.7441,2.706,2.6748,2.7031,2.6787,2.5879,2.5596,2.5722,2.6238,2.5628,2.561,2.6163,2.5871,2.5285,2.4502,2.3989,2.3613,2.3266,2.314,2.3091,2.3091,2.3091,2.3169,2.3276,2.3276,2.3198,2.3091,2.3091,2.3091,2.3091,2.3091,2.3091,2.3091,2.3091,2.3091,2.3091,2.3091,2.3671,2.4125,2.3299,2.3714,2.4125,2.3299,2.3091,2.3343,2.4168,2.5473,2.6719,2.7522,2.8819,2.9792,2.9792,2.9792,2.9792,2.9792,2.8624,2.7733,2.7733,2.6628,2.5473,2.4531,2.3803,2.3183,2.2811,2.1546,2.0505,1.9861,1.8869,1.7751,1.6549,1.6008,1.5634,1.54,1.5117,1.5107,1.541,1.541,1.541,1.541,1.541,1.541,1.6697,1.7561,1.8291,1.9541,2.0489,2.1356,2.2246,2.3096,2.3955,2.4861,2.5057,2.5176,2.5596,2.5674,2.5684,2.5723,2.6465,2.675,2.5869,2.7227,2.7904,2.7037,2.8636,2.9181,2.7575,2.8206,2.8196,2.707,2.6627,2.6603,2.7024,2.7454,2.7689,2.7679,2.7689,2.7236,2.6377,2.6357,2.5967,2.5163,2.5134,2.4683,2.3924,2.3904,2.3859,2.3814,2.3824,2.3779,2.374,2.331,2.3091,2.3091,2.3091,2.3398,2.3769,2.3769,2.3496,2.3091,2.3091,2.3091,2.3091,2.3091,2.3091,2.3091,2.3091,2.3091,2.3091,2.3091,2.3135,2.3135,2.3091,2.3135,2.3135,2.3091,2.3091,2.3091,2.3135,2.4935,2.6513,2.6565,2.8303,2.9792,2.9792,2.9792,2.9792,2.9792,2.9264,2.8838,2.8838,2.7444,2.6248,2.5611,2.4607,2.3966,2.3954,2.2141,2.0807,2.0406,1.8408,1.7021,1.6503,1.5796,1.54,1.541,1.54,1.54,1.541,1.541,1.541,1.541,1.541,1.541,1.5227,1.7162,1.9169,2.019,2.1707,2.3076,2.3643,2.4219,2.4639,2.4639,2.4863,2.5165,2.5264,2.5293,2.5488,2.6074,2.6641,2.6816,2.625,2.6675,2.6562,2.5361,2.6227,2.6271,2.466,2.772,2.8843,2.6546,2.7115,2.742,2.7043,2.7432,2.7718,2.7718,2.7718,2.7393,2.6807,2.6523,2.624,2.5937,2.5399,2.4619,2.3809,2.4375,2.4482,2.4228,2.4512,2.4473,2.417,2.374,2.374,2.3955,2.3682,2.3828,2.4209,2.4209,2.4111,2.39,2.3672,2.3379,2.3091,2.3091,2.3091,2.3091,2.3091,2.3091,2.3091,2.3091,2.3091,2.3091,2.3091,2.3305,2.3574,2.3574,2.3779,2.3939,2.3939,2.5166,2.6214,2.6214,2.782,2.9141,2.9141,2.9522,2.9792,2.9792,2.9302,2.8624,2.7934,2.7392,2.664,2.5699,2.5272,2.4531,2.3247,2.2207,2.0799,1.8928,1.805,1.7049,1.5807,1.5831,1.5703,1.542,1.541,1.541,1.541,1.541,1.541,1.541,1.541,1.541,1.536,1.745,1.9783,2.1186,2.2621,2.3917,2.4683,2.498,2.499,2.4707,2.4629,2.4705,2.4805,2.459,2.4724,2.5547,2.5908,2.6045,2.5937,2.5918,2.5596,2.4746,2.5239,2.5118,2.3702,2.7337,2.8588,2.5694,2.689,2.7542,2.7043,2.7568,2.7891,2.7891,2.7891,2.7685,2.7246,2.6826,2.6465,2.6143,2.542,2.4822,2.4268,2.4814,2.4959,2.4668,2.4988,2.4912,2.4619,2.4189,2.417,2.4385,2.4121,2.4268,2.4648,2.4648,2.4648,2.457,2.3994,2.3603,2.3305,2.3149,2.3091,2.3091,2.3091,2.3091,2.3091,2.3091,2.3091,2.313,2.333,2.3574,2.3828,2.3975,2.4219,2.4414,2.4414,2.531,2.6114,2.6114,2.7725,2.9024,2.8834,2.9355,2.9792,2.9792,2.9478,2.89,2.7996,2.7695,2.7099,2.5805,2.5339,2.4381,2.2589,2.1663,2.0338,1.8353,1.7864,1.7111,1.5908,1.6026,1.5958,1.5654,1.5488,1.541,1.541,1.541,1.541,1.541,1.541,1.541,1.6952,1.8404,2.021,2.2518,2.3283,2.3917,2.5284,2.5217,2.4878,2.4829,2.4205,2.3748,2.4117,2.3627,2.3428,2.4248,2.4443,2.4639,2.5116,2.5204,2.5204,2.5184,2.5721,2.5675,2.4575,2.6893,2.7388,2.468,2.6114,2.7072,2.7051,2.7842,2.8291,2.8291,2.8291,2.8096,2.7748,2.7246,2.6572,2.5645,2.5293,2.5135,2.5116,2.5135,2.5145,2.5145,2.5145,2.5145,2.5116,2.4629,2.4463,2.4482,2.4453,2.4717,2.5145,2.5145,2.5145,2.5028,2.4141,2.3838,2.375,2.3276,2.313,2.313,2.313,2.313,2.313,2.3149,2.3159,2.3257,2.3711,2.3838,2.3955,2.4355,2.4473,2.4482,2.4482,2.5336,2.6097,2.6097,2.7908,2.927,2.8811,2.9248,2.9649,2.9624,2.9663,2.9501,2.8963,2.8411,2.7458,2.5947,2.4814,2.356,2.208,2.0735,1.9578,1.8636,1.7871,1.7236,1.6716,1.6378,1.6153,1.6124,1.5684,1.5469,1.5449,1.5469,1.5469,1.5449,1.5469,1.5478,1.7727,1.9818,2.2005,2.3707,2.4094,2.4144,2.4319,2.3102,2.1756,2.1188,2.1365,2.1537,2.1333,2.2312,2.332,2.3857,2.4766,2.5557,2.5986,2.6328,2.6406,2.6084,2.6241,2.6092,2.543,2.6354,2.6661,2.5938,2.7381,2.8117,2.7532,2.8008,2.8291,2.8291,2.8291,2.8242,2.8135,2.7383,2.6416,2.5244,2.5459,2.5391,2.5125,2.541,2.5566,2.5566,2.5566,2.5566,2.5527,2.5078,2.5098,2.5313,2.5029,2.5176,2.5566,2.5566,2.5566,2.5488,2.4932,2.4531,2.4189,2.376,2.3623,2.3623,2.3623,2.3623,2.3682,2.4004,2.4092,2.4121,2.4228,2.4502,2.4766,2.492,2.5156,2.5352,2.5352,2.5592,2.5821,2.5821,2.6671,2.7456,2.7516,2.7687,2.7688,2.74,2.8028,2.8612,2.8887,2.7766,2.6672,2.5862,2.4547,2.3097,2.1679,2.1206,2.0193,1.8271,1.8237,1.7808,1.6746,1.6934,1.6894,1.6562,1.6424,1.623,1.5928,1.623,1.6221,1.5938,1.624,1.6365,1.8746,2.054,2.2311,2.4471,2.4285,2.3659,2.3918,2.2193,2.0312,1.9678,1.9939,2.031,2.0214,2.1306,2.2467,2.3125,2.4004,2.4893,2.5693,2.6182,2.6504,2.665,2.666,2.6562,2.6328,2.6523,2.6748,2.6934,2.7792,2.8145,2.7699,2.8066,2.8291,2.8291,2.8291,2.8203,2.8018,2.7539,2.6748,2.5644,2.5908,2.5791,2.5371,2.5625,2.5693,2.5693,2.5693,2.5693,2.5664,2.5469,2.5508,2.5664,2.5459,2.5518,2.5713,2.5947,2.5908,2.5684,2.5664,2.5361,2.4893,2.4268,2.4062,2.4062,2.4062,2.4062,2.4111,2.4346,2.4414,2.4463,2.4648,2.4883,2.5117,2.5312,2.5557,2.5693,2.5693,2.5693,2.5878,2.6428,2.6603,2.6936,2.7634,2.7394,2.7015,2.6789,2.7142,2.7509,2.7794,2.7117,2.6132,2.4933,2.363,2.2248,2.0855,2.074,2.0044,1.835,1.8471,1.8198,1.7301,1.7353,1.7275,1.7021,1.6794,1.658,1.6357,1.658,1.657,1.6367,1.658,1.6697,2.0136,2.1287,2.2521,2.5192,2.4253,2.2835,2.3511,2.1487,1.9309,1.8782,1.8998,1.9397,1.9728,2.0583,2.1492,2.2451,2.291,2.3697,2.5096,2.5576,2.6143,2.7002,2.7148,2.7187,2.7187,2.7187,2.7344,2.7777,2.7806,2.7806,2.7806,2.8096,2.8291,2.8291,2.8291,2.8096,2.7718,2.7718,2.7266,2.6465,2.6416,2.6191,2.5771,2.5713,2.5693,2.5693,2.5693,2.5723,2.5771,2.5713,2.5723,2.5771,2.5771,2.5771,2.583,2.6309,2.623,2.5908,2.6338,2.6182,2.5625,2.4795,2.4502,2.4502,2.4502,2.4502,2.4512,2.458,2.459,2.4678,2.5059,2.5156,2.5254,2.5644,2.5693,2.5693,2.5693,2.5693,2.6014,2.7125,2.6936,2.6903,2.796,2.7382,2.6712,2.6646,2.6451,2.6224,2.6058,2.616,2.5577,2.3788,2.2561,2.1418,2.0193,2.0039,1.9658,1.8822,1.8773,1.8578,1.8193,1.7773,1.7549,1.7549,1.7129,1.6843,1.6785,1.6843,1.6843,1.6785,1.6843,1.6872,2.2341,2.401,2.5594,2.6978,2.4927,2.2339,2.1676,1.88,1.6053,1.5439,1.6603,1.7735,1.7793,1.9664,2.159,2.2789,2.3105,2.3912,2.5879,2.6221,2.6592,2.7451,2.7861,2.8066,2.8066,2.8066,2.8105,2.8174,2.8184,2.8184,2.8184,2.8252,2.8291,2.8291,2.8291,2.8096,2.7718,2.7718,2.7412,2.6904,2.6553,2.6348,2.6269,2.5908,2.5693,2.5693,2.5693,0.0,2.625,2.584,2.5947,2.6279,2.6279,2.6279,2.6328,2.6748,2.6855,2.6807,2.6875,2.6631,2.6133,2.5244,2.4998,2.4998,2.4998,2.4998,2.5029,2.54,2.546,2.5479,2.5557,2.5625,2.5596,2.5674,2.5693,2.5693,2.5693,2.5693,2.5791,2.5965,2.5954,2.5825,2.5722,2.5221,2.4751,2.4446,2.4757,2.4755,2.381,2.4242,2.448,2.4113,2.2433,2.1233,2.1016,2.0664,2.0234,1.9727,1.965,1.9502,1.9082,1.8652,1.8383,1.8383,1.8008,1.7617,1.7275,1.7617,1.7607,1.7275,1.7627,1.775,2.4073,2.5457,2.6173,2.6536,2.4551,2.2027,2.0152,1.7485,1.5366,1.5148,1.6265,1.7496,1.8069,1.9823,2.1463,2.2353,2.25,2.3286,2.54,2.5508,2.5937,2.7532,2.7894,2.8057,2.8271,2.8291,2.8291,2.8291,2.8291,2.8291,2.8291,2.8291,2.8291,2.8291,2.8291,2.8193,2.7998,2.7988,2.7773,2.7353,2.7148,2.6934,2.6709,2.6504,2.6289,2.6084,2.6309,2.6396,2.6387,2.6396,2.6523,2.6709,2.6709,2.6709,2.6768,2.7197,2.7207,2.7041,2.7275,2.707,2.6611,2.5967,2.5605,2.541,2.541,2.541,2.5508,2.5957,2.5869,2.5791,2.6239,2.624,2.6133,2.6348,2.6396,2.6396,2.6396,2.623,2.6074,2.6074,2.5889,2.5625,2.5449,2.4863,2.4346,2.415,2.4023,2.3714,2.3178,2.3414,2.3568,2.3345,2.2056,2.119,2.119,2.082,2.0381,1.9941,1.9912,1.9727,1.9307,1.8867,1.8598,1.8598,1.8188,1.791,1.7705,1.791,1.791,1.7715,1.792,1.8008,2.4954,2.6172,2.6507,2.6146,2.4219,2.1768,1.9351,1.7001,1.5372,1.5639,1.656,1.7666,1.8798,2.0127,2.1289,2.1914,2.1943,2.2637,2.4812,2.4853,2.54,2.7305,2.7685,2.793,2.8262,2.8291,2.8291,2.8291,2.8291,2.8291,2.8291,2.8291,2.8291,2.8291,2.8291,2.8291,2.8291,2.8291,2.8125,2.7855,2.7767,2.749,2.7148,2.706,2.6836,2.6543,2.6875,2.6885,2.667,2.6826,2.6992,2.7148,2.7051,2.707,2.7207,2.7637,2.7588,2.7334,2.7676,2.7519,2.71,2.6768,2.6309,2.581,2.5713,2.5693,2.5781,2.6269,2.6143,2.6055,2.6816,2.6768,2.6602,2.6934,2.7012,2.7012,2.7012,2.6758,2.6523,2.6523,2.6172,2.583,2.583,2.5146,2.4521,2.4434,2.3725,2.3198,2.311,2.3091,2.2974,2.2643,2.1921,2.1463,2.1463,2.1016,2.0566,2.0215,2.0107,1.9912,1.958,1.9141,1.887,1.887,1.8373,1.8144,1.8144,1.8057,1.8008,1.8008,1.8008,1.8008,2.4344,2.6334,2.8024,2.7606,2.4818,2.1744,2.0155,1.7342,1.5171,1.5595,1.656,1.7666,1.8798,1.9912,2.1065,2.2256,2.2139,2.2637,2.4812,2.5381,2.5927,2.6963,2.7764,2.8252,2.8291,2.8291,2.8291,2.8291,2.8291,2.8291,2.8291,2.8291,2.8291,2.8291,2.8291,2.8291,2.8291,2.8291,2.8271,2.8232,2.7851,2.7699,2.7598,2.7197,2.6992,2.6963,2.6992,2.7217,0.0,2.6758,2.6904,2.7568,2.7168,2.7256,2.7708,2.8076,2.8213,2.8184,2.8223,2.7959,2.765,2.7611,2.7002,2.625,2.581,2.5693,2.5781,2.6269,2.6357,2.6435,2.6894,2.6982,2.6973,2.7002,2.7012,2.7012,2.7012,2.6982,2.6953,2.6953,2.6621,2.6328,2.6328,2.5596,2.4873,2.4473,2.4023,2.3584,2.3149,2.3091,2.3081,2.3042,2.2676,2.2393,2.2393,2.16,2.1112,2.1073,2.0732,2.0527,2.0488,2.0029,1.9795,1.9795,1.8958,1.8539,1.8539,1.8159,1.8008,1.8008,1.8008,1.8008,2.5369,2.7138,2.7733,2.5385,2.3462,2.1296,1.815,1.6183,1.5313,1.642,1.7009,1.7868,1.9638,2.0323,2.0948,2.1963,2.1543,2.1887,2.4039,2.4014,2.4502,2.6416,2.6943,2.7451,2.8223,2.8291,2.8398,2.8652,2.8672,2.8789,2.9053,2.8809,2.8672,2.8672,2.8926,2.8935,2.8672,2.8672,2.8545,2.8291,2.8125,2.8047,2.8037,2.7861,2.7646,2.7422,2.7676,2.7744,0.0,2.7578,2.7734,2.8027,2.7851,2.7891,2.8066,2.8232,2.8291,2.8291,2.8291,2.8184,2.7998,2.7796,2.7483,2.708,2.6641,2.6504,2.6602,2.7041,2.6963,2.6924,2.7607,2.7783,2.7783,2.7783,2.7783,2.7783,2.7783,2.7588,2.7402,2.7402,2.6855,2.6387,2.6387,2.5703,2.5057,2.4834,2.4228,2.3721,2.3555,2.3257,2.3091,2.3091,2.2721,2.251,2.251,2.1963,2.1514,2.121,2.1064,2.085,2.0615,2.0146,1.9912,1.9912,1.9336,1.8896,1.8598,1.8432,1.8252,1.8008,1.8008,1.8008,2.4356,2.5807,2.5998,2.3404,2.1965,2.0309,1.7018,1.5563,1.5327,1.6974,1.7302,1.798,2.0196,2.0605,2.0889,0.0,2.1357,2.1662,2.3525,2.3379,2.3799,2.5762,2.6113,2.665,2.7803,2.8144,2.8467,2.8887,2.8916,2.9111,2.9541,2.9394,2.9238,2.9111,2.9414,2.9365,2.8926,2.8916,2.8711,2.8291,2.8291,2.8291,2.8291,2.8291,2.8135,2.7861,2.8164,2.8125,0.0,2.8037,2.8174,2.8281,2.8154,2.8184,2.8237,2.7789,2.795,2.8237,2.7789,2.795,2.8242,2.7949,2.7851,2.7793,2.749,2.7217,2.7109,2.7591,2.7529,2.7529,2.8135,2.8291,2.8291,2.8291,2.8291,2.8291,2.8291,2.8057,2.7851,2.7851,2.7158,2.6572,2.6572,2.584,2.5215,2.5135,2.4443,2.3935,2.3809,2.3408,2.3091,2.3091,2.2838,2.2705,2.2705,2.2314,2.1943,2.159,2.1337,2.1054,2.0781,2.0342,2.0107,2.0107,1.9687,1.9258,1.8828,1.8666,1.8383,1.8008,1.8008,1.8008,2.0269,2.1542,2.254,2.2532,2.0692,1.8636,1.7598,1.5903,1.5026,1.6918,1.7302,1.798,2.0196,2.0605,2.0889,0.0,0.0,2.2314,2.3613,2.4141,2.456,2.5077,2.5478,2.6035,2.6943,2.7793,2.8467,2.8887,2.8916,2.9111,2.9541,2.9961,2.999,2.9636,2.9626,2.9365,2.8926,2.8916,2.8711,2.8291,2.8291,2.8291,2.8291,2.8291,2.8291,2.8281,2.8291,2.8291,0.0,2.7894,2.792,2.8252,2.7832,2.793,2.8121,2.6653,2.7051,2.8067,2.6608,2.706,2.8291,2.8291,2.8281,2.8281,2.8281,2.7685,2.7109,2.7591,2.7959,2.8281,2.8291,2.8291,2.8291,2.8291,2.8291,2.8291,2.8291,2.8291,2.8281,2.8281,2.7598,2.7012,2.7012,2.6249,2.5586,2.5184,2.4697,2.4258,2.3838,2.3408,2.3091,2.3091,2.3091,2.3091,2.3091,2.2744,2.251,2.25,2.1668,2.119,2.119,2.0801,2.0595,2.0595,2.0127,1.9707,1.9277,1.8812,1.8383,1.8008,1.8008,1.8008,1.9128,2.02,2.0715,1.9438,1.8575,1.7544,1.5821,1.4949,1.5026,1.6918,1.7302,1.798,2.0196,2.0605,2.0889,2.1738,2.1885,2.2227,2.3213,2.3919,2.4805,2.585,2.7119,2.8018,2.8291,2.8828,2.9219,2.9355,2.9629,2.9382,2.841,2.9537,3.0137,3.0,3.0,2.9795,2.9365,2.9062,2.8711,2.8291,2.8291,2.8291,2.8291,2.8291,2.8291,2.8291,2.8291,2.8291,2.8281,2.8144,2.8174,2.8165,2.7027,2.666,2.6608,2.5105,2.5489,2.6717,2.6264,2.7051,2.8291,2.8291,2.8291,2.8291,2.8291,2.8105,2.792,2.8057,2.8193,2.8291,2.8291,2.8291,2.8291,2.8291,2.8291,2.8291,2.8291,2.8291,2.8291,2.8291,2.7842,2.7363,2.707,2.6553,2.6035,2.5586,2.5146,2.4707,2.4277,2.3848,2.3467,2.312,2.3091,2.3091,2.3091,2.2974,2.2779,2.2529,2.1992,2.1543,2.121,2.0801,2.0605,2.0605,2.0468,2.0146,1.9717,1.958,1.9104,1.8393,1.8144,1.8164,1.6721,1.7609,1.7854,1.6729,1.6425,1.6073,1.4679,1.4355,1.4801,1.636,1.7009,1.7859,1.9678,2.0001,2.0357,2.1483,2.1428,2.1629,2.2716,2.3725,2.4844,2.6006,2.7646,2.8555,2.8232,2.8887,2.9326,2.9326,2.9717,2.9327,2.7889,2.887,2.9169,2.848,2.916,2.8972,2.7823,2.808,2.7962,2.7501,2.8014,2.8291,2.8291,2.8291,2.8291,2.8291,2.8291,2.8291,0.0,2.8291,2.795,2.7394,2.6436,2.5763,2.5041,2.3535,2.3933,2.5215,2.5215,2.6218,2.7565,2.8121,2.8291,2.8291,2.8291,2.8291,2.8291,2.8291,2.8291,2.8291,2.8291,2.8291,2.8291,2.8291,2.8291,2.8291,2.8291,2.8291,2.8291,2.8291,2.8002,2.7529,2.709,2.667,2.624,2.5752,2.5361,2.4912,2.4473,2.4053,2.3623,2.314,2.3091,2.3091,2.3091,2.3091,2.2984,2.2721,2.2353,2.2002,2.1687,2.1133,2.082,2.082,2.0693,2.0352,1.9912,1.9756,1.9404,1.8877,1.8613,1.8633,0.0,1.4108,1.4335,1.4355,1.4376,1.4322,1.4055,1.4028,0.0,1.555,1.6585,1.7666,1.8913,1.9082,1.9516,2.1049,2.0697,2.0786,2.232,2.3711,2.4873,2.5674,2.7314,2.7998,2.7139,2.8184,2.8916,2.8916,2.9346,2.906,2.7625,2.8115,2.7439,2.5304,2.702,2.7033,2.487,2.6183,2.6607,2.61,2.7501,2.8184,2.8291,2.8291,2.8291,2.8291,2.8291,2.8271,2.8252,2.8165,2.7321,2.6,2.5864,2.4875,2.3487,2.1975,2.2371,2.3654,2.3654,2.471,2.6327,2.7843,2.8291,2.8291,2.8291,2.8291,2.8291,2.8291,2.8291,2.8291,2.8291,2.8291,2.8291,2.8291,2.8291,2.8291,2.8291,2.8291,2.8291,2.8291,2.7978,2.7559,2.71,2.6719,2.6309,2.5762,2.541,2.499,2.4521,2.4121,2.3701,2.3188,2.314,2.313,2.3091,2.3091,2.3091,2.3091,2.2701,2.251,2.251,2.1719,2.122,2.119,2.0791,2.04,1.9961,1.9541,1.9336,1.9336,1.9297,1.9307,0.0,0.0,1.2545,1.2766,1.2993,1.3186,0.0,1.3414,1.4261,1.623,1.6975,1.7993,2.0269,1.9953,1.993,2.1871,2.1272,2.1158,2.2746,2.4687,2.6123,2.665,2.793,2.8437,2.7598,2.8359,2.8916,2.8916,2.9619,2.8634,2.5288,2.7223,2.6295,2.1587,2.3308,2.4404,2.4613,2.4557,2.5112,2.61,2.6436,2.7222,2.8291,2.8291,2.8291,2.8291,2.8291,2.8115,2.7779,2.6983,2.6199,2.5398,2.3429,2.242,2.1919,2.0479,2.0866,2.2145,2.2145,2.3869,2.6327,2.7843,2.8291,2.8291,2.8291,2.8291,2.8291,2.8291,2.8291,2.8291,2.8291,2.8291,2.8291,2.8291,2.8291,2.8291,2.8291,2.8291,2.8291,2.8291,2.8213,2.79,2.7139,2.7207,2.6992,2.5849,2.5937,2.5791,2.5019,2.4824,2.4519,2.3721,2.3633,2.3496,2.312,2.3091,2.3091,2.3091,2.2701,2.251,2.251,2.2012,2.1582,2.12,2.0791,2.0556,2.0449,1.998,1.9766,1.9756,1.9434,1.9453,0.0,1.1744,1.2104,1.2265,1.2632,1.2998,1.2998,1.3698,1.4588,1.525,1.6404,1.7816,1.9439,1.9224,1.9327,2.1053,2.0564,2.0448,2.1844,2.3231,2.4637,2.6007,2.7144,2.7844,2.7945,2.8535,2.8838,2.8643,2.8609,2.7328,2.4448,2.536,2.4168,2.0167,2.1143,2.196,2.2326,2.2754,2.3303,2.4036,2.5426,2.6545,2.733,2.781,2.8008,2.8008,2.8008,2.7429,2.6427,2.6198,2.5033,2.3365,2.2063,2.1202,2.0479,1.97,1.9924,2.0702,2.1365,2.359,2.6209,2.7051,2.7726,2.8291,2.8291,2.8291,2.8291,2.8291,2.8291,2.8291,2.8291,2.8291,2.8291,2.8291,2.8291,2.8291,2.8291,2.8291,2.8291,2.8291,2.8291,2.8086,2.7422,2.7344,2.706,2.6172,2.6064,2.584,2.5204,2.5116,2.4861,2.415,2.3906,2.3691,2.3457,2.3208,2.3091,2.3091,2.2886,2.2803,2.2803,2.2402,2.1875,2.121,2.0996,2.0771,2.0605,2.037,2.0215,2.0215,1.998,1.999,1.141,1.1957,1.2418,1.2325,1.2759,1.32,1.3153,1.4139,1.4823,1.4035,1.5606,1.7327,1.7937,1.7926,1.8287,1.9718,1.9589,1.9787,2.1227,2.151,2.2459,2.485,2.5693,2.6526,2.766,2.8201,2.8445,2.832,2.7288,2.6007,2.4292,2.3464,2.1995,1.9812,2.0013,2.0027,1.9733,2.0978,2.1574,2.1635,2.4374,2.5819,2.6136,2.7122,2.765,2.7666,0.0,0.0,2.4941,2.5191,2.3681,2.1118,2.1218,2.0479,1.9424,1.9424,1.9424,1.9591,2.1088,2.3423,2.5763,2.6045,2.7114,2.8291,2.8291,2.8291,2.8291,2.8291,2.8291,2.8291,2.8291,2.8291,2.8291,2.8291,2.8291,2.8291,2.8291,2.8291,2.8291,2.8291,2.8291,2.8164,2.7796,2.7412,2.7021,2.6465,2.6123,2.5752,2.5234,2.5166,2.5,2.456,2.4141,2.3857,2.3799,2.3389,2.3091,2.3091,2.3091,2.3091,2.3091,2.2691,2.2168,2.1405,2.1327,2.1143,2.0811,2.0811,2.0811,2.0811,2.0811,2.0811,1.1724,1.2425,1.2946,1.2432,1.2759,1.314,1.2918,1.3359,1.4076,1.4863,1.5688,1.6715,1.8096,1.7707,1.77,1.931,1.9931,2.1149,2.3819,2.3141,2.298,2.4681,2.4473,2.4516,2.5274,2.6034,2.7008,2.8184,2.7288,2.5884,2.3977,2.3173,2.1728,1.9511,1.9713,1.9726,1.9432,1.9716,2.0413,2.1635,2.2965,2.4519,2.6127,2.6817,2.7314,2.7584,0.0,2.5048,2.4268,2.2568,2.1351,2.053,1.9982,1.9591,1.9424,1.9424,1.9424,1.9591,2.1088,2.2702,2.4378,2.5654,2.7114,2.8291,2.8291,2.8291,2.8291,2.8291,2.8291,2.8291,2.8291,2.8291,2.8291,2.8291,2.8291,2.8291,2.8291,2.8291,2.8291,2.8291,2.8291,2.8164,2.7796,2.79,2.7705,2.6562,2.6631,2.6533,2.5684,2.5586,2.5459,2.5019,2.458,2.418,2.3818,2.3389,2.3091,2.3091,2.3091,2.3091,2.3091,2.2691,2.2451,2.2324,2.1973,2.1748,2.1689,2.1689,2.1689,2.1689,2.1689,2.1689,1.1866,1.2285,1.2692,1.261,1.312,1.3607,1.33,1.4,1.4765,1.4859,1.5661,1.6635,1.7578,1.7675,1.8025,1.9238,1.9119,1.9381,2.0713,2.028,2.0522,2.2372,2.2327,2.2715,2.4133,2.4622,2.516,2.5827,2.465,2.3545,2.2653,2.1657,2.0614,1.9437,1.9646,1.9659,1.943,1.9424,1.9758,2.0422,2.1592,2.2993,2.4548,2.5231,2.5652,2.582,0.0,2.3538,2.1715,2.1278,2.0416,1.9402,1.9411,1.9424,1.9424,1.9424,1.9424,1.9482,2.0206,2.1373,2.2758,2.3423,2.5206,2.6943,2.6109,2.6445,2.7105,2.7105,2.7672,2.8291,2.8291,2.8291,2.8291,2.8291,2.8291,2.8291,2.8291,2.8291,2.8291,2.8291,2.8291,2.8232,2.8037,2.7978,2.7676,2.6855,2.6699,2.6185,2.4792,2.5274,2.5042,2.3421,2.3937,2.405,2.3102,2.306,2.3091,2.3091,2.3091,2.3091,2.3091,2.2906,2.2701,2.2519,2.2324,2.2119,2.1885,2.1885,2.1885,2.1885,2.1885,2.1885,1.2094,1.2328,1.2565,1.2837,1.342,1.3961,1.3826,1.4727,1.5383,1.492,1.5711,1.659,1.6841,1.7363,1.8049,1.8824,1.8323,1.7996,1.8446,1.8259,1.8747,2.0669,2.0886,2.1522,2.3151,2.3599,2.3822,2.3822,2.242,2.1586,2.1586,2.0422,1.9599,1.943,1.9586,1.9593,1.943,1.9299,1.9265,1.9316,2.0489,2.1751,2.3083,2.3816,2.4229,2.426,2.3856,2.2162,1.9747,2.0182,1.9645,1.8544,1.9058,1.9305,1.9424,1.9424,1.9424,1.9424,1.9424,2.0371,2.1586,2.1586,2.3423,2.5316,2.4156,2.4599,2.5544,2.5544,2.6381,2.7394,2.813,2.8291,2.8291,2.8291,2.8291,2.8291,2.8291,2.8291,2.8291,2.8291,2.8014,2.7789,2.7789,2.7245,2.6592,2.6074,2.5735,2.4978,2.3447,2.4146,2.3998,2.1904,2.2849,2.327,2.2472,2.303,2.3354,2.3257,2.3149,2.3091,2.3091,2.3091,2.2945,2.2666,2.2656,2.25,2.2178,2.2178,2.2178,2.2178,2.2178,2.2178,1.2643,1.2945,1.3146,1.3173,1.3427,1.3773,1.4292,1.4727,1.5192,1.5618,1.6013,1.6244,1.5933,1.637,1.7019,1.7639,1.811,1.9098,2.1023,2.0123,1.9807,2.1341,2.1511,2.1583,2.1749,2.2983,2.3822,2.3822,2.242,2.1586,2.1586,2.022,1.945,1.9424,1.945,1.945,1.9424,1.9092,1.8958,1.8951,2.0053,2.1341,2.2757,2.3421,2.3926,2.4191,2.2596,2.1198,1.9992,1.8711,1.8311,1.8524,1.8831,1.9125,1.9424,1.9424,1.9424,1.9424,1.9424,2.0371,2.1586,2.1586,2.2645,2.3933,2.3822,2.3877,2.3989,2.3989,2.4044,2.4774,2.7565,2.8291,2.8291,2.8291,2.8291,2.8291,2.8291,2.8291,2.8291,2.8291,2.7187,2.6245,2.6273,2.5023,2.3824,2.3115,2.2989,2.2714,2.1945,2.1954,2.1904,2.1702,2.1445,2.1567,2.2348,2.355,2.416,2.3769,2.3315,2.3091,2.3091,2.3091,2.3081,2.3052,2.3052,2.3033,2.3003,2.3003,2.3003,2.3003,2.3003,2.3003,1.2438,1.2832,1.3253,1.3393,1.38,1.4342,1.493,1.5438,1.5993,1.6533,1.6881,1.7054,1.6941,1.7261,1.7669,1.8083,1.8651,1.9334,2.0113,1.9758,1.9591,2.0148,2.0256,2.0122,1.9933,2.0408,2.0659,2.0518,2.0017,1.9689,1.9689,1.9319,1.9092,1.9092,1.9092,1.9092,1.9092,1.8804,1.8564,1.8377,1.8734,1.9679,2.1084,2.1119,2.1224,2.1337,2.0696,1.9695,1.8544,1.8171,1.8055,1.8263,1.8738,1.9105,1.9424,1.9424,1.9424,1.9424,1.9424,1.9758,2.0256,2.0256,2.1202,2.2258,2.1323,2.1707,2.242,2.242,2.242,2.2927,2.4994,2.5498,2.5498,2.5498,2.5498,2.5498,2.5498,2.5498,2.5498,2.5498,2.5058,2.4663,2.4654,2.4211,2.3527,2.2803,2.2695,2.2168,2.0581,2.1143,2.1041,1.9317,1.9532,2.0136,2.1092,2.1631,2.1749,2.1408,2.2742,2.3418,2.311,2.2403,2.1987,2.1987,2.1221,2.0863,2.0863,2.0863,2.0863,2.0863,2.0863,2.0863,1.2091,1.2344,1.2661,1.3326,1.3973,1.477,1.5732,1.6186,1.6633,1.7467,1.7582,1.7609,1.7709,1.7822,1.8029,1.8424,1.8985,1.9424,1.9424,1.9424,1.9424,1.9424,1.9726,1.9738,1.9129,1.933,1.9228,1.8687,1.8544,1.849,1.849,1.8677,1.8784,1.8784,1.8784,1.8784,1.8784,1.8497,1.825,1.7995,1.7896,1.8624,1.9904,1.968,1.9576,1.9576,1.9576,1.8869,1.7736,1.7856,1.8016,1.8175,1.8631,1.9025,1.9424,1.9424,1.9426,1.9492,1.9457,1.9491,1.9492,1.9457,2.009,2.0702,1.9707,2.009,2.0923,2.0923,2.0923,2.1145,2.2153,2.3103,2.3822,2.3822,2.3822,2.3822,2.3822,2.3822,2.3822,2.3822,2.3431,2.3095,2.3095,2.271,2.2185,2.1612,2.1527,2.0948,1.9449,2.0001,1.9792,1.7799,1.8574,1.9454,2.0105,2.0573,2.0613,2.0128,2.1808,2.2564,2.198,2.1168,2.0747,2.0747,1.9898,1.9497,1.9497,1.9497,1.9497,1.9497,1.9497,1.9497,1.1657,1.146,1.1357,1.2824,1.3881,1.499,1.6797,1.6921,1.7041,1.8243,1.8009,1.7689,1.7942,1.7802,1.7796,1.839,1.8985,1.9424,1.9424,1.9424,1.9366,1.9417,2.0415,2.061,1.9492,2.0177,2.0201,1.8998,1.8644,1.8484,1.8484,1.8484,1.849,1.849,1.849,1.849,1.849,1.8135,1.7989,1.7982,1.7729,1.8304,1.9576,1.9576,1.9576,1.9576,1.9576,1.8998,1.7962,1.7709,1.7936,1.849,1.849,1.8851,1.9424,1.9424,1.9546,1.9753,1.9466,1.9553,1.9746,1.9459,1.9424,1.9424,1.9424,1.9424,1.9424,1.9424,1.9424,1.9424,1.9424,2.1544,2.3766,2.3766,2.3766,2.3766,2.3766,2.3766,2.3766,2.3766,2.2597,2.1586,2.1586,2.0371,1.9265,1.8965,1.8925,1.8818,1.8524,1.823,1.7876,1.7615,1.8812,1.9576,1.9576,2.0837,2.1337,2.0619,2.0578,2.0248,1.9521,1.9497,1.9497,1.9497,1.9488,1.9451,1.9451,1.9451,1.9451,1.9451,1.9451,1.9451,1.1931,1.2357,1.2765,1.364,1.4489,1.5491,1.6891,1.6921,1.7101,1.8504,1.849,1.831,1.8555,1.8591,1.8517,1.8497,1.8985,1.9292,1.9085,1.9058,1.8978,1.8778,1.9048,1.905,1.845,1.8646,1.859,1.8043,1.7903,1.7849,1.7849,1.8056,1.8129,1.8129,1.8129,1.8129,1.8129,1.7876,1.7722,1.7716,1.7622,1.7786,1.8199,1.8199,1.8199,1.8199,1.8199,1.7991,1.7716,1.7622,1.7816,1.8142,1.841,1.8724,1.9078,1.9292,1.9419,1.9486,1.9457,1.9426,1.9486,1.9457,1.9424,1.9424,1.9424,1.9424,1.9424,1.9424,1.9424,1.9424,1.9424,2.004,2.0709,2.0709,2.0709,2.0709,2.0709,2.0709,2.0709,2.0709,2.0371,2.0033,2.0033,1.9707,1.9265,1.8965,1.8925,1.8744,1.8189,1.8049,1.7876,1.7615,1.7943,1.8199,1.8199,1.8603,1.8633,1.8225,1.8203,1.8589,1.9438,1.868,1.8226,1.8226,1.735,1.6889,1.6889,1.6889,1.6889,1.6889,1.6889,1.6889,1.1175,1.1752,1.2236,1.308,1.4427,1.5845,1.6958,1.7521,1.8016,1.8918,1.8865,1.8751,1.9045,1.8905,1.8771,1.8831,1.9138,1.9265,1.8965,1.8925,1.8818,1.8524,1.8384,1.829,1.823,1.8003,1.7782,1.7595,1.7475,1.746,1.746,1.7589,1.7689,1.7689,1.7689,1.7689,1.7689,1.7508,1.7468,1.7582,1.7582,1.7582,1.7582,1.7582,1.7582,1.7582,1.7582,1.7582,1.7582,1.7582,1.7762,1.8022,1.8377,1.8664,1.8958,1.9259,1.9497,1.9519,1.9464,1.9446,1.9519,1.9406,1.9424,1.9424,1.9424,1.9424,1.9424,1.9424,1.9424,1.9424,1.9424,1.9424,1.9424,1.9424,1.9424,1.9424,1.9424,1.9424,1.9424,1.9424,1.9424,1.9424,1.9424,1.9424,1.9305,1.9125,1.8998,1.8655,1.8069,1.7989,1.7923,1.7615,1.7582,1.7582,1.7582,1.7582,1.7514,1.7219,1.7199,1.7545,1.8366,1.7691,1.7201,1.6951,1.632,1.5945,1.5784,1.5784,1.5784,1.5784,1.5784,1.5784,1.0077,1.0513,1.0757,1.2011,1.4161,1.6179,1.7125,1.8392,1.9325,1.9325,1.9132,1.9058,1.9352,1.8945,1.8744,1.9336,1.9424,1.9252,1.8925,1.8885,1.8764,1.8444,1.817,1.8055,1.8384,1.7903,1.7582,1.7582,1.7367,1.7213,1.7239,1.7186,1.7172,1.7199,1.7172,1.7172,1.7199,1.7172,1.7306,1.7542,1.7515,1.7502,1.7508,1.7555,1.7582,1.7582,1.7582,1.7582,1.7582,1.7582,1.7749,1.7982,1.8364,1.8651,1.8925,1.9252,1.9533,1.9726,1.9459,1.9539,1.972,1.9452,1.9424,1.9424,1.9424,1.9424,1.9424,1.9424,1.9424,1.9424,1.9424,1.9424,1.9424,1.9424,1.9424,1.9424,1.9424,1.9424,1.9424,1.9424,1.9424,1.9424,1.9424,1.9424,1.9424,1.9424,1.9138,1.8751,1.8109,1.807,1.7936,1.7615,1.7582,1.7582,1.7582,1.7582,1.7521,1.7259,1.7239,1.7105,1.676,1.672,1.644,1.5879,1.6132,1.6126,1.5784,1.5784,1.5784,1.5784,1.5784,1.5784,1.1859,1.2259,1.2518,1.3675,1.5464,1.7152,1.7996,1.8624,1.9018,1.9018,1.9152,1.9359,1.9653,1.9419,1.9219,1.9403,1.9424,1.9185,1.8657,1.8584,1.8384,1.7842,1.7722,1.7709,1.7769,1.7662,1.7582,1.7582,1.7367,1.73,1.7475,1.7048,1.6907,1.7192,1.6921,1.6914,1.7199,1.6914,1.6947,1.7293,1.7007,1.6894,1.6907,1.7368,1.7582,1.7582,1.7582,1.7582,1.7582,1.7582,1.7622,1.7736,1.8277,1.8531,1.8644,1.9172,1.9464,1.9511,1.945,1.9464,1.9511,1.945,1.9424,1.9424,1.9424,1.9424,1.9424,1.9424,1.9424,1.9424,1.9424,1.9424,1.9424,1.9424,1.9424,1.9424,1.9424,1.9424,1.9424,1.9424,1.9424,1.9424,1.9424,1.9424,1.9424,1.9424,1.9312,1.9058,1.847,1.839,1.8183,1.7642,1.7582,1.7582,1.7582,1.7582,1.7555,1.7548,1.7488,1.7414,1.7119,1.6834,1.654,1.6186,1.6239,1.6126,1.5784,1.5784,1.5784,1.5784,1.5784,1.5784,1.1496,1.2209,1.302,1.49,1.6308,1.736,1.7916,1.8397,1.8718,1.8718,1.9065,1.9412,1.9566,1.9466,1.9377,1.9178,1.9158,1.8951,1.8364,1.8277,1.805,1.7501,1.7427,1.7373,1.7174,1.7161,1.7108,1.6967,1.6864,1.6844,1.6947,1.6667,1.6573,1.6777,1.658,1.6573,1.6777,1.658,1.6647,1.6934,1.678,1.6707,1.6714,1.7021,1.7161,1.7168,1.7367,1.7427,1.744,1.7522,1.7582,1.7629,1.8096,1.8364,1.8544,1.8991,1.9245,1.9424,1.9424,1.9424,1.9424,1.9424,1.9424,1.9424,1.9424,1.9424,1.9424,1.9424,1.9424,1.9424,1.9424,1.9424,1.9424,1.9424,1.9424,1.9424,1.9424,1.9424,1.9424,1.9424,1.9424,1.9424,1.9424,1.9424,1.9377,1.9172,1.9158,1.8991,1.8551,1.8364,1.8156,1.7842,1.7669,1.7582,1.7582,1.7582,1.7582,1.7582,1.7582,1.7515,1.7414,1.7208,1.6921,1.6486,1.667,1.6547,1.6246,1.6106,1.6039,1.6039,1.5844,1.5784,1.0846,1.19,1.3242,1.5583,1.6616,1.7152,1.7548,1.7969,1.8364,1.847,1.8878,1.9219,1.9219,1.9219,1.9138,1.8891,1.8844,1.8644,1.7995,1.7916,1.7742,1.7192,1.7125,1.6974,1.6727,1.6707,1.6607,1.6366,1.6348,1.6342,1.6346,1.6253,1.6219,1.6321,1.6226,1.6219,1.6321,1.6219,1.6346,1.6627,1.658,1.6553,1.6553,1.6553,1.6613,1.672,1.7018,1.7152,1.7219,1.746,1.7535,1.7615,1.7923,1.8142,1.8457,1.8798,1.9078,1.9299,1.941,1.9424,1.9424,1.9424,1.9424,1.9424,1.9424,1.9424,1.9424,1.9424,1.9424,1.9424,1.9424,1.9424,1.9424,1.9424,1.9424,1.9424,1.9424,1.9424,1.9424,1.9424,1.9424,1.9424,1.9424,1.9424,1.9285,1.9038,1.8998,1.8898,1.8604,1.8303,1.8049,1.7995,1.7769,1.7582,1.7582,1.7582,1.7582,1.7582,1.7582,1.7582,1.7582,1.7582,1.7355,1.6867,1.7099,1.7052,1.6707,1.6413,1.6321,1.6315,1.5965,1.5784,1.2344,1.3358,1.4401,1.5278,1.5952,1.665,1.7402,1.7642,1.7856,1.8384,1.8551,1.8611,1.8611,1.8611,1.8597,1.8557,1.8551,1.8337,1.7729,1.7642,1.7422,1.6834,1.6767,1.6747,1.6707,1.6707,1.6693,1.6653,1.6413,1.638,1.6633,1.6166,1.6005,1.6315,1.6019,1.6012,1.6321,1.6019,1.6039,1.6326,1.6066,1.5898,1.5898,1.5898,1.6226,1.6707,1.6747,1.6914,1.7206,1.7246,1.7407,1.7615,1.7923,1.8015,1.8115,1.8668,1.8951,1.9018,1.9279,1.9424,1.9424,1.9424,1.9424,1.9424,1.9424,1.9424,1.9424,1.9424,1.9424,1.9424,1.9424,1.9424,1.9424,1.9424,1.9424,1.9424,1.9424,1.9424,1.9424,1.9424,1.9424,1.9424,1.9424,1.9424,1.9352,1.9319,1.9305,1.9199,1.8905,1.8611,1.833,1.8015,1.7769,1.7582,1.7582,1.7582,1.7582,1.7582,1.7582,1.7582,1.7582,1.7582,1.7549,1.7468,1.7306,1.7052,1.6707,1.6413,1.6321,1.6315,1.5965,1.5784,1.2846,1.3387,1.4008,1.4923,1.5471,1.5972,1.6687,1.6974,1.7215,1.7702,1.7609,1.7695,1.837,1.849,1.8437,1.827,1.8096,1.7829,1.7454,1.7194,1.6934,1.6513,1.6466,1.64,1.6233,1.6219,1.6219,1.6219,1.6099,1.6079,1.6206,1.5917,1.5885,1.6019,1.5899,1.5892,1.6019,1.5844,1.5844,1.6019,1.5892,1.5784,1.5784,1.5784,1.5924,1.6226,1.6393,1.6627,1.6914,1.7132,1.7373,1.7595,1.7736,1.7996,1.833,1.8584,1.8891,1.9192,1.9325,1.9424,1.9424,1.9424,1.9424,1.9424,1.9424,1.9424,1.9424,1.9424,1.9424,1.9424,1.9424,1.9424,1.9424,1.9424,1.9424,1.9424,1.9424,1.9424,1.9424,1.9424,1.9424,1.9424,1.9424,1.9424,1.9424,1.9424,1.9424,1.9377,1.9192,1.8918,1.8684,1.8495,1.8123,1.7842,1.7842,1.7682,1.7582,1.7582,1.7582,1.7582,1.7582,1.7582,1.7582,1.7582,1.7455,1.7328,1.7194,1.674,1.6513,1.6506,1.6039,1.5784,1.2973,1.3206,1.3514,1.4315,1.4903,1.5418,1.5932,1.6273,1.6587,1.7012,1.686,1.6981,1.7869,1.8036,1.7963,1.7689,1.7508,1.7261,1.7018,1.6734,1.6486,1.6192,1.6159,1.6072,1.5804,1.5784,1.5784,1.5784,1.5784,1.5784,1.5784,1.5784,1.5784,1.5784,1.5784,1.5784,1.5784,1.5784,1.5784,1.5784,1.5784,1.5784,1.5784,1.5784,1.5784,1.5791,1.6059,1.6366,1.6727,1.6947,1.7306,1.7582,1.7582,1.7909,1.8384,1.8464,1.8818,1.9265,1.9339,1.9424,1.9424,1.9424,1.9424,1.9424,1.9424,1.9424,1.9424,1.9424,1.9424,1.9424,1.9424,1.9424,1.9424,1.9424,1.9424,1.9424,1.9424,1.9068,1.8887,1.9307,1.9062,1.8946,1.9307,1.9424,1.9424,1.9424,1.9424,1.9424,1.9424,1.9112,1.8925,1.8925,1.8464,1.8075,1.8002,1.7836,1.7669,1.7589,1.7582,1.7582,1.7582,1.7582,1.7582,1.7582,1.7582,1.7549,1.7521,1.6954,1.6667,1.6587,1.6066,1.5784,1.2797,1.3186,1.3527,1.3353,1.4148,1.5109,1.5371,1.5665,1.5991,1.6613,1.6714,1.6727,1.6787,1.6794,1.6794,1.678,1.676,1.6647,1.6359,1.6355,1.6186,1.5885,1.5852,1.5798,1.5784,1.5784,1.5784,1.5784,1.5784,1.5784,1.5784,1.5784,1.5784,1.5784,1.5784,1.5784,1.5784,1.5784,1.5784,1.5784,1.5784,1.5784,1.5784,1.5784,1.5784,1.5784,1.5798,1.6179,1.6707,1.6727,1.7068,1.7582,1.7582,1.7782,1.8049,1.8384,1.8684,1.8985,1.9272,1.9424,1.9424,1.9424,1.9424,1.9424,1.9424,1.9424,1.9424,1.9424,1.9424,1.9424,1.9424,1.9424,1.9424,1.9424,1.9424,1.9424,1.9424,1.8221,1.7566,1.912,1.8163,1.7624,1.9127,1.9424,1.9424,1.9424,1.9424,1.9424,1.9424,1.9112,1.8925,1.8925,1.8651,1.8357,1.8015,1.7975,1.7896,1.7602,1.7582,1.7582,1.7582,1.7582,1.7582,1.7582,1.7582,1.7442,1.7226,1.6854,1.6567,1.6286,1.5972,1.5784,1.3093,1.3053,1.3133,1.3373,1.3766,1.4242,1.4723,1.5204,1.5665,1.6059,1.6146,1.6199,1.6393,1.658,1.6707,1.6707,1.6553,1.6393,1.6286,1.6112,1.5945,1.5791,1.5784,1.5784,1.5784,1.5784,1.5784,1.5784,1.5784,1.5784,1.5784,1.5784,1.5784,1.5784,1.5784,1.5784,1.5784,1.5784,1.5784,1.5784,1.5784,1.5784,1.5784,1.5784,1.5784,1.5784,1.5784,1.6159,1.6707,1.6707,1.7054,1.7582,1.7582,1.7769,1.8029,1.8384,1.8677,1.8965,1.9265,1.9424,1.9424,1.9424,1.9424,1.9424,1.9424,1.9424,1.9424,1.9424,1.9424,1.9424,1.9424,1.9424,1.9424,1.9424,1.9424,1.9424,1.9424,1.8163,1.7501,1.9068,1.8104,1.7501,1.9127,1.9424,1.9424,1.9424,1.9424,1.9424,1.9424,1.9279,1.9205,1.9205,1.8945,1.8651,1.8357,1.8102,1.7916,1.7602,1.7582,1.7582,1.7582,1.7582,1.7582,1.7582,1.7582,1.7528,1.7481,1.7186,1.684,1.6547,1.6246,1.6012,1.3367,1.3133,1.3019,1.348,1.3533,1.3613,1.4242,1.4676,1.507,1.5458,1.5618,1.5772,1.6072,1.6279,1.6413,1.6413,1.6253,1.6126,1.6126,1.5952,1.5784,1.5784,1.5784,1.5784,1.5784,1.5784,1.5784,1.5784,1.5784,1.5635,1.5194,1.5146,1.5146,1.5146,1.5588,1.5784,1.5784,1.5784,1.5784,1.5784,1.5784,1.5784,1.5784,1.5784,1.5784,1.5784,1.5784,1.6106,1.6567,1.6667,1.6994,1.7442,1.7542,1.7769,1.8015,1.827,1.8531,1.8804,1.9005,1.9072,1.9092,1.9185,1.9219,1.9239,1.9397,1.9424,1.9424,1.9424,1.9424,1.9424,1.9424,1.9424,1.9424,1.9424,1.9424,1.9249,1.8706,1.7331,1.6674,1.8286,1.7331,1.6733,1.8344,1.9062,1.9424,1.9424,1.9424,1.9424,1.9424,1.9424,1.9424,1.9424,1.9192,1.8958,1.8657,1.837,1.8063,1.7756,1.7642,1.7582,1.7582,1.7582,1.7582,1.7582,1.7582,1.7582,1.7582,1.734,1.6998,1.6553,1.6359,1.6112,0.0,0.0,0.0,1.352,1.3373,1.3347,1.3928,1.4068,1.4242,1.4874,1.517,1.5411,1.5704,1.5704,1.571,1.5717,1.5778,1.5784,1.5784,1.5771,1.5764,1.5764,1.5758,1.5758,1.5758,1.5764,1.5717,1.5717,1.5676,1.5146,1.3926,1.383,1.3872,1.3926,1.5092,1.5778,1.5784,1.5784,1.5784,1.5784,1.5784,1.5784,1.5784,1.5784,1.5784,1.5784,1.5784,1.5992,1.6335,1.6587,1.6881,1.7233,1.7521,1.7769,1.7975,1.7989,1.823,1.8477,1.849,1.849,1.8537,1.8831,1.8925,1.8978,1.9279,1.9424,1.9424,1.9424,1.9424,1.9424,1.9424,1.9424,1.9424,1.9424,1.9366,1.8881,1.7325,1.5725,1.502,1.6668,1.5725,1.5138,1.6791,1.8344,1.9424,1.9424,1.9424,1.9424,1.9424,1.9424,1.9424,1.9424,1.9424,1.9245,1.8951,1.8657,1.8364,1.8009,1.7756,1.7582,1.7582,1.7582,1.7582,1.7582,1.7582,1.7582,1.7582,1.7353,1.6911,1.6335,1.6266,1.6106,1.3968,0.0,0.0,0.0,0.0,0.0,1.3367,1.3614,1.3893,1.4522,1.4021,1.388,1.5007,1.3838,1.3003,1.3901,1.5059,1.5784,1.5784,1.5651,1.5518,1.5518,1.5331,1.5204,1.5204,1.4532,1.4072,1.4072,1.3391,1.2818,1.2479,1.2425,1.2909,1.3878,1.4214,1.4854,1.5778,1.5784,1.5784,1.5784,1.5784,1.5784,1.5784,1.5784,1.5784,1.5784,1.5784,1.5831,1.5992,1.65,1.6881,1.7233,1.7521,1.7635,1.7736,1.7909,1.8042,1.8149,1.8417,1.849,1.8537,1.8831,1.8925,1.8978,1.9279,1.9424,1.9424,1.9424,1.9424,1.9424,1.9424,1.9424,1.9424,1.9424,1.8525,1.756,1.7085,1.4831,1.3701,1.6433,1.5725,1.5494,1.8286,1.9127,1.9424,1.9424,1.9424,1.9424,1.9424,1.9424,1.9424,1.9424,1.9424,1.9245,1.8951,1.8657,1.8364,1.8009,1.7756,1.7582,1.7582,1.7582,1.7582,1.7582,1.7582,1.7582,1.7582,1.7554,1.7161,1.6573,1.6146,1.5905,1.3955,1.3748,1.3447,1.3694,0.0,0.0,1.3293,1.3327,1.3407,1.3874,1.3499,1.3446,1.4449,1.3516,1.2874,1.3728,1.4656,1.5134,1.4835,1.4638,1.4466,1.4466,1.432,1.4038,1.3574,1.2969,1.2625,1.2678,1.2157,1.1608,1.1112,1.1036,1.1606,1.2846,1.3476,1.4395,1.5598,1.5718,1.5784,1.5778,1.5242,1.4997,1.4997,1.4997,1.4997,1.5045,1.5581,1.5784,1.5777,1.581,1.5929,1.617,1.6512,1.6658,1.6683,1.6854,1.73,1.7876,1.805,1.811,1.8163,1.8464,1.8644,1.8798,1.9092,1.9265,1.9424,1.9424,1.9424,1.9424,1.9424,1.8881,1.8402,1.8402,1.7149,1.5784,1.5128,1.3522,1.2928,1.5483,1.5252,1.5435,1.7987,1.8946,1.9424,1.9424,1.9424,1.9185,1.8467,1.9004,1.9127,1.846,1.9004,1.9299,1.9125,1.8838,1.8597,1.8368,1.8009,1.7776,1.7776,1.7649,1.7582,1.7582,1.7582,1.7522,1.7454,1.7522,1.7281,1.6693,1.6106,1.5534,1.3773,1.3868,1.3726,1.4252,1.3627,0.0,1.344,1.318,1.2911,1.3153,1.3266,1.3464,1.3893,1.3798,1.3783,1.4156,1.4132,1.3869,1.3419,1.3352,1.3219,1.2942,1.3009,1.262,1.1479,1.1293,1.1267,1.138,1.132,1.0815,0.9813,0.9646,1.0156,1.142,1.2778,1.4121,1.5398,1.5685,1.573,1.5588,1.4459,1.3824,1.3686,1.3824,1.3926,1.3974,1.5242,1.573,1.5532,1.4847,1.4603,1.4655,1.5007,1.515,1.515,1.515,1.6015,1.7094,1.7094,1.7199,1.7417,1.7667,1.8079,1.8544,1.8838,1.901,1.9127,1.8946,1.8887,1.8887,1.8887,1.7806,1.6733,1.6733,1.5488,1.3944,1.2513,1.2037,1.2453,1.4247,1.4604,1.5198,1.6968,1.8467,1.9424,1.9424,1.9424,1.8823,1.7208,1.8227,1.8583,1.7144,1.8286,1.9185,1.9366,1.9092,1.8911,1.8878,1.8302,1.7975,1.7942,1.7729,1.7582,1.7582,1.7582,1.7455,1.7246,1.7414,1.7168,1.6647,1.5941,1.4997,1.372,1.3868,1.3633,1.3746,1.36,0.0,1.328,1.3206,1.3133,1.32,1.2294,1.1897,1.316,1.2064,1.1312,1.2375,1.1725,1.1542,1.3046,1.3649,1.3243,1.1478,1.1781,1.1747,1.0724,1.0,0.9582,0.9622,0.8858,0.8361,0.8233,0.8097,0.9035,1.1251,1.1843,1.3169,1.5398,1.5685,1.5296,1.4262,1.4022,1.3343,1.2334,1.3392,1.3926,1.3974,1.5242,1.5242,1.431,1.4492,1.4552,1.4497,1.3943,1.3696,1.3696,1.3696,1.3911,1.4126,1.4126,1.4877,1.5891,1.6223,1.7279,1.8544,1.8838,1.8237,1.7208,1.5908,1.5553,1.5553,1.5553,1.5311,1.5074,1.5074,1.3825,1.2573,1.2273,1.1197,1.114,1.4063,1.4604,1.5494,1.8409,1.9185,1.9424,1.9424,1.9424,1.8823,1.7208,1.7267,1.7325,1.7026,1.7267,1.7981,1.9307,1.9092,1.8824,1.8591,1.8189,1.7882,1.7682,1.7615,1.7582,1.7582,1.7582,1.7555,1.7495,1.6898,1.6466,1.6346,1.4908,1.4118,1.374,1.3981,1.3895,1.4006,1.382,0.0,0.0,1.342,1.3213,1.3213,1.2525,1.2119,1.2868,1.2056,1.1545,1.248,1.1984,1.1799,1.2616,1.2323,1.1408,0.9811,1.0378,1.0269,0.8713,0.8632,0.8518,0.8124,0.771,0.755,0.7699,0.7567,0.8578,1.098,1.1421,1.2749,1.5184,1.5611,1.5146,1.3872,1.3199,1.2571,1.1896,1.2624,1.3247,1.3974,1.5242,1.5092,1.3854,1.3552,1.3009,1.2437,1.2291,1.2186,1.2186,1.2186,1.2674,1.3372,1.4126,1.4824,1.5547,1.6442,1.7408,1.8152,1.764,1.6726,1.5607,1.4837,1.4604,1.4604,1.4604,1.4004,1.3407,1.3407,1.2157,1.102,1.102,1.0361,1.0539,1.2933,1.3407,1.4658,1.8706,1.9424,1.9424,1.9424,1.8706,1.763,1.602,1.5784,1.5488,1.4713,1.6015,1.7325,1.8104,1.8757,1.9018,1.8724,1.843,1.813,1.7822,1.7662,1.7582,1.7582,1.7494,1.742,1.742,1.6774,1.6616,1.67,1.5041,1.3914,1.391,1.4255,1.4252,1.4202,1.4031,1.3831,0.0,0.0,0.0,1.3233,1.3005,1.2784,1.2784,1.2589,1.2525,1.2966,1.2911,1.2616,1.2076,1.0895,0.9737,0.8891,0.953,0.9325,0.7506,0.7839,0.7887,0.7122,0.7214,0.7353,0.7502,0.7619,0.862,1.0706,1.1407,1.2785,1.4963,1.5484,1.4994,1.3488,1.2431,1.175,1.1556,1.1799,1.2619,1.3974,1.5242,1.4949,1.3463,1.2571,1.1374,1.0064,1.0493,1.0643,1.0676,1.0676,1.1433,1.267,1.4073,1.477,1.5257,1.6717,1.7388,1.7405,1.6201,1.5009,1.4063,1.3765,1.3706,1.3706,1.3706,1.2693,1.1736,1.1736,1.0778,0.9822,0.9822,0.9822,1.0301,1.1916,1.2213,1.3526,1.7753,1.8473,1.8473,1.8473,1.739,1.5961,1.4361,1.4128,1.3646,1.2337,1.479,1.6593,1.6891,1.8333,1.9072,1.8771,1.8537,1.827,1.7916,1.7716,1.7582,1.7582,1.7407,1.7286,1.7286,1.6733,1.6521,1.6638,1.4957,1.3472,1.4489,1.4908,1.4581,1.3303,1.3932,1.439,1.2571,0.0,1.3841,1.332,0.0,1.2784,1.2784,0.0,0.0,1.2438,1.2636,1.2374,1.1135,1.0793,1.0584,1.0207,1.0387,1.0247,0.962,0.8728,0.784,0.6982,0.6927,0.6997,0.7139,0.8143,0.931,1.0564,1.1921,1.342,1.4963,1.5284,1.4327,1.2139,1.1945,1.1317,1.0243,1.1414,1.2619,1.3974,1.5242,1.4418,1.2127,1.2294,1.094,0.8759,0.888,0.9033,0.9154,0.9154,0.9265,0.9592,1.1105,1.2457,1.375,1.5204,1.597,1.6133,1.5099,1.3668,1.2157,1.0778,1.0361,1.0361,1.0361,1.0179,1.0061,1.0061,0.994,0.9822,0.9822,0.9822,1.0301,1.1916,1.2213,1.2813,1.4777,1.5138,1.5138,1.5138,1.502,1.4302,1.2693,1.2453,1.2393,1.2217,1.3589,1.5045,1.6448,1.7804,1.8464,1.8109,1.8062,1.7902,1.7649,1.7602,1.7582,1.7582,1.7549,1.7528,1.7528,1.6206,1.5268,1.479,1.3432,1.2032,1.2547,1.274,1.2762,1.2878,1.3278,1.3573,1.3439,1.3763,1.4015,1.3768,0.0,0.0,0.0,0.0,0.0,0.0,1.2556,1.2452,1.2203,1.177,1.1008,0.9896,1.0341,1.0645,1.0429,0.9447,0.8718,0.8431,0.8404,0.8247,0.7857,0.8978,0.9928,1.0562,1.2013,1.3397,1.4703,1.5164,1.4123,1.1647,1.1836,1.1604,1.1121,1.1653,1.3011,1.5045,1.5581,1.4322,1.1912,1.2048,1.0658,0.8489,0.8554,0.8726,0.8885,0.8885,0.8885,0.9099,1.0566,1.2082,1.356,1.5053,1.4612,1.3355,1.3084,1.1953,1.066,1.0001,0.9822,0.9822,0.9822,0.9822,0.9822,0.9822,0.9822,0.9822,0.9822,0.9822,1.0001,1.066,1.0838,1.102,1.1679,1.3347,1.4604,1.4604,1.383,1.2933,1.2273,1.1378,1.0838,1.0838,1.2863,1.4482,1.5124,1.7209,1.8364,1.8009,1.7822,1.7716,1.7589,1.7582,1.7582,1.7582,1.7582,1.7199,1.6333,1.5689,1.4397,1.251,1.1979,1.1398,1.1251,1.1265,1.1517,1.2318,1.2608,1.293,1.3716,1.4074,1.4182,1.4108,1.3915,0.0,0.0,0.0,1.2857,0.0,0.0,1.2518,1.2806,1.2351,1.1608,1.0482,1.0942,1.1203,1.0826,1.0153,0.9623,0.9475,0.9462,0.9279,0.8728,0.9966,1.0774,1.0942,1.2394,1.3585,1.4472,1.5023,1.3988,1.1502,1.1786,1.1896,1.1896,1.1896,1.3355,1.5784,1.5439,1.398,1.1901,1.157,1.0226,0.8431,0.8513,0.8679,0.8824,0.8868,0.8885,0.9099,1.0566,1.2082,1.3532,1.4817,1.3514,1.1639,1.2353,1.128,0.9879,1.0301,1.0119,0.9822,0.9822,0.9822,0.9822,0.9822,0.9822,0.9822,0.9822,0.9822,0.9822,0.9822,0.9822,0.9822,0.9822,1.1736,1.3287,1.3287,1.2273,1.1555,1.1555,1.0539,0.9822,0.9822,1.2044,1.3708,1.4049,1.6301,1.7792,1.7882,1.7709,1.7582,1.7582,1.7582,1.7417,1.6982,1.6982,1.628,1.4824,1.4395,1.3126,1.1029,1.1084,1.0862,0.0,0.0,0.0,1.1435,0.0,1.2872,1.2457,1.3459,1.4429,1.4142,1.4082,1.3981,1.3646,0.0,0.0,0.0,0.0,0.0,0.0,1.2131,1.2474,1.3028,1.2874,1.2227,1.0925,1.0783,1.034,0.9382,0.9421,0.9502,0.9473,1.0982,1.1869,1.1875,1.3294,1.4193,1.4516,1.4823,1.3811,1.1502,1.1786,1.1896,1.1896,1.1896,1.3355,1.573,1.4507,1.3199,1.1819,1.073,0.9466,0.8357,0.8591,0.871,0.8733,0.8828,0.8885,0.9099,1.0566,1.2082,1.3395,1.3836,1.2842,1.1895,1.3927,1.2329,1.0119,1.1675,1.102,0.9822,0.9822,0.9822,0.9822,0.9822,0.9822,0.9822,0.9822,0.9822,0.9822,0.9822,0.9822,0.9822,0.9822,0.9879,0.994,0.994,0.9879,0.9879,0.9879,0.9819,0.9822,0.9822,1.105,1.2387,1.3606,1.4966,1.632,1.7563,1.7589,1.7582,1.7582,1.7582,1.6929,1.5524,1.547,1.477,1.3372,1.1914,1.1121,1.0888,1.1021,1.0256,0.0,0.0,0.9449,0.9971,0.0,0.0,0.0,0.0,1.2212,1.2784,1.2388,1.2253,1.3398,0.0,0.0,0.0,0.0,0.0,0.0,1.2238,1.2378,1.2585,1.2518,1.2293,1.1855,1.1774,1.1657,1.1323,1.1328,1.1109,1.0501,1.1915,1.2485,1.1899,1.3323,1.4135,1.4229,1.4716,1.3707,1.1245,1.1667,1.1896,1.1896,1.1896,1.2866,1.4513,1.407,1.2662,1.0587,1.0209,0.9373,0.834,0.8482,0.8621,0.873,0.8828,0.8885,0.9099,1.0566,1.0781,1.0602,1.178,1.1216,1.028,1.1028,1.0579,0.994,1.0482,1.024,0.9822,0.9822,0.9822,0.9822,0.9822,0.9822,0.9822,0.9822,0.9822,0.9822,0.9822,0.9822,0.9822,0.9822,0.9822,0.9822,0.9822,0.9822,0.9822,0.9822,0.9822,0.9822,0.9822,1.099,1.2324,1.3596,1.5684,1.7145,1.7589,1.6658,1.6121,1.6121,1.5257,1.4502,1.4019,1.4019,1.3318,1.1864,1.1324,1.0528,0.9452,0.9511,0.918,0.7894,0.7948,0.0,0.924,0.944,0.0,1.0658,0.0,1.1134,0.0,0.0,1.1235,1.2343,0.0,0.0,0.0,0.0,0.0,0.0,1.2305,1.2305,1.2305,1.2305,1.2305,1.2305,1.2305,1.2305,1.2305,1.2305,1.2044,1.1493,1.2479,1.285,1.2388,1.3389,1.3981,1.4088,1.4713,1.3716,1.1089,1.1632,1.1896,1.1896,1.1896,1.2619,1.3878,1.3392,1.1989,0.9948,0.946,0.8838,0.8204,0.835,0.8499,0.8655,0.8807,0.8885,0.9047,0.997,0.9699,0.9071,1.0212,1.0045,0.9525,1.0259,1.018,0.993,1.041,1.0197,0.9808,0.9758,0.9785,0.9808,0.9758,0.9785,0.9805,0.9758,0.9785,0.9822,0.9822,0.9822,0.9822,0.9822,0.9822,0.9822,0.9822,0.9822,0.9822,0.9822,0.9822,0.9802,0.9751,1.0487,1.1487,1.2758,1.5272,1.6605,1.6121,1.5204,1.4663,1.4663,1.3804,1.3123,1.2671,1.2588,1.1877,1.0476,1.0347,0.9688,0.8628,0.809,0.7777]},{"header":{"parameterUnit":"m.s-1","parameterCategory":1,"la1":30.6,"la2":29.2853,"lo1":-89.7004,"lo2":-87.6739,"dx":0.0162,"dy":0.0183,"nx":112,"ny":82,"refTime":"2023-02-01T06:00:00:Z","depth":0,"parameterNumber":3,"parameterNumberName":"V-component_of_WINDS"},"data":[0.0,0.0,0.0,0.0,0.0,0.0,0.0,0.0,0.0,0.0,0.0,0.0,0.0,0.0,0.0,0.0,0.0,0.0,0.0,0.0,0.0,0.0,0.0,0.0,0.0,0.0,0.0,0.0,0.0,0.0,0.0,0.0,0.0,0.0,0.0,0.0,0.0,0.0,0.0,0.0,0.0,0.0,0.0,0.0,0.0,0.0,0.0,0.0,0.0,0.0,0.0,0.0,0.0,0.0,0.0,0.0,0.0,0.0,0.0,0.0,0.0,0.0,0.0,0.0,0.0,0.0,0.0,0.0,0.0,0.0,0.0,0.0,0.0,0.0,0.0,0.0,0.0,0.0,0.0,0.0,0.0,0.0,0.0,0.0,0.0,0.0,0.0,0.0,0.0,0.0,1.1003,1.1196,1.2217,1.2437,1.129,1.2224,1.3433,1.4714,0.0,0.0,0.0,0.0,0.0,0.0,0.0,0.0,0.0,0.0,0.0,0.0,0.0,0.0,0.0,0.0,0.0,0.0,0.0,0.0,0.0,0.0,0.0,0.0,0.0,0.0,0.0,0.0,0.0,0.0,0.0,0.0,0.0,0.0,0.0,0.0,0.0,0.0,0.0,0.0,0.0,0.0,0.0,0.0,0.0,0.0,0.0,0.0,0.0,0.0,0.0,0.0,0.0,0.0,0.0,0.0,0.0,0.0,0.0,0.0,0.0,0.0,0.0,0.0,0.0,0.0,0.0,0.0,0.0,0.0,0.0,0.0,0.0,0.0,0.0,0.0,0.0,0.0,0.0,0.0,0.0,0.0,0.0,0.0,0.0,0.0,0.0,0.0,0.0,0.0,0.0,0.0,0.0,0.0,0.0,0.0,0.0,0.0,0.0,0.0,0.0,0.0,0.0,0.0,1.1707,1.2513,1.2777,1.2538,1.1615,1.2009,1.302,1.469,0.0,0.0,0.0,0.0,0.0,0.0,0.0,0.0,0.0,0.0,0.0,0.0,0.0,0.0,0.0,0.0,0.0,0.0,0.0,0.0,0.0,0.0,0.0,0.0,0.0,0.0,0.0,0.0,0.0,0.0,0.0,0.0,0.0,0.0,0.0,0.0,0.0,0.0,0.0,0.0,0.0,0.0,0.0,0.0,0.0,0.0,0.0,0.0,0.0,0.0,0.0,0.0,0.0,0.0,0.0,0.0,0.0,0.0,0.0,0.0,0.0,0.0,0.0,0.0,0.0,0.0,0.0,0.0,0.0,0.0,0.0,0.0,0.0,0.0,0.0,0.0,0.0,0.0,0.0,0.0,0.0,0.0,0.0,0.0,0.0,0.0,0.0,0.0,0.0,0.0,0.0,0.0,0.0,0.0,0.0,0.0,0.0,0.0,0.0,0.0,0.0,0.0,0.0,1.0915,1.1775,1.2796,1.2708,1.2405,1.2014,1.2103,1.3183,1.5482,1.5856,0.0,0.0,0.0,0.0,0.0,0.0,0.0,0.0,0.0,0.0,0.0,0.0,0.0,0.0,0.0,0.0,0.0,0.0,0.0,0.0,0.0,0.0,0.0,0.0,0.0,0.0,0.0,0.0,0.0,0.0,0.0,0.0,0.0,0.0,0.0,0.0,0.0,0.0,0.0,0.0,0.0,0.0,0.0,0.0,0.0,0.0,0.0,0.0,0.0,0.0,0.0,0.0,0.0,0.0,0.0,0.0,0.0,0.0,0.0,0.0,0.0,0.0,0.0,0.0,0.0,0.0,0.0,0.0,0.0,0.0,0.0,0.0,0.0,0.0,0.0,0.0,0.0,0.0,0.0,0.0,0.0,0.0,0.0,0.0,0.0,0.0,0.0,0.0,0.0,0.0,0.0,0.0,0.0,0.0,0.0,0.0,0.0,0.0,0.0,0.0,0.0,0.0,1.1627,1.2057,1.295,1.2849,1.2567,1.2168,1.207,1.3145,1.5827,1.5627,0.0,0.0,0.0,0.0,0.0,0.0,0.0,0.0,0.0,0.0,0.0,0.0,0.0,0.0,0.0,0.0,0.0,0.0,0.0,0.0,0.0,0.0,0.0,0.0,0.0,0.0,0.0,0.0,0.0,0.0,0.0,0.0,0.0,0.0,0.0,0.0,0.0,0.0,0.0,0.0,0.0,0.0,0.0,0.0,0.0,0.0,0.0,0.0,0.0,0.0,0.0,0.0,0.0,0.0,0.0,0.0,0.0,0.0,0.0,0.0,0.0,0.0,0.0,0.0,0.0,0.0,0.0,0.0,0.0,0.0,0.0,0.0,0.0,0.0,0.0,0.0,0.0,0.0,0.0,0.0,0.0,0.0,0.0,0.0,0.0,0.0,0.0,0.0,0.0,0.0,0.0,0.0,0.0,0.0,0.0,0.0,0.0,0.0,0.0,0.0,0.0,0.0,1.235,1.3111,1.343,1.3772,1.3336,1.1781,1.1528,1.2498,1.4942,1.4944,0.0,0.0,0.0,0.0,0.0,0.0,0.0,0.0,0.0,0.0,0.0,0.0,0.0,0.0,0.0,0.0,0.0,0.0,0.0,0.0,0.0,0.0,0.0,0.0,0.0,0.0,0.0,0.0,0.0,0.0,0.0,0.0,0.0,0.0,0.0,0.0,0.0,0.0,0.0,0.0,0.0,0.0,0.0,0.0,0.0,0.0,0.0,0.0,0.0,0.0,0.0,0.0,0.0,0.0,0.0,0.0,0.0,0.0,0.0,0.0,0.0,0.0,0.0,0.0,0.0,0.0,0.0,0.0,0.0,0.0,0.0,0.0,0.0,0.0,0.0,0.0,0.0,0.0,0.0,0.0,0.0,0.0,0.0,0.0,0.0,0.0,0.0,0.0,0.0,0.0,0.0,0.0,0.0,0.0,0.0,0.0,0.0,0.0,0.0,0.0,0.0,0.0,1.2346,1.3109,1.3471,1.3418,1.3115,1.2518,1.2434,1.3392,1.5743,0.0,0.0,0.0,0.0,0.0,0.0,0.0,0.0,0.0,0.0,0.0,0.0,0.0,0.0,0.0,0.0,0.0,0.0,0.0,0.0,0.0,0.0,0.0,0.0,0.0,0.0,0.0,0.0,0.0,0.0,0.0,0.0,0.0,0.0,0.0,0.0,0.0,0.0,0.0,0.0,0.0,0.0,0.0,0.0,0.0,0.0,0.0,0.0,0.0,0.0,0.0,0.0,0.0,0.0,0.0,0.0,0.0,0.0,0.0,0.0,0.0,0.0,0.0,0.0,0.0,0.0,0.0,0.0,0.0,0.0,0.0,0.0,0.0,0.0,0.0,0.0,0.0,0.0,0.0,0.0,0.0,0.0,0.0,0.0,0.0,0.0,0.0,0.0,0.0,0.0,0.0,0.0,0.0,0.0,0.0,0.0,0.0,0.0,0.0,0.0,0.0,0.0,1.1308,1.2333,1.3135,1.3291,1.3174,1.3024,1.2806,1.2603,1.3552,1.6019,0.0,0.0,0.0,0.0,0.0,0.0,0.0,0.0,0.0,0.0,0.0,0.0,0.0,0.0,0.0,0.0,0.0,0.0,0.0,0.0,0.0,0.0,0.0,0.0,0.0,0.0,0.0,0.0,0.0,0.0,0.0,0.0,0.0,0.0,0.0,0.0,0.0,0.0,0.0,0.0,0.0,0.0,0.0,0.0,0.0,0.0,0.0,0.0,0.0,0.0,0.0,0.0,0.0,0.0,0.0,0.0,0.0,0.0,0.0,0.0,0.0,0.0,0.0,0.0,0.0,0.0,0.0,0.0,0.0,0.0,0.0,0.0,0.0,0.0,0.0,0.0,0.0,0.0,0.0,0.0,0.0,0.0,0.0,0.0,0.0,0.0,0.0,0.0,0.0,0.0,0.0,0.0,0.0,0.0,0.0,0.0,0.0,0.0,0.0,0.0,0.0,0.0,1.0889,1.2388,1.334,1.2954,1.3252,1.3179,1.238,1.1749,1.2651,0.0,0.0,0.0,0.0,0.0,0.0,0.0,0.0,0.0,0.0,0.0,0.0,0.0,0.0,0.0,0.0,0.0,0.0,0.0,0.0,0.0,0.0,0.0,0.0,0.0,0.0,0.0,0.0,0.0,0.0,0.0,0.0,0.0,0.0,0.0,0.0,0.0,0.0,0.0,0.0,0.0,0.0,0.0,0.0,0.0,0.0,0.0,0.0,0.0,0.0,0.0,0.0,0.0,0.0,0.0,0.0,0.0,0.0,0.0,0.0,0.0,0.0,0.0,0.0,0.0,0.0,0.0,0.0,0.0,0.0,0.0,0.0,0.0,0.0,0.0,0.0,0.0,0.0,0.0,0.0,0.0,0.0,0.0,0.0,0.0,0.0,0.0,0.0,0.0,0.0,0.0,0.0,0.0,0.0,0.0,0.0,0.0,0.0,0.0,0.0,0.0,0.0,0.0,1.1591,1.2432,1.3042,1.2915,1.2715,1.2629,1.2774,1.2631,1.3594,1.6107,0.0,0.0,0.0,0.0,0.0,0.0,0.0,0.0,0.0,0.0,0.0,0.0,0.0,0.0,0.0,0.0,0.0,0.0,0.0,0.0,0.0,0.0,0.0,0.0,0.0,0.0,0.0,0.0,0.0,0.0,0.0,0.0,0.0,0.0,0.0,0.0,0.0,0.0,0.0,0.0,0.0,0.0,0.0,0.0,0.0,0.0,0.0,0.0,0.0,0.0,0.0,0.0,0.0,0.0,0.0,0.0,0.0,0.0,0.0,0.0,0.0,0.0,0.0,0.0,0.0,0.0,0.0,0.0,0.0,0.0,0.0,0.0,0.0,0.0,0.0,0.0,0.0,0.0,0.0,0.0,0.0,0.0,0.0,0.0,0.0,0.0,0.0,0.0,0.0,0.0,0.0,0.0,0.0,0.0,0.0,0.0,0.0,0.0,0.0,0.0,0.0,0.0,1.1898,1.2452,1.2905,1.2905,1.2669,1.2641,1.2983,1.2981,1.3858,1.5965,0.0,0.0,0.0,0.0,0.0,0.0,0.0,0.0,0.0,0.0,0.0,0.0,0.0,0.0,0.0,0.0,0.0,0.0,0.0,0.0,0.0,0.0,0.0,0.0,0.0,0.0,0.0,0.0,0.0,0.0,0.0,0.0,0.0,0.0,0.0,0.0,0.0,0.0,0.0,0.0,0.0,0.0,0.0,0.0,0.0,0.0,0.0,0.0,0.0,0.0,0.0,0.0,0.0,0.0,0.0,0.0,0.0,0.0,0.0,0.0,0.0,0.0,0.0,0.0,0.0,0.0,0.0,0.0,0.0,0.0,0.0,0.0,0.0,0.0,0.0,0.0,0.0,0.0,0.0,0.0,0.0,0.0,0.0,0.0,0.0,0.0,0.0,0.0,0.0,0.0,0.0,0.0,0.0,0.0,0.0,0.0,0.0,0.0,0.0,0.0,0.0,0.0,1.2051,1.2505,1.2929,1.2968,1.2947,1.2976,1.3076,1.3019,1.3706,1.5391,0.0,0.0,0.0,0.0,0.0,0.0,0.0,0.0,0.0,0.0,0.0,0.0,0.0,0.0,0.0,0.0,0.0,0.0,0.0,0.0,0.0,0.0,0.0,0.0,0.0,0.0,0.0,0.0,0.0,0.0,0.0,0.0,0.0,0.0,0.0,0.0,0.0,0.0,0.0,0.0,0.0,0.0,0.0,0.0,0.0,0.0,0.0,0.0,0.0,0.0,0.0,0.0,0.0,0.0,0.0,0.0,0.0,0.0,0.0,0.0,1.8255,1.7931,0.0,0.0,0.0,0.0,0.0,0.0,0.0,0.0,0.0,0.0,0.0,0.0,0.0,0.0,0.0,0.0,0.0,0.0,0.0,0.0,0.0,0.0,0.0,0.0,0.0,0.0,0.0,0.0,0.0,0.0,0.0,0.0,0.0,0.0,0.0,0.0,0.0,0.0,0.0,0.0,1.3109,1.3002,1.3079,1.3552,1.29,1.2818,1.3703,1.3688,1.4156,1.5424,1.6213,0.0,0.0,0.0,0.0,0.0,0.0,0.0,0.0,0.0,0.0,0.0,0.0,0.0,0.0,0.0,0.0,0.0,0.0,0.0,0.0,0.0,0.0,0.0,0.0,0.0,0.0,0.0,0.0,0.0,0.0,0.0,0.0,0.0,0.0,0.0,0.0,0.0,0.0,0.0,0.0,0.0,0.0,0.0,0.0,0.0,0.0,0.0,0.0,0.0,0.0,0.0,0.0,0.0,0.0,0.0,0.0,0.0,0.0,0.0,1.8872,1.797,0.0,0.0,0.0,0.0,0.0,0.0,0.0,0.0,0.0,0.0,0.0,0.0,0.0,0.0,0.0,0.0,0.0,0.0,0.0,0.0,0.0,0.0,0.0,0.0,0.0,0.0,0.0,0.0,0.0,0.0,0.0,0.0,0.0,0.0,0.0,0.0,0.0,0.0,0.0,0.0,1.4241,1.3989,1.3968,1.4551,1.395,1.3646,1.3969,1.4313,1.4656,1.5003,1.607,0.0,0.0,0.0,0.0,0.0,0.0,0.0,0.0,0.0,0.0,0.0,0.0,0.0,0.0,0.0,0.0,0.0,0.0,0.0,0.0,0.0,0.0,0.0,0.0,0.0,0.0,0.0,0.0,0.0,0.0,0.0,0.0,0.0,0.0,0.0,0.0,0.0,0.0,0.0,0.0,0.0,0.0,0.0,0.0,0.0,0.0,0.0,0.0,0.0,0.0,0.0,0.0,0.0,2.0952,2.1682,2.2868,2.337,2.3038,2.1939,1.973,1.8344,1.7691,1.8665,0.0,0.0,0.0,0.0,0.0,0.0,0.0,0.0,0.0,0.0,0.0,0.0,0.0,0.0,0.0,0.0,0.0,0.0,0.0,0.0,0.0,0.0,0.0,0.0,1.9653,1.9771,1.8772,0.0,0.0,0.0,0.0,0.0,0.0,0.0,0.0,0.0,0.0,0.0,1.5105,1.4985,1.5059,1.5607,1.5147,1.4627,1.4193,1.4862,1.507,1.4529,1.5794,1.6623,0.0,0.0,0.0,0.0,0.0,0.0,0.0,0.0,0.0,0.0,0.0,0.0,0.0,0.0,0.0,0.0,0.0,0.0,0.0,0.0,0.0,0.0,0.0,0.0,0.0,0.0,0.0,0.0,0.0,0.0,0.0,0.0,2.1081,2.1739,0.0,0.0,0.0,0.0,0.0,0.0,0.0,0.0,0.0,0.0,0.0,0.0,0.0,2.3368,2.3733,2.2649,2.2729,2.3971,2.2363,2.2255,2.3475,2.3565,2.3311,2.2715,2.1795,0.0,1.8872,1.8905,0.0,0.0,0.0,0.0,0.0,0.0,0.0,0.0,0.0,0.0,0.0,0.0,0.0,0.0,0.0,0.0,0.0,0.0,0.0,0.0,0.0,0.0,1.9894,2.0349,2.0949,2.1237,0.0,1.954,1.8798,1.8798,1.8436,0.0,0.0,0.0,0.0,0.0,0.0,0.0,1.5189,1.5304,1.5621,1.6221,1.5391,1.4782,1.4778,1.5109,1.507,1.4529,1.5387,1.632,1.7191,1.7914,0.0,0.0,0.0,0.0,0.0,0.0,0.0,0.0,0.0,0.0,0.0,0.0,0.0,0.0,0.0,0.0,0.0,0.0,0.0,0.0,0.0,0.0,0.0,0.0,0.0,0.0,0.0,0.0,0.0,2.1017,2.1515,2.2194,2.2523,2.2838,0.0,0.0,0.0,0.0,0.0,0.0,0.0,0.0,0.0,2.4437,2.5014,2.5266,2.5158,2.4622,2.4798,2.5696,2.4857,2.4925,2.5848,2.5848,2.5535,2.4938,2.4264,2.3304,2.2069,2.0616,1.9798,1.9486,0.0,0.0,0.0,0.0,1.9536,2.0066,1.9776,2.0122,2.0611,2.0155,0.0,0.0,0.0,0.0,0.0,0.0,0.0,0.0,0.0,0.0,2.1148,2.2097,2.2009,2.1724,2.1819,2.1119,2.0253,0.0,1.9768,1.983,1.8886,0.0,0.0,0.0,0.0,1.6529,1.7084,1.683,1.6784,1.7345,1.6414,1.5661,1.5359,1.5599,1.551,1.4974,1.5488,1.6091,1.6721,1.7803,1.8608,0.0,0.0,0.0,0.0,0.0,0.0,0.0,0.0,0.0,0.0,0.0,0.0,0.0,0.0,0.0,0.0,0.0,0.0,0.0,0.0,0.0,0.0,0.0,0.0,0.0,0.0,0.0,0.0,2.1276,2.1874,2.2388,2.2733,2.3062,0.0,0.0,0.0,0.0,0.0,0.0,2.6001,2.6449,2.6777,2.7111,2.7425,2.735,2.6871,2.6847,2.7174,2.7859,2.7665,2.7854,2.8349,2.8349,2.8004,2.732,2.6662,2.6069,2.5418,2.2716,2.1304,2.0869,2.1035,2.0801,2.0373,2.0479,2.1068,2.1827,2.1645,2.2182,2.2793,2.1979,2.1809,2.1719,2.0475,0.0,0.0,0.0,0.0,2.1541,2.217,2.238,2.2682,2.364,2.3266,2.2787,2.3116,2.2921,2.2203,0.0,2.1006,2.1416,2.0521,0.0,0.0,1.8962,1.8316,1.8016,1.8486,1.8118,1.7903,1.8179,1.7325,1.6459,1.5756,1.6102,1.604,1.5339,1.5763,1.6151,1.6423,1.7807,1.8691,1.9008,0.0,0.0,0.0,0.0,0.0,0.0,0.0,0.0,0.0,0.0,0.0,0.0,0.0,0.0,0.0,0.0,0.0,0.0,0.0,0.0,0.0,0.0,0.0,0.0,0.0,0.0,0.0,0.0,0.0,2.1739,2.2817,0.0,0.0,0.0,0.0,2.5442,2.6613,2.737,2.7495,2.8712,2.9119,2.8517,2.9669,3.0298,3.0253,3.0192,3.0529,3.1256,3.0529,3.028,3.0357,3.0357,3.0013,2.9412,2.8742,2.8427,2.8143,2.4829,2.3425,2.3478,2.4112,2.4328,2.4306,2.4328,2.4358,2.4321,2.3686,2.3498,2.3655,2.4216,2.4829,2.5098,2.3782,2.3452,0.0,0.0,2.3091,2.2914,2.3383,2.397,2.447,2.453,2.4978,2.5255,2.4634,2.4978,2.4657,0.0,2.165,2.1678,2.1614,0.0,2.0161,1.9149,1.9334,1.9206,1.8241,1.8597,1.8732,1.8254,1.7689,1.692,1.5781,1.6532,1.6546,1.5366,1.6137,1.6694,1.6769,1.8198,1.9107,1.9359,2.08,0.0,0.0,0.0,0.0,0.0,0.0,0.0,0.0,0.0,0.0,0.0,0.0,0.0,0.0,0.0,0.0,0.0,0.0,0.0,0.0,0.0,0.0,0.0,0.0,0.0,0.0,0.0,0.0,2.4118,2.4986,0.0,2.6422,2.6512,2.6976,2.8083,2.8633,2.922,3.0073,3.0971,3.1554,3.1749,3.2183,3.2422,3.2422,3.2406,3.254,3.2796,3.2525,3.2406,3.2422,3.1988,3.145,3.0806,3.0118,2.9594,2.9146,2.7934,2.6437,2.4881,2.4679,2.4605,2.4605,2.4605,2.5143,2.5794,2.5121,2.5166,2.542,2.4799,2.447,2.4298,2.4246,2.4283,2.4481,2.5299,2.5408,2.553,2.6538,2.6662,2.6632,2.7081,2.6707,2.6183,2.5944,2.5749,2.5307,2.4403,2.3505,2.3067,2.3482,2.2673,2.1949,2.1968,2.1745,2.113,1.9944,1.9619,1.9183,1.8292,1.7714,1.7216,1.676,1.6967,1.7052,1.698,1.6793,1.7136,1.8115,1.8706,1.9343,2.0087,2.0849,2.091,0.0,0.0,0.0,0.0,0.0,0.0,0.0,0.0,0.0,0.0,0.0,0.0,0.0,0.0,0.0,0.0,0.0,0.0,0.0,0.0,0.0,0.0,0.0,0.0,0.0,2.4313,2.5615,2.6512,2.738,2.8173,2.8861,2.8738,2.9052,3.0163,3.0851,3.1719,3.2781,3.3499,3.4053,3.4487,3.4292,3.4173,3.4173,3.4173,3.4173,3.4173,3.4173,3.4053,3.3814,3.338,3.2826,3.2138,3.1719,3.1285,3.0881,3.0657,2.94,2.7489,2.6623,2.6303,2.6303,2.6303,2.6856,2.7515,2.6841,2.6752,2.6811,2.6144,2.5659,2.542,2.6069,2.6303,2.6482,2.735,2.7615,2.7814,2.8697,2.8618,2.8393,2.8816,2.8248,2.7615,2.7615,2.726,2.6946,2.6946,2.5495,2.4418,2.4859,2.4238,2.3902,2.4515,2.3645,2.2801,2.2431,2.1052,1.9839,1.9175,1.8405,1.7825,1.7591,1.765,1.777,1.7881,1.7726,1.7926,1.8629,1.9103,1.9646,2.0279,2.0764,2.0845,2.0533,0.0,0.0,0.0,0.0,0.0,0.0,0.0,0.0,0.0,0.0,0.0,0.0,0.0,0.0,0.0,0.0,0.0,0.0,0.0,0.0,0.0,0.0,0.0,2.3819,2.6572,2.8667,2.8697,2.9819,3.0372,2.9816,3.0298,3.0941,3.1615,3.3484,3.4861,3.5534,3.6178,3.6507,3.6507,3.5878,3.5534,3.5534,3.5519,3.5504,3.5504,3.5504,3.516,3.4533,3.4518,3.4159,3.3529,3.3499,3.3499,3.344,3.2811,3.2138,3.1436,3.0133,2.9636,2.9636,2.9633,2.9633,2.9544,2.8899,2.8214,2.7764,2.8412,2.8622,2.8757,2.9442,2.9621,2.9621,2.9651,2.9651,2.9636,2.9666,2.9666,2.9666,2.9636,2.9651,2.9651,2.9621,2.9621,2.9636,2.9606,2.75,2.5734,2.5734,2.5719,2.5907,2.6547,2.4984,0.0,2.5505,2.2829,2.0836,2.0942,1.983,1.8844,1.8252,1.8665,1.8667,1.8003,1.8837,1.9041,1.8316,1.9386,1.9982,1.9953,2.0639,2.0991,2.0991,0.0,0.0,0.0,0.0,0.0,0.0,0.0,0.0,0.0,0.0,0.0,0.0,0.0,0.0,0.0,0.0,0.0,0.0,0.0,0.0,0.0,2.6557,2.7275,2.6596,2.8502,3.0163,3.0644,3.1884,3.2796,3.3126,3.3739,3.4412,3.507,3.6043,3.6686,3.6881,3.706,3.715,3.715,3.6552,3.6222,3.6222,3.5744,3.5504,3.5504,3.5504,3.54,3.5205,3.4728,3.4414,3.4219,3.3709,3.3499,3.3484,3.3305,3.3125,3.2781,3.0956,3.0253,3.0276,3.0311,3.0335,3.0304,3.012,2.9605,2.9082,2.9277,2.9337,2.943,3.0058,2.9939,2.9774,3.0731,3.0642,3.0357,3.0838,3.0972,3.0866,3.0372,3.0627,3.0703,2.9789,2.9939,3.0118,2.9669,2.8981,2.8487,2.8487,2.8098,2.7791,2.7898,2.7049,0.0,2.5618,2.393,2.2682,2.238,2.159,2.0839,2.0185,2.0284,2.0021,1.9246,1.9001,1.9297,2.0194,2.008,2.0359,2.1121,2.1037,2.0991,0.0,0.0,0.0,0.0,0.0,0.0,0.0,0.0,0.0,0.0,0.0,0.0,0.0,0.0,0.0,0.0,0.0,0.0,0.0,0.0,0.0,0.0,2.8891,2.9879,3.0056,3.1031,3.2003,3.2691,3.3694,3.4487,3.4876,3.5519,3.6073,3.6462,3.7315,3.7823,3.7823,3.7823,3.7823,3.7823,3.6956,3.6492,3.6492,3.5833,3.5504,3.5504,3.5504,3.5504,3.5489,3.51,3.4906,3.4891,3.4502,3.4337,3.4322,3.4023,3.4105,0.0,0.0,0.0,0.0,0.0,3.1943,3.1388,3.114,3.0582,3.0133,3.0723,3.0906,3.1028,3.164,3.1607,3.1341,3.1476,3.1212,3.1002,3.1406,3.1511,3.1406,3.1002,3.1421,3.1705,3.0971,3.1315,3.1644,3.1285,3.121,0.0,3.0851,2.9819,2.9176,2.9618,2.8433,2.7517,2.7591,2.526,2.3607,2.3607,2.2525,2.1546,2.0874,2.0808,0.0,0.0,0.0,1.9897,2.0959,2.0432,0.0,0.0,0.0,2.1244,2.1244,0.0,0.0,0.0,2.1338,2.1354,0.0,0.0,0.0,0.0,0.0,0.0,0.0,0.0,0.0,0.0,0.0,0.0,0.0,0.0,0.0,0.0,3.1628,3.245,3.3878,3.3995,3.4098,3.4578,3.519,3.5594,3.5519,3.6237,3.6671,3.6596,3.7867,3.8657,3.8657,3.8762,0.0,0.0,0.0,3.6908,3.6748,3.6087,3.5662,3.5504,3.5504,3.5504,3.5504,3.5504,3.5504,3.5504,3.5504,3.5569,3.5574,3.4975,3.5186,3.5728,3.4303,3.4251,3.4939,3.4952,3.4098,3.2882,3.2358,0.0,0.0,3.2612,3.306,3.317,3.3751,3.3939,3.3647,3.226,3.1865,3.1821,3.1659,3.1675,3.1705,3.163,3.2168,3.2706,3.2647,3.314,3.3589,3.3499,3.3499,3.3305,3.2721,3.112,3.0283,3.1346,2.9411,2.8468,3.0169,2.6693,2.4273,2.4878,0.0,0.0,2.1202,2.1006,2.0604,1.9866,2.018,2.0584,2.0991,2.0649,2.0666,2.115,2.1507,2.1673,2.1673,2.2106,2.233,2.2415,2.1917,2.1899,0.0,0.0,0.0,0.0,0.0,0.0,0.0,0.0,0.0,0.0,0.0,0.0,0.0,0.0,0.0,3.444,3.4845,3.5475,3.7417,3.7076,3.6312,3.5415,3.5893,3.6088,3.5549,3.703,3.7808,3.727,3.912,4.0266,4.0266,4.091,4.1305,4.1305,4.0546,3.9533,3.8296,3.7617,3.6683,3.5504,0.0,0.0,3.5504,3.5504,3.5504,3.5504,3.5504,3.5846,3.6384,3.6245,3.6656,3.7239,3.5867,3.5786,3.6408,3.639,3.5841,3.516,3.5617,3.4972,3.4043,3.4925,3.5197,3.5213,3.534,3.5388,0.0,3.4317,3.4072,3.3819,3.263,3.2721,3.2976,3.2452,3.323,3.3979,3.3425,3.3829,3.4159,3.3589,3.3499,3.3455,3.332,3.2557,3.1854,3.154,3.0619,2.989,2.9789,2.8066,2.6876,2.7021,2.5729,2.4581,2.3895,2.2891,2.1803,2.0583,2.0375,2.0523,2.0975,2.1212,2.1568,2.2034,2.212,2.2149,2.2149,2.2268,2.2615,2.3173,2.2478,2.2209,0.0,0.0,0.0,0.0,0.0,0.0,0.0,0.0,0.0,0.0,0.0,3.1411,3.2911,0.0,3.5466,3.7644,3.7517,3.7514,3.8538,3.7934,3.706,3.6103,3.6552,3.6701,3.6058,3.7449,3.8257,3.7928,3.9623,4.069,4.069,4.1893,4.2382,4.2013,4.1709,4.0991,3.9866,3.8825,3.7717,3.6589,3.6222,3.5863,3.5504,3.5504,3.5701,3.6054,3.6054,3.6492,3.7249,3.76,3.8003,3.8321,3.8064,3.7675,3.7345,3.7736,3.7427,3.681,3.6812,3.635,3.5886,3.6645,3.689,3.689,3.689,3.689,3.6675,3.5558,3.4974,3.4612,3.4268,3.4137,3.4116,3.4138,3.4907,3.5455,3.4713,3.5095,3.5321,3.4641,3.4502,3.4382,3.4038,3.3709,3.3155,3.2138,3.1122,3.0387,3.0088,2.8618,2.76,2.76,2.6393,2.5196,2.4208,2.2936,2.1904,2.1246,2.1084,2.1314,2.2013,2.1892,2.2306,2.3378,2.3038,2.3038,2.3393,2.3393,2.3594,2.3949,2.3577,2.3393,0.0,0.0,0.0,0.0,0.0,0.0,0.0,2.9296,3.033,3.1935,3.3355,3.4928,3.7043,3.7995,3.8947,4.0475,4.011,3.9581,3.9581,3.8824,3.7982,3.7195,3.7387,3.7345,3.6731,3.7981,3.8777,3.8656,4.0235,4.126,4.1402,4.2815,4.333,4.2747,4.2761,4.2294,4.1268,4.0123,3.9012,3.7935,3.7342,3.6677,3.5941,3.5941,3.6274,3.6843,3.6978,3.7395,3.8064,3.8799,3.9139,3.9209,3.985,3.9336,3.8321,3.8975,3.8751,3.8053,3.7594,3.7335,3.7352,3.8157,3.8406,3.8406,3.8406,3.8406,3.8143,3.6772,3.5955,3.5591,3.5918,3.5653,3.5407,3.589,3.6513,3.6829,3.6164,3.6349,3.6415,3.5831,3.5587,3.5325,3.4771,3.4593,3.4099,3.2886,3.1674,3.0851,3.0717,2.9205,2.8079,2.7824,2.6707,2.539,2.3924,2.2727,2.2024,2.1889,2.1873,2.2232,2.305,2.2627,2.3047,2.4458,2.3915,2.3915,2.4491,2.4491,2.4575,2.4711,2.4711,2.4643,2.8792,2.7637,2.7063,2.7553,2.8281,2.9382,0.0,3.2374,3.3525,3.5729,3.6823,3.7889,3.9437,4.0332,4.1293,4.2776,4.2875,4.2802,4.2802,4.1943,4.0839,3.9506,3.8717,3.8018,3.736,3.92,4.0198,3.9596,4.1693,4.3295,4.3948,4.4877,4.5358,4.529,4.5274,4.4278,4.2173,4.1992,4.0874,3.877,3.869,3.825,3.7531,3.7531,3.7589,3.769,3.8358,3.8674,3.8827,3.9636,3.9969,3.9978,4.007,3.9995,3.986,3.9952,3.952,3.8971,3.9547,3.9319,3.8873,3.9623,3.9876,3.9876,3.9876,3.9876,3.9673,3.8801,3.8499,3.8161,3.6989,3.7057,3.732,3.6822,3.7194,3.7665,3.7578,3.7037,3.6584,3.6492,3.5943,3.5489,3.54,3.4876,3.4264,3.3499,3.2766,3.2049,3.1466,3.0687,2.9744,2.8607,2.7824,2.6572,2.4649,2.3819,2.3146,2.2628,2.2424,2.2561,2.3083,2.3486,2.3949,2.4491,2.4423,2.4423,2.4491,2.4491,2.4846,2.549,2.549,2.5118,3.0838,2.959,2.8856,2.96,3.0683,3.1918,3.3275,3.4506,3.5876,3.7726,3.9005,4.0409,4.2354,4.2591,4.3132,4.506,4.4573,4.3946,4.3946,4.2768,4.1557,4.0513,3.9276,3.822,3.7469,3.9409,4.043,3.9747,4.1929,4.3619,4.4358,4.563,4.6143,4.572,4.6126,4.5486,4.3669,4.3171,4.2252,4.087,4.0009,3.9181,3.8427,3.7998,3.8035,3.8502,3.9727,3.9986,3.9636,3.9952,4.0096,4.0096,4.0096,4.0096,4.0096,4.0096,3.991,3.969,3.9994,3.991,3.9706,4.0011,4.0096,4.0096,4.0096,4.0096,4.002,3.9688,3.9262,3.8869,3.8748,3.8586,3.8487,3.8679,3.8941,3.9022,3.8525,3.7847,3.7144,3.6691,3.6006,3.5504,3.5504,3.5265,3.4981,3.4711,3.344,3.2392,3.2108,3.1165,3.0013,2.8742,2.8004,2.7106,2.5869,2.4784,2.4205,2.4277,2.3819,2.3926,2.4754,2.454,2.4846,2.5761,2.5355,2.5338,2.5794,2.5794,2.593,2.6234,2.6234,2.6065,3.2332,3.1321,3.0683,3.1816,3.322,3.4573,3.552,3.6907,3.8413,3.9901,4.1068,4.2388,4.4259,4.4113,4.4282,4.5906,4.5567,4.4909,4.4511,4.343,4.2315,4.135,3.9692,3.8387,3.7842,3.9606,4.0678,4.0402,4.2619,4.4265,4.5009,4.6354,4.687,4.6329,4.6819,4.6397,4.4936,4.4333,4.3558,4.2608,4.1516,4.0491,3.9528,3.8995,3.9029,3.9594,4.0725,4.0899,4.04,4.018,4.0096,4.0096,4.0096,4.0231,4.0417,4.0417,4.0282,4.0096,4.0096,4.0096,4.0096,4.0096,4.0096,4.0096,4.0096,4.0096,4.0096,4.0096,3.9688,3.9368,3.9952,3.9662,3.9368,3.9952,4.0096,3.9927,3.9342,3.8486,3.7632,3.7024,3.6149,3.5504,3.5504,3.5504,3.5504,3.5504,3.4113,3.3051,3.3051,3.1734,3.0357,2.9235,2.8368,2.769,2.7186,2.6079,2.5491,2.5651,2.5326,2.541,2.5977,2.5556,2.5764,2.6674,2.6184,2.6167,2.6691,2.6691,2.6691,2.6691,2.6691,2.6691,3.2681,3.2092,3.1681,3.3846,3.5577,3.7083,3.8531,4.0003,4.1491,4.2953,4.3291,4.3606,4.4445,4.4581,4.4598,4.4666,4.5838,4.6215,4.4807,4.443,4.38,4.2338,4.0054,3.8636,3.8748,4.0096,4.1315,4.2085,4.4315,4.5962,4.6688,4.7432,4.7838,4.7821,4.7838,4.7175,4.5686,4.5652,4.4863,4.3365,4.3314,4.2537,4.1126,4.1092,4.1118,4.1144,4.1161,4.1187,4.1119,4.0375,4.0096,4.0096,4.0096,4.0527,4.117,4.117,4.0696,4.0096,4.0096,4.0096,4.0096,4.0096,4.0096,4.0096,4.0096,4.0096,4.0096,4.0096,4.007,4.007,4.0096,4.007,4.007,4.0096,4.0096,4.0096,4.007,3.8859,3.7777,3.7764,3.6554,3.5504,3.5504,3.5504,3.5504,3.5504,3.4876,3.4444,3.4444,3.2706,3.1212,3.0522,2.9325,2.8562,2.8547,2.7834,2.7117,2.6415,2.6784,2.6718,2.603,2.6419,2.6674,2.6691,2.6674,2.6674,2.6691,2.6691,2.6691,2.6691,2.6691,2.6691,3.4504,3.509,3.5862,3.7575,3.886,3.9969,4.095,4.1948,4.2675,4.2675,4.3064,4.3477,4.3758,4.3809,4.4147,4.5162,4.6143,4.6447,4.5466,4.5286,4.4536,4.2523,4.0676,3.9597,3.9657,3.9959,4.053,4.1469,4.3604,4.541,4.6722,4.7513,4.7889,4.7889,4.7889,4.7445,4.643,4.594,4.5449,4.4925,4.3882,4.2642,4.1238,4.2219,4.2405,4.1965,4.2455,4.2388,4.1863,4.1119,4.1119,4.1491,4.1018,4.1271,4.1931,4.1931,4.1762,4.15,4.1001,4.0493,4.0096,4.0096,4.0096,4.0096,4.0096,4.0096,4.0096,4.0096,4.0096,4.0096,4.0096,4.0468,4.0832,4.0832,4.1187,4.1568,4.1568,4.0768,4.0079,4.0079,3.838,3.6965,3.6965,3.6133,3.5504,3.5504,3.4921,3.4189,3.329,3.2572,3.1749,3.0627,3.0118,2.9693,2.9225,2.8552,2.798,2.7541,2.7728,2.7417,2.6503,2.7079,2.7199,2.6708,2.6691,2.6691,2.6691,2.6691,2.6691,2.6691,2.6691,2.6691,3.7313,3.8624,3.9896,4.1134,4.21,4.2816,4.3078,4.3267,4.3284,4.2794,4.2658,4.2682,4.2963,4.2591,4.2716,4.4248,4.4874,4.5111,4.4925,4.4891,4.4333,4.2861,4.1388,4.0591,4.0848,4.0434,4.0544,4.1521,4.3881,4.5725,4.6722,4.775,4.8308,4.8308,4.8308,4.7953,4.7192,4.6464,4.5838,4.528,4.4028,4.2885,4.2033,4.298,4.3122,4.2726,4.3172,4.3149,4.2642,4.1897,4.1863,4.2236,4.1779,4.2033,4.2692,4.2692,4.2692,4.2557,4.1559,4.0882,4.0468,4.0197,4.0096,4.0096,4.0096,4.0096,4.0096,4.0096,4.0096,4.0163,4.0409,4.0832,4.1271,4.1525,4.1948,4.2286,4.2286,4.171,4.1189,4.1189,3.9503,3.7996,3.7747,3.6495,3.5504,3.5504,3.513,3.4442,3.3365,3.3006,3.2511,3.1654,3.1152,3.0719,3.025,2.9817,2.9249,2.8533,2.8727,2.8477,2.7554,2.7689,2.757,2.7114,2.6826,2.6691,2.6691,2.6691,2.6691,2.6691,2.6691,2.6691,4.0925,4.2452,4.3589,4.4314,4.5085,4.5459,4.4803,4.401,4.3417,4.3332,4.2136,4.134,4.1984,4.1027,4.0578,4.1999,4.2337,4.2675,4.3392,4.3544,4.3544,4.3511,4.2283,4.1693,4.2351,4.171,4.1575,4.2426,4.5116,4.6773,4.6853,4.8223,4.9001,4.9001,4.9001,4.8663,4.7939,4.7192,4.6024,4.453,4.3809,4.3426,4.3392,4.3426,4.3443,4.3443,4.3443,4.3443,4.3392,4.2658,4.2371,4.2405,4.2354,4.2811,4.3443,4.3443,4.3443,4.324,4.1813,4.1288,4.1136,4.0417,4.0163,4.0163,4.0163,4.0163,4.0163,4.0197,4.0214,4.0383,4.1068,4.1288,4.1491,4.2185,4.2388,4.2405,4.2405,4.1855,4.1361,4.1361,4.0043,3.8667,3.7888,3.6606,3.5649,3.5619,3.5587,3.5314,3.4593,3.3934,3.3532,3.3512,3.2412,3.1695,3.1606,3.155,3.0879,2.9395,2.9889,2.9854,2.9027,2.8297,2.7908,2.7858,2.7165,2.6793,2.6759,2.6793,2.6793,2.6759,2.6793,2.681,4.2929,4.4775,4.6394,4.6031,4.6161,4.6134,4.5379,4.4497,4.3517,4.2381,4.1041,3.9978,3.96,3.9842,4.0392,4.1322,4.2895,4.4265,4.501,4.5602,4.5737,4.5179,4.4771,4.4406,4.4045,4.4296,4.4591,4.4812,4.5457,4.6335,4.7567,4.8511,4.9001,4.9001,4.9001,4.8917,4.8731,4.7428,4.5754,4.3724,4.4096,4.3978,4.3409,4.4012,4.4282,4.4282,4.4282,4.4282,4.4215,4.3436,4.347,4.3955,4.3352,4.3606,4.4282,4.4282,4.4282,4.4147,4.3183,4.2489,4.1897,4.1153,4.0916,4.0916,4.0916,4.0916,4.1018,4.1576,4.1728,4.1779,4.1965,4.2439,4.2895,4.3054,4.3572,4.4022,4.4022,4.3883,4.3726,4.3726,4.2477,4.0802,3.8934,3.8283,3.7848,3.7284,3.6692,3.5889,3.4656,3.4364,3.4062,3.3553,3.3249,3.3063,3.2987,3.2968,3.2315,3.0787,3.1351,3.0922,2.9077,2.933,2.9262,2.8687,2.8519,2.8112,2.7519,2.8112,2.8095,2.7536,2.8129,2.8417,4.5678,4.738,4.8815,4.7769,4.7534,4.7195,4.5702,4.439,4.3068,4.1488,3.9883,3.8706,3.8624,3.8636,3.9012,4.0054,4.1576,4.3115,4.4502,4.5348,4.5906,4.616,4.6177,4.6007,4.5602,4.594,4.6329,4.665,4.6599,4.6957,4.7855,4.8612,4.9001,4.9001,4.9001,4.8849,4.8528,4.7699,4.6329,4.4418,4.4874,4.4671,4.3944,4.4384,4.4615,4.4615,4.4615,4.4615,4.4564,4.4113,4.4181,4.4564,4.4096,4.4198,4.4649,4.4942,4.4874,4.4598,4.4451,4.3927,4.3115,4.2033,4.1677,4.1677,4.1677,4.1677,4.1762,4.2168,4.2286,4.2371,4.2692,4.3098,4.3504,4.3842,4.4265,4.4615,4.4615,4.4615,4.4485,4.4093,4.3095,4.1776,4.0114,3.9305,3.8761,3.8347,3.7617,3.6839,3.6059,3.5101,3.46,3.4875,3.4381,3.4015,3.395,3.3928,3.3277,3.1782,3.2073,3.1599,3.0042,3.0057,2.9922,2.9482,2.9162,2.879,2.8332,2.879,2.8773,2.8349,2.879,2.8993,4.8464,4.9695,5.0434,4.9045,4.8644,4.801,4.5649,4.3933,4.237,4.0742,3.8845,3.7662,3.8304,3.7518,3.732,3.8886,3.9681,4.0941,4.3358,4.4299,4.528,4.6769,4.7022,4.709,4.709,4.709,4.7361,4.799,4.8041,4.8041,4.8041,4.8663,4.9001,4.9001,4.9001,4.8663,4.7889,4.7889,4.7225,4.5838,4.5754,4.5365,4.475,4.4649,4.4615,4.4615,4.4615,4.4666,4.475,4.4649,4.4666,4.475,4.475,4.475,4.4852,4.5568,4.5432,4.4987,4.5618,4.5348,4.4496,4.2946,4.2439,4.2439,4.2439,4.2439,4.2455,4.2574,4.2591,4.2743,4.3403,4.3572,4.3741,4.4418,4.4615,4.4615,4.4615,4.4615,4.4384,4.3621,4.3002,4.2331,4.1452,4.0215,3.9324,3.9227,3.8486,3.7978,3.8092,3.6254,3.5447,3.6718,3.5671,3.4865,3.48,3.4709,3.4049,3.2682,3.2598,3.2259,3.1512,3.0784,3.0395,3.0395,2.9668,2.9247,2.9145,2.9247,2.9247,2.9145,2.9247,2.9297,4.9595,4.9916,4.9827,4.8421,4.7885,4.71,4.4689,4.3238,4.1956,4.035,3.8528,3.7286,3.741,3.7081,3.7489,3.9571,4.002,4.1313,4.4823,4.5415,4.6058,4.7547,4.8257,4.8612,4.8612,4.8612,4.868,4.8798,4.8815,4.8815,4.8815,4.8934,4.9001,4.9001,4.9001,4.8663,4.7889,4.7889,4.7479,4.6599,4.5991,4.5635,4.55,4.4874,4.4615,4.4615,4.4615,0.0,4.5466,4.4869,4.4942,4.5517,4.5517,4.5517,4.5602,4.6329,4.6515,4.643,4.6549,4.6126,4.5263,4.3724,4.3189,4.3189,4.3189,4.3189,4.3352,4.3995,4.4209,4.4242,4.4378,4.4384,4.4445,4.4581,4.4615,4.4615,4.4615,4.4615,4.4559,4.4412,4.4282,4.3951,4.3127,4.2288,4.15,4.0886,3.962,3.8951,3.9627,3.8236,3.7339,3.7577,3.6877,3.6409,3.64,3.5791,3.5047,3.4167,3.4121,3.3778,3.3051,3.2307,3.1921,3.1921,3.119,3.0514,2.9922,3.0514,3.0497,2.9922,3.0531,3.0821,4.9908,4.9962,4.9746,4.862,4.7925,4.6837,4.4347,4.3007,4.165,3.9332,3.7972,3.7097,3.6843,3.6797,3.7269,3.8717,3.8971,4.0231,4.3995,4.4181,4.4925,4.7567,4.8193,4.8595,4.8968,4.9001,4.9001,4.9001,4.9001,4.9001,4.9001,4.9001,4.9001,4.9001,4.9001,4.8832,4.8494,4.8477,4.8105,4.7378,4.7022,4.665,4.6261,4.5906,4.5534,4.5179,4.5568,4.572,4.5703,4.572,4.594,4.6261,4.6261,4.6261,4.6363,4.7107,4.7124,4.6836,4.7242,4.6887,4.6092,4.4976,4.435,4.4012,4.4012,4.4012,4.4181,4.4959,4.4919,4.4784,4.5563,4.5449,4.5263,4.5635,4.572,4.572,4.572,4.5432,4.5162,4.5162,4.484,4.4496,4.4079,4.3064,4.2168,4.183,4.0479,3.9662,4.0045,3.9454,3.8838,3.8471,3.7444,3.6795,3.6795,3.6062,3.5301,3.4539,3.4489,3.4167,3.344,3.2679,3.2293,3.2293,3.1582,3.1021,3.0666,3.1021,3.1021,3.0683,3.1038,3.119,5.0325,5.0143,4.9591,4.8787,4.7919,4.6548,4.3849,4.2613,4.1252,3.8466,3.7524,3.7038,3.6498,3.6498,3.6874,3.7956,3.8007,3.9208,4.2868,4.3047,4.3995,4.7293,4.7953,4.8376,4.8951,4.9001,4.9001,4.9001,4.9001,4.9001,4.9001,4.9001,4.9001,4.9001,4.9001,4.9001,4.9001,4.9001,4.8714,4.8125,4.7973,4.7614,4.7022,4.687,4.6481,4.5974,4.6549,4.6566,4.6194,4.6464,4.6752,4.7022,4.6853,4.6887,4.7124,4.7868,4.7784,4.7344,4.7936,4.7665,4.6938,4.6363,4.5568,4.4818,4.4649,4.4615,4.4767,4.55,4.528,4.5128,4.6447,4.6363,4.6075,4.665,4.6786,4.6786,4.6786,4.6346,4.594,4.594,4.5331,4.4852,4.4852,4.3555,4.2472,4.232,4.1196,4.0282,4.013,4.0096,3.9893,3.9317,3.8065,3.7269,3.7269,3.64,3.5622,3.5013,3.4827,3.4489,3.3914,3.3152,3.2767,3.2767,3.1904,3.1427,3.1427,3.1275,3.119,3.119,3.119,3.119,5.1617,5.0587,4.8907,4.8179,4.717,4.5587,4.2494,4.1482,4.0577,3.8357,3.7524,3.7038,3.6498,3.6014,3.6394,3.8548,3.8345,3.9208,4.2868,4.3961,4.5021,4.6701,4.8088,4.8934,4.9001,4.9001,4.9001,4.9001,4.9001,4.9001,4.9001,4.9001,4.9001,4.9001,4.9001,4.9001,4.9001,4.9001,4.8968,4.89,4.824,4.7855,4.78,4.7107,4.6752,4.6701,4.6752,4.7141,0.0,4.6346,4.6599,4.775,4.7056,4.7208,4.7872,4.8629,4.8866,4.8815,4.8883,4.8426,4.777,4.7703,4.6769,4.5466,4.4818,4.4615,4.4767,4.55,4.5652,4.5788,4.6583,4.6735,4.6718,4.6769,4.6786,4.6786,4.6786,4.6735,4.6684,4.6684,4.6109,4.5602,4.5602,4.4333,4.3081,4.2388,4.161,4.0849,4.0197,4.0096,4.0079,4.0011,3.9276,3.8785,3.8785,3.7506,3.666,3.6592,3.591,3.5464,3.5397,3.4692,3.4286,3.4286,3.2919,3.2192,3.2192,3.1532,3.119,3.119,3.119,3.119,4.8734,4.8958,4.8893,4.8505,4.7315,4.5669,4.3282,4.1885,4.0419,3.799,3.7323,3.6941,3.6075,3.5739,3.6191,3.8041,3.7313,3.7814,4.1533,4.1593,4.2439,4.5754,4.6667,4.7547,4.8883,4.9001,4.9187,4.9627,4.9661,4.9864,5.0321,4.9898,4.9661,4.9661,5.0101,5.0118,4.9661,4.9661,4.9441,4.9001,4.8714,4.8578,4.8562,4.8257,4.7885,4.7496,4.7936,4.8054,0.0,4.7767,4.8037,4.8545,4.824,4.8308,4.8612,4.89,4.9001,4.9001,4.9001,4.8815,4.8494,4.8024,4.7483,4.6904,4.6143,4.5906,4.6075,4.6836,4.6701,4.6633,4.7817,4.8122,4.8122,4.8122,4.8122,4.8122,4.8122,4.7784,4.7462,4.7462,4.6515,4.5703,4.5703,4.4406,4.3291,4.3014,4.1965,4.1085,4.0798,4.0383,4.0096,4.0096,3.9453,3.8988,3.8988,3.8041,3.7263,3.6829,3.6485,3.6113,3.5616,3.4895,3.4489,3.4489,3.3491,3.273,3.2293,3.2005,3.1613,3.119,3.119,3.119,4.7037,4.7905,4.8512,4.8387,4.7103,4.5347,4.3341,4.1765,4.0059,3.7681,3.7209,3.6865,3.5788,3.56,3.609,0.0,3.6992,3.7425,4.0747,4.0493,4.1221,4.4621,4.5229,4.616,4.8156,4.8748,4.9306,5.0033,5.0084,5.0422,5.1166,5.0913,5.0642,5.0422,5.0947,5.0862,5.0101,5.0084,4.9729,4.9001,4.9001,4.9001,4.9001,4.9001,4.8731,4.8257,4.8781,4.8714,0.0,4.8562,4.8798,4.8984,4.8765,4.8815,4.9032,4.9243,4.9152,4.9032,4.9243,4.9152,4.8917,4.8409,4.824,4.8139,4.7614,4.7141,4.6955,4.7669,4.7682,4.7682,4.8731,4.9001,4.9001,4.9001,4.9001,4.9001,4.9001,4.8595,4.824,4.824,4.7039,4.6024,4.6024,4.4756,4.3673,4.3426,4.2337,4.1457,4.1238,4.0544,4.0096,4.0096,3.9656,3.9326,3.9326,3.865,3.8007,3.7489,3.7049,3.6558,3.5994,3.5233,3.4827,3.4827,3.41,3.3355,3.2611,3.2412,3.1921,3.119,3.119,3.119,4.7751,4.7962,4.7523,4.7505,4.6203,4.4306,4.1967,4.0631,3.94,3.7557,3.7209,3.6865,3.5788,3.56,3.609,0.0,0.0,3.865,4.0899,4.1813,4.254,4.3325,4.413,4.5207,4.6667,4.8139,4.9306,5.0033,5.0084,5.0422,5.1166,5.1894,5.1944,5.1202,5.1185,5.0862,5.0101,5.0084,4.9729,4.9001,4.9001,4.9001,4.9001,4.9001,4.9001,4.8984,4.9001,4.9001,0.0,4.8193,4.8359,4.8934,4.8206,4.8376,4.9077,4.9734,4.9563,4.9107,4.978,4.958,4.9001,4.9001,4.8984,4.8984,4.8984,4.7953,4.6955,4.7669,4.8426,4.8984,4.9001,4.9001,4.9001,4.9001,4.9001,4.9001,4.9001,4.9001,4.8984,4.8984,4.78,4.6786,4.6786,4.5579,4.4316,4.3511,4.2777,4.2016,4.1288,4.0544,4.0096,4.0096,4.0096,4.0096,4.0096,3.9394,3.8988,3.8971,3.7625,3.6795,3.6795,3.6028,3.5583,3.5583,3.4861,3.4134,3.3389,3.2666,3.1921,3.119,3.119,3.119,4.1851,4.271,4.3308,4.3276,4.2846,4.2096,4.0684,4.0118,3.94,3.7557,3.7209,3.6865,3.5788,3.56,3.609,3.7652,3.7905,3.8497,4.0206,4.1534,4.2963,4.4773,4.6972,4.8528,4.9001,4.9932,5.0608,5.0845,5.1319,5.1932,5.2736,5.2473,5.2198,5.1961,5.1961,5.1606,5.0862,5.0338,4.9729,4.9001,4.9001,4.9001,4.9001,4.9001,4.9001,4.9001,4.9001,4.9001,4.8984,4.8748,4.8798,4.9029,4.9264,4.9487,4.978,5.049,5.0297,4.9722,4.9919,4.9563,4.9001,4.9001,4.9001,4.9001,4.9001,4.868,4.8359,4.8595,4.8832,4.9001,4.9001,4.9001,4.9001,4.9001,4.9001,4.9001,4.9001,4.9001,4.9001,4.9001,4.8223,4.7394,4.6887,4.5991,4.5094,4.4316,4.3555,4.2794,4.2049,4.1305,4.0646,4.0146,4.0096,4.0096,4.0096,3.9893,3.9554,3.9022,3.8091,3.7313,3.6829,3.6028,3.56,3.56,3.5363,3.4895,3.415,3.3914,3.3173,3.1938,3.1427,3.1461,3.8456,3.99,4.0817,4.0763,4.0781,4.0544,3.9655,3.9441,3.9067,3.7739,3.7323,3.6923,3.6054,3.5898,3.6258,3.7303,3.7874,3.8523,3.9545,4.1196,4.3031,4.5043,4.7885,4.9458,4.89,5.0033,5.0794,5.0794,5.1471,5.2367,5.3433,5.331,5.3169,5.3142,5.3151,5.2809,5.2054,5.1316,5.0444,4.9359,4.9138,4.9001,4.9001,4.9001,4.9001,4.9001,4.9001,4.9001,0.0,4.9001,4.9152,4.9419,4.985,5.0157,5.05,5.1197,5.1034,5.0435,5.0435,4.9965,4.9346,4.9077,4.9001,4.9001,4.9001,4.9001,4.9001,4.9001,4.9001,4.9001,4.9001,4.9001,4.9001,4.9001,4.9001,4.9001,4.9001,4.9001,4.9001,4.9001,4.8379,4.7682,4.6921,4.6194,4.5449,4.4716,4.3927,4.3149,4.2388,4.166,4.0916,4.018,4.0096,4.0096,4.0096,4.0096,3.991,3.9453,3.8717,3.8108,3.7658,3.6603,3.6062,3.6062,3.5752,3.525,3.4489,3.4218,3.3609,3.2696,3.2239,3.2273,0.0,3.8762,3.9386,3.9441,3.9496,3.935,3.8615,3.8542,0.0,3.789,3.747,3.7038,3.6527,3.6461,3.6607,3.6921,3.7922,3.8785,3.9052,4.1068,4.3081,4.4581,4.731,4.8494,4.7005,4.8815,5.0084,5.0084,5.0828,5.189,5.335,5.4152,5.4585,5.4575,5.4641,5.422,5.3334,5.2658,5.1523,5.0004,4.9359,4.9063,4.9001,4.9001,4.9001,4.9001,4.9001,4.8968,4.8934,4.9029,4.9415,4.9946,5.0083,5.0581,5.1241,5.1928,5.1759,5.1164,5.1164,5.0662,4.9907,4.9212,4.9001,4.9001,4.9001,4.9001,4.9001,4.9001,4.9001,4.9001,4.9001,4.9001,4.9001,4.9001,4.9001,4.9001,4.9001,4.9001,4.9001,4.9001,4.846,4.7733,4.6938,4.6278,4.5568,4.4733,4.4012,4.3284,4.2472,4.1779,4.1052,4.0265,4.018,4.0163,4.0096,4.0096,4.0096,4.0096,3.9419,3.8988,3.8988,3.7618,3.6846,3.6795,3.6011,3.5245,3.4573,3.3846,3.3491,3.3491,3.3423,3.344,0.0,0.0,3.4468,3.5073,3.5697,3.6105,0.0,3.6853,3.7518,3.6559,3.6822,3.7097,3.6754,3.7038,3.7581,3.8364,3.9077,3.9583,3.9798,4.276,4.5246,4.616,4.8376,4.9255,4.78,4.912,5.0084,5.0084,5.1302,5.2193,5.2574,5.3863,5.4821,5.5333,5.5415,5.4492,5.2484,5.1776,5.0922,5.0004,4.985,4.9492,4.9001,4.9001,4.9001,4.9001,4.9001,4.8697,4.8237,4.9311,4.9533,4.9313,5.0967,5.1716,5.1952,5.2662,5.2468,5.1856,5.1856,5.1042,4.9907,4.9212,4.9001,4.9001,4.9001,4.9001,4.9001,4.9001,4.9001,4.9001,4.9001,4.9001,4.9001,4.9001,4.9001,4.9001,4.9001,4.9001,4.9001,4.9001,4.8866,4.8325,4.7005,4.7124,4.6752,4.4886,4.4925,4.4671,4.3335,4.2997,4.2361,4.1085,4.0933,4.0696,4.0146,4.0096,4.0096,4.0096,3.9419,3.8988,3.8988,3.8125,3.7381,3.6812,3.6011,3.5515,3.5329,3.4607,3.4235,3.4218,3.366,3.3694,0.0,3.2265,3.3256,3.3697,3.4706,3.5591,3.5591,3.6394,3.7035,3.6704,3.6952,3.7247,3.7442,3.7728,3.8136,3.8774,3.9609,4.0568,4.1739,4.3922,4.5851,4.7039,4.8843,4.9593,4.8524,4.9424,4.9949,4.961,5.0955,5.1941,5.2281,5.4075,5.5088,5.5034,5.5441,5.487,5.3243,5.2487,5.1732,5.0964,5.0307,4.9792,4.9432,4.8782,4.8511,4.8511,4.8511,4.8235,4.7923,4.9401,4.9936,4.9963,5.1509,5.2312,5.2662,5.3042,5.2937,5.2554,5.2224,5.1172,4.9947,4.9563,4.9256,4.9001,4.9001,4.9001,4.9001,4.9001,4.9001,4.9001,4.9001,4.9001,4.9001,4.9001,4.9001,4.9001,4.9001,4.9001,4.9001,4.9001,4.9001,4.8646,4.7496,4.7361,4.687,4.5331,4.5145,4.4756,4.3544,4.3392,4.2953,4.183,4.1407,4.1035,4.0629,4.0299,4.0096,4.0096,3.974,3.9495,3.9495,3.8802,3.7889,3.6829,3.6366,3.5977,3.56,3.5194,3.5013,3.5013,3.4607,3.4624,3.1347,3.2852,3.4119,3.3862,3.5055,3.6266,3.6138,3.6477,3.692,3.729,3.7444,3.7693,3.8357,3.8663,3.8883,3.912,4.0274,4.1955,4.4254,4.5223,4.6175,4.7484,4.9093,4.9757,4.8889,4.9593,4.9769,4.9052,5.039,5.1457,5.2095,5.4287,5.513,5.4249,5.4987,5.5023,5.4216,5.3599,5.2899,5.2071,5.0673,4.9996,4.9941,4.843,4.777,4.7919,0.0,0.0,4.7657,4.944,5.0354,5.0826,5.1863,5.2662,5.3185,5.3185,5.3185,5.3103,5.2358,5.1249,5.0157,5.0033,4.9551,4.9001,4.9001,4.9001,4.9001,4.9001,4.9001,4.9001,4.9001,4.9001,4.9001,4.9001,4.9001,4.9001,4.9001,4.9001,4.9001,4.9001,4.9001,4.8781,4.8024,4.7479,4.6802,4.5838,4.5246,4.4604,4.3707,4.3589,4.3301,4.254,4.1813,4.1322,4.1221,4.051,4.0096,4.0096,4.0096,4.0096,4.0096,3.9402,3.8396,3.7168,3.7032,3.662,3.5955,3.5955,3.5955,3.5955,3.5955,3.5955,3.221,3.4137,3.5569,3.4156,3.5055,3.6101,3.5371,3.6333,3.7275,3.6904,3.7875,3.8905,3.9252,4.0241,4.1075,4.1294,4.2621,4.4465,4.6873,4.7842,4.8179,4.7792,4.9626,5.0127,4.8166,4.9222,4.9742,4.9063,5.039,5.1213,5.1272,5.3455,5.429,5.3424,5.4161,5.4197,5.339,5.3265,5.2834,5.2071,5.0684,4.9995,4.9924,4.7885,4.731,4.7898,0.0,4.7358,4.6994,4.9664,5.0453,5.0182,5.2226,5.3103,5.3185,5.3185,5.3185,5.3103,5.2358,5.1593,5.0823,5.0213,4.9551,4.9001,4.9001,4.9001,4.9001,4.9001,4.9001,4.9001,4.9001,4.9001,4.9001,4.9001,4.9001,4.9001,4.9001,4.9001,4.9001,4.9001,4.9001,4.8781,4.8024,4.8325,4.7986,4.6007,4.6126,4.5957,4.4598,4.4429,4.4096,4.3335,4.2574,4.188,4.1255,4.051,4.0096,4.0096,4.0096,4.0096,4.0096,3.9402,3.8886,3.8667,3.8058,3.7669,3.7567,3.7567,3.7567,3.7567,3.7567,3.7567,3.2491,3.3752,3.4871,3.4527,3.6046,3.7386,3.6541,3.7074,3.7847,3.8334,3.9131,3.9914,4.0426,4.1766,4.3249,4.4644,4.5735,4.6789,4.7922,4.8361,4.8641,4.8808,4.9708,5.0133,4.9618,5.0205,5.0462,5.0146,5.1104,5.1665,5.1636,5.3434,5.4054,5.3222,5.3977,5.4014,5.3203,5.3185,5.302,5.2684,5.1178,5.0307,4.9915,4.7703,4.6878,4.7186,0.0,4.7081,4.724,4.9826,5.0691,5.0545,5.244,5.3185,5.3185,5.3185,5.3185,5.3164,5.2809,5.2242,5.1569,5.1249,5.0417,4.9622,5.0022,4.9867,4.9534,4.9534,4.9286,4.9001,4.9001,4.9001,4.9001,4.9001,4.9001,4.9001,4.9001,4.9001,4.9001,4.9001,4.9001,4.89,4.8562,4.846,4.7936,4.6515,4.6244,4.5931,4.5189,4.4786,4.4715,4.4991,4.3407,4.2292,4.2328,4.0967,4.0096,4.0096,4.0096,4.0096,4.0096,3.9774,3.9419,3.9005,3.8667,3.8311,3.7905,3.7905,3.7905,3.7905,3.7905,3.7905,3.3115,3.3757,3.4523,3.5151,3.6872,3.8358,3.8117,3.8364,3.9052,4.0441,4.1062,4.1452,4.1814,4.3246,4.5096,4.7332,4.8364,4.8945,4.9173,4.9327,4.9645,5.0209,5.0267,5.055,5.1243,5.1189,5.1086,5.1086,5.1716,5.2112,5.2112,5.3375,5.3849,5.3203,5.3812,5.383,5.3203,5.3023,5.2931,5.2892,5.1357,5.0325,4.9642,4.7378,4.642,4.6603,4.6569,4.6989,4.7821,4.9796,5.0681,5.0949,5.2362,5.3041,5.3185,5.3185,5.3185,5.3185,5.3185,5.2725,5.2112,5.2112,5.1249,5.0362,5.0929,5.0716,5.0269,5.0269,4.9879,4.9419,4.9094,4.9001,4.9001,4.9001,4.9001,4.9001,4.9001,4.9001,4.9001,4.9001,4.9138,4.9243,4.9243,4.8899,4.8345,4.7404,4.6788,4.6244,4.577,4.5294,4.5372,4.6312,4.4364,4.3082,4.3284,4.1655,4.0553,4.0383,4.0197,4.0096,4.0096,4.0096,3.9842,3.9259,3.9242,3.8971,3.8413,3.8413,3.8413,3.8413,3.8413,3.8413,3.4619,3.5445,3.6119,3.6193,3.689,3.797,3.9402,4.0325,4.1319,4.291,4.3847,4.4179,4.3481,4.4673,4.6287,4.7973,4.9589,5.0911,5.171,5.2423,5.2626,5.2002,5.1932,5.1945,5.2024,5.1469,5.1086,5.1086,5.1716,5.2112,5.2112,5.2846,5.3259,5.3185,5.3259,5.3259,5.3185,5.2454,5.2087,5.2068,5.0584,4.9523,4.8802,4.6593,4.5962,4.6594,4.6456,4.7196,4.8565,4.9387,5.014,5.0894,5.1738,5.2546,5.3185,5.3185,5.3185,5.3185,5.3185,5.2725,5.2112,5.2112,5.1618,5.1034,5.1086,5.106,5.1008,5.1008,5.0981,5.0653,4.9346,4.9001,4.9001,4.9001,4.9001,4.9001,4.9001,4.9001,4.9001,4.9001,4.9555,5.0017,4.9936,5.0465,5.0373,4.8872,4.8607,4.8024,4.653,4.6288,4.6312,4.6407,4.5599,4.4589,4.3392,4.2595,4.1847,4.117,4.0485,4.0096,4.0096,4.0096,4.0079,4.0028,4.0028,3.9994,3.9943,3.9943,3.9943,3.9943,3.9943,3.9943,3.4174,3.5257,3.6413,3.6923,3.8043,3.9405,4.102,4.2415,4.3792,4.5424,4.6379,4.6856,4.6544,4.7425,4.8545,4.9682,5.1242,5.2407,5.274,5.302,5.3103,5.2831,5.2769,5.259,5.2098,5.1809,5.1457,5.0945,5.1144,5.1292,5.1292,5.2016,5.2454,5.2454,5.2454,5.2454,5.2454,5.1665,5.1004,5.049,4.9941,4.9325,4.8634,4.7296,4.6842,4.7091,4.7035,4.7547,4.8468,4.9255,4.9776,5.0178,5.1481,5.2491,5.3185,5.3185,5.3185,5.3185,5.3185,5.302,5.2769,5.2769,5.2312,5.1808,5.2284,5.2083,5.1716,5.1716,5.1716,5.1494,5.0544,5.0314,5.0314,5.0314,5.0314,5.0314,5.0314,5.0314,5.0314,5.0314,5.0535,5.0707,5.0689,5.0903,5.0598,4.904,4.881,4.8364,4.7192,4.6664,4.671,4.7512,4.6578,4.536,4.3973,4.3623,4.3149,4.2358,4.1346,4.0561,4.013,4.0417,4.0601,4.0601,4.0984,4.1168,4.1168,4.1168,4.1168,4.1168,4.1168,4.1168,3.3448,3.4499,3.5878,3.6864,3.8521,4.0579,4.3222,4.447,4.57,4.7828,4.8306,4.8379,4.8655,4.8967,4.9536,5.0618,5.216,5.3185,5.3185,5.3185,5.3185,5.3185,5.2761,5.2444,5.2378,5.17,5.1258,5.1167,5.0949,5.0802,5.0802,5.1316,5.161,5.161,5.161,5.161,5.161,5.082,5.0141,4.961,4.9335,4.8835,4.8201,4.7659,4.7406,4.7406,4.7406,4.7902,4.8728,4.9058,4.9499,5.0106,5.1187,5.227,5.3185,5.3185,5.3371,5.3555,5.3277,5.3369,5.3555,5.3277,5.2853,5.2554,5.306,5.2853,5.2445,5.2445,5.2445,5.2335,5.1874,5.1436,5.1086,5.1086,5.1086,5.1086,5.1086,5.1086,5.1086,5.1086,5.1266,5.1419,5.1419,5.1611,5.1329,5.0002,4.9805,4.95,4.8596,4.7843,4.7634,4.8247,4.7304,4.6251,4.5289,4.5013,4.4458,4.3412,4.2571,4.1665,4.0693,4.099,4.1161,4.1161,4.1599,4.181,4.181,4.181,4.181,4.181,4.181,4.181,3.2691,3.3401,3.4569,3.5965,3.8138,4.1185,4.5993,4.6489,4.6819,5.0123,4.9481,4.86,4.9463,4.8912,4.8893,5.0527,5.216,5.3185,5.3185,5.3185,5.3206,5.3167,5.1827,5.1497,5.3014,5.106,5.0315,5.1844,5.1224,5.0784,5.0784,5.0784,5.0802,5.0802,5.0802,5.0802,5.0802,4.9996,4.9592,4.9574,4.871,4.7995,4.7406,4.7406,4.7406,4.7406,4.7406,4.8229,4.9519,4.8655,4.9279,5.0802,5.0802,5.1793,5.3185,5.3185,5.3702,5.4271,5.3482,5.372,5.4252,5.3463,5.3185,5.3185,5.3185,5.3185,5.3185,5.3185,5.3185,5.3185,5.3185,5.2172,5.1112,5.1112,5.1112,5.1112,5.1112,5.1112,5.1112,5.1112,5.1661,5.2112,5.2112,5.2725,5.2931,5.2105,5.1995,5.1701,5.0894,5.0086,4.928,4.8398,4.7756,4.7406,4.7406,4.6801,4.5758,4.4218,4.4129,4.3421,4.1864,4.181,4.181,4.181,4.1793,4.1832,4.1832,4.1832,4.1832,4.1832,4.1832,4.1832,3.3692,3.4535,3.6049,3.7603,3.9808,4.2561,4.625,4.6489,4.6985,5.0839,5.0802,5.0306,5.1153,5.1077,5.0875,5.082,5.216,5.3004,5.2435,5.2362,5.2142,5.1591,5.1117,5.0783,5.0692,5.0037,4.9557,4.9406,4.9187,4.904,4.904,4.9609,4.9978,4.9978,4.9978,4.9978,4.9978,4.9114,4.8691,4.8673,4.8416,4.821,4.8035,4.8035,4.8035,4.8035,4.8035,4.828,4.8673,4.8416,4.8948,5.0014,5.0582,5.1444,5.2417,5.3004,5.3353,5.3537,5.3277,5.3371,5.3537,5.3277,5.3185,5.3185,5.3185,5.3185,5.3185,5.3185,5.3185,5.3185,5.3185,5.2893,5.2572,5.2572,5.2572,5.2572,5.2572,5.2572,5.2572,5.2572,5.2725,5.2875,5.2875,5.306,5.2931,5.2105,5.1995,5.1499,5.0143,4.9757,4.928,4.8398,4.8152,4.8035,4.8035,4.7838,4.7302,4.6266,4.6212,4.4877,4.1924,4.2203,4.2422,4.2422,4.2809,4.3014,4.3014,4.3014,4.3014,4.3014,4.3014,4.3014,3.3642,3.4746,3.6438,3.7987,4.0599,4.3534,4.6434,4.7975,4.9499,5.1977,5.183,5.1518,5.2325,5.194,5.1573,5.1738,5.2582,5.2931,5.2105,5.1995,5.1701,5.0894,5.0508,5.0251,5.0086,4.9462,4.8857,4.8343,4.8012,4.781,4.781,4.8324,4.86,4.86,4.86,4.86,4.86,4.8104,4.7994,4.8306,4.8306,4.8306,4.8306,4.8306,4.8306,4.8306,4.8306,4.8306,4.8306,4.8306,4.8802,4.9684,5.049,5.1279,5.2087,5.2913,5.3387,5.3628,5.3295,5.3427,5.3628,5.3316,5.3185,5.3185,5.3185,5.3185,5.3185,5.3185,5.3185,5.3185,5.3185,5.3185,5.3185,5.3185,5.3185,5.3185,5.3185,5.3185,5.3185,5.3185,5.3185,5.3185,5.3185,5.3185,5.3041,5.2546,5.2197,5.1428,4.9812,4.9592,4.9242,4.8398,4.8306,4.8306,4.8306,4.8306,4.7957,4.7149,4.7094,4.6006,4.353,4.3788,4.3668,4.3032,4.365,4.3809,4.3515,4.3515,4.3515,4.3515,4.3515,4.3515,3.3089,3.4386,3.6026,3.7662,4.0982,4.4452,4.6892,5.036,5.3096,5.3096,5.2564,5.2362,5.317,5.205,5.1499,5.2947,5.3185,5.2894,5.1995,5.1885,5.1555,5.0674,4.9921,4.9776,5.0508,4.9187,4.8306,4.8306,4.7553,4.7131,4.7204,4.7058,4.7021,4.7094,4.7021,4.7021,4.7094,4.7021,4.7388,4.8196,4.8122,4.8086,4.8104,4.8233,4.8306,4.8306,4.8306,4.8306,4.8306,4.8306,4.8765,4.9574,5.0453,5.1242,5.1995,5.2894,5.3665,5.4197,5.3463,5.3683,5.4179,5.3445,5.3185,5.3185,5.3185,5.3185,5.3185,5.3185,5.3185,5.3185,5.3185,5.3185,5.3185,5.3185,5.3185,5.3185,5.3185,5.3185,5.3185,5.3185,5.3185,5.3185,5.3185,5.3185,5.3185,5.3185,5.2582,5.1518,4.9922,4.9646,4.9279,4.8398,4.8306,4.8306,4.8306,4.8306,4.7975,4.7259,4.7204,4.6837,4.6049,4.5938,4.5168,4.3626,4.4323,4.4305,4.3515,4.3515,4.3515,4.3515,4.3515,4.3515,3.4441,3.486,3.5846,3.8752,4.2924,4.6966,4.9444,5.1169,5.2252,5.2252,5.2619,5.3188,5.3995,5.3353,5.2803,5.313,5.3185,5.2711,5.1261,5.1059,5.0508,4.9022,4.8691,4.8655,4.882,4.8526,4.8306,4.8306,4.7553,4.7369,4.8012,4.6838,4.6452,4.7076,4.6489,4.6471,4.7094,4.6471,4.6562,4.7351,4.6728,4.6416,4.6452,4.7719,4.8306,4.8306,4.8306,4.8306,4.8306,4.8306,4.8416,4.8728,5.0215,5.0912,5.1224,5.2674,5.3295,5.3424,5.3259,5.3295,5.3424,5.3259,5.3185,5.3185,5.3185,5.3185,5.3185,5.3185,5.3185,5.3185,5.3185,5.3185,5.3185,5.3185,5.3185,5.3185,5.3185,5.3185,5.3185,5.3185,5.3185,5.3185,5.3185,5.3185,5.3185,5.3185,5.3059,5.2362,5.0747,5.0527,4.9958,4.8471,4.8306,4.8306,4.8306,4.8306,4.8233,4.8048,4.8049,4.7681,4.6874,4.625,4.5443,4.447,4.4617,4.4305,4.3515,4.3515,4.3515,4.3515,4.3515,4.3515,3.4482,3.5457,3.7284,4.1217,4.4654,4.7535,4.9224,5.0545,5.1426,5.1426,5.238,5.3335,5.3757,5.3482,5.3057,5.2692,5.2637,5.2068,5.0453,5.0215,4.9591,4.792,4.7718,4.7571,4.7186,4.715,4.7003,4.6617,4.6177,4.6122,4.6562,4.5792,4.5535,4.5938,4.5553,4.5535,4.5938,4.5553,4.5736,4.6526,4.6104,4.5902,4.592,4.6764,4.715,4.7168,4.7553,4.7718,4.7755,4.8141,4.8306,4.8434,4.9719,5.0453,5.0949,5.2179,5.2876,5.3185,5.3185,5.3185,5.3185,5.3185,5.3185,5.3185,5.3185,5.3185,5.3185,5.3185,5.3185,5.3185,5.3185,5.3185,5.3185,5.3185,5.3185,5.3185,5.3185,5.3185,5.3185,5.3185,5.3185,5.3185,5.3185,5.3185,5.3057,5.2674,5.2637,5.2179,5.0967,5.0453,4.9884,4.9022,4.8545,4.8306,4.8306,4.8306,4.8306,4.8306,4.8306,4.8122,4.7681,4.7278,4.6489,4.5296,4.5645,4.5461,4.4635,4.425,4.4066,4.4066,4.368,4.3515,3.4139,3.622,3.9149,4.3255,4.5498,4.6966,4.8048,4.937,5.0453,5.0747,5.1867,5.2803,5.2803,5.2803,5.2582,5.1903,5.1775,5.1224,4.961,4.939,4.8746,4.7076,4.6892,4.6636,4.5957,4.5902,4.5626,4.4966,4.4764,4.4746,4.4911,4.4654,4.4562,4.4691,4.458,4.4562,4.4691,4.4562,4.4911,4.5681,4.5553,4.548,4.548,4.548,4.5645,4.5938,4.6599,4.6966,4.7149,4.781,4.8177,4.8398,4.9242,5.0014,5.071,5.1646,5.2417,5.3023,5.3148,5.3185,5.3185,5.3185,5.3185,5.3185,5.3185,5.3185,5.3185,5.3185,5.3185,5.3185,5.3185,5.3185,5.3185,5.3185,5.3185,5.3185,5.3185,5.3185,5.3185,5.3185,5.3185,5.3185,5.3185,5.3185,5.2986,5.2307,5.2197,5.1922,5.1114,5.0288,4.9757,4.961,4.882,4.8306,4.8306,4.8306,4.8306,4.8306,4.8306,4.8306,4.8306,4.8306,4.7682,4.6342,4.6819,4.6691,4.5902,4.5094,4.4691,4.4673,4.3864,4.3515,3.4499,3.7206,4.011,4.2119,4.3828,4.559,4.781,4.8471,4.9058,5.0508,5.0967,5.1132,5.1132,5.1132,5.1096,5.0986,5.0967,5.038,4.871,4.8471,4.7865,4.625,4.6067,4.6012,4.5902,4.5902,4.5865,4.5755,4.5094,4.5002,4.57,4.4415,4.3975,4.4673,4.4011,4.3993,4.4691,4.4011,4.4066,4.4856,4.414,4.3827,4.3827,4.3827,4.458,4.5902,4.6012,4.6471,4.7113,4.7223,4.7663,4.8398,4.9242,4.9665,4.9941,5.1465,5.2068,5.2252,5.2968,5.3185,5.3185,5.3185,5.3185,5.3185,5.3185,5.3185,5.3185,5.3185,5.3185,5.3185,5.3185,5.3185,5.3185,5.3185,5.3185,5.3185,5.3185,5.3185,5.3185,5.3185,5.3185,5.3185,5.3185,5.3185,5.317,5.3078,5.3041,5.2747,5.194,5.1132,5.0362,4.9665,4.882,4.8306,4.8306,4.8306,4.8306,4.8306,4.8306,4.8306,4.8306,4.8306,4.8214,4.7994,4.7388,4.6691,4.5902,4.5094,4.4691,4.4673,4.3864,4.3515,3.5293,3.678,3.8487,4.1001,4.2506,4.3883,4.5847,4.6636,4.7297,4.847,4.8379,4.8618,5.0472,5.0802,5.0655,5.0196,4.9719,4.8985,4.7791,4.7241,4.6526,4.5369,4.5241,4.5057,4.4599,4.4562,4.4562,4.4562,4.4232,4.4176,4.4525,4.3882,4.3644,4.4011,4.3681,4.3663,4.4011,4.368,4.368,4.4011,4.3663,4.3515,4.3515,4.3515,4.39,4.458,4.5039,4.5681,4.6471,4.6911,4.7571,4.8343,4.8728,4.9444,5.0362,5.1059,5.1903,5.2729,5.3096,5.3185,5.3185,5.3185,5.3185,5.3185,5.3185,5.3185,5.3185,5.3185,5.3185,5.3185,5.3185,5.3185,5.3185,5.3185,5.3185,5.3185,5.3185,5.3185,5.3185,5.3185,5.3185,5.3185,5.3185,5.3185,5.3185,5.3185,5.3185,5.3057,5.2729,5.1977,5.1334,5.0987,4.9793,4.9022,4.9022,4.8581,4.8306,4.8306,4.8306,4.8306,4.8306,4.8306,4.8306,4.8306,4.7957,4.7609,4.7241,4.5993,4.5369,4.5351,4.4066,4.3515,3.5642,3.6285,3.7129,3.9331,4.0946,4.2359,4.3773,4.4709,4.5571,4.6581,4.6324,4.6654,4.9095,4.9554,4.9352,4.8766,4.8104,4.7425,4.6599,4.5975,4.5296,4.4488,4.4397,4.4158,4.357,4.3515,4.3515,4.3515,4.3515,4.3515,4.3515,4.3515,4.3515,4.3515,4.3515,4.3515,4.3515,4.3515,4.3515,4.3515,4.3515,4.3515,4.3515,4.3515,4.3515,4.3533,4.4121,4.4966,4.5957,4.6562,4.7388,4.8306,4.8306,4.9205,5.0508,5.0729,5.1701,5.2931,5.3133,5.3185,5.3185,5.3185,5.3185,5.3185,5.3185,5.3185,5.3185,5.3185,5.3185,5.3185,5.3185,5.3185,5.3185,5.3185,5.3185,5.3185,5.3185,5.3293,5.3336,5.3227,5.3274,5.3316,5.3227,5.3185,5.3185,5.3185,5.3185,5.3185,5.3185,5.2509,5.1995,5.1995,5.0729,4.9831,4.9629,4.9003,4.8545,4.8324,4.8306,4.8306,4.8306,4.8306,4.8306,4.8306,4.8306,4.8214,4.7975,4.6581,4.5792,4.5571,4.414,4.3515,3.5041,3.6229,3.729,3.6688,3.8872,4.137,4.2231,4.3039,4.4084,4.5645,4.592,4.5957,4.6122,4.614,4.614,4.6104,4.6049,4.5736,4.4947,4.4783,4.447,4.3644,4.3552,4.3551,4.3515,4.3515,4.3515,4.3515,4.3515,4.3515,4.3515,4.3515,4.3515,4.3515,4.3515,4.3515,4.3515,4.3515,4.3515,4.3515,4.3515,4.3515,4.3515,4.3515,4.3515,4.3515,4.3551,4.4452,4.5902,4.5957,4.6893,4.8306,4.8306,4.8857,4.9757,5.0508,5.1334,5.216,5.2949,5.3185,5.3185,5.3185,5.3185,5.3185,5.3185,5.3185,5.3185,5.3185,5.3185,5.3185,5.3185,5.3185,5.3185,5.3185,5.3185,5.3185,5.3185,5.3485,5.3663,5.3254,5.3505,5.3644,5.3272,5.3185,5.3185,5.3185,5.3185,5.3185,5.3185,5.2509,5.1995,5.1995,5.1242,5.0435,4.9665,4.9555,4.9169,4.8361,4.8306,4.8306,4.8306,4.8306,4.8306,4.8306,4.8306,4.7921,4.7168,4.6305,4.5516,4.4745,4.3883,4.3515,3.5973,3.5862,3.6083,3.6868,3.7951,3.9129,4.0451,4.1772,4.3039,4.4121,4.436,4.4507,4.5039,4.5553,4.5902,4.5902,4.548,4.5039,4.4745,4.4268,4.3809,4.3533,4.3515,4.3515,4.3515,4.3515,4.3515,4.3515,4.3515,4.3515,4.3515,4.3515,4.3515,4.3515,4.3515,4.3515,4.3515,4.3515,4.3515,4.3515,4.3515,4.3515,4.3515,4.3515,4.3515,4.3515,4.3515,4.4397,4.5902,4.5902,4.6856,4.8306,4.8306,4.882,4.9702,5.0508,5.1316,5.2105,5.2931,5.3185,5.3185,5.3185,5.3185,5.3185,5.3185,5.3185,5.3185,5.3185,5.3185,5.3185,5.3185,5.3185,5.3185,5.3185,5.3185,5.3185,5.3185,5.3505,5.3663,5.3293,5.3525,5.3663,5.3272,5.3185,5.3185,5.3185,5.3185,5.3185,5.3185,5.2968,5.2766,5.2766,5.205,5.1242,5.0435,4.9904,4.9224,4.8361,4.8306,4.8306,4.8306,4.8306,4.8306,4.8306,4.8306,4.8159,4.7865,4.7058,4.6269,4.5461,4.4635,4.3993,3.685,3.6083,3.5771,3.7162,3.7309,3.7529,3.9129,4.0322,4.1405,4.247,4.291,4.3332,4.4158,4.4727,4.5094,4.5094,4.4654,4.4305,4.4305,4.3828,4.3515,4.3515,4.3515,4.3515,4.3515,4.3515,4.3515,4.3515,4.3515,4.3548,4.3662,4.3679,4.3679,4.3679,4.3565,4.3515,4.3515,4.3515,4.3515,4.3515,4.3515,4.3515,4.3515,4.3515,4.3515,4.3515,4.3515,4.425,4.5516,4.5792,4.6691,4.7921,4.8196,4.882,4.9665,5.0196,5.0912,5.1665,5.2215,5.2399,5.2454,5.2711,5.2803,5.2858,5.3112,5.3185,5.3185,5.3185,5.3185,5.3185,5.3185,5.3185,5.3185,5.3185,5.3185,5.3248,5.338,5.3739,5.3906,5.3484,5.3739,5.3888,5.3464,5.3274,5.3185,5.3185,5.3185,5.3185,5.3185,5.3185,5.3185,5.3185,5.2729,5.2087,5.1261,5.0472,4.9627,4.8783,4.8471,4.8306,4.8306,4.8306,4.8306,4.8306,4.8306,4.8306,4.8306,4.748,4.6544,4.548,4.4947,4.4268,0.0,0.0,0.0,3.7272,3.6868,3.667,3.8267,3.8652,3.9129,4.0728,4.168,4.2486,4.3294,4.344,4.3458,4.3477,4.3496,4.3515,4.3515,4.3478,4.346,4.346,4.3441,4.3441,4.3441,4.346,4.3477,4.3477,4.3512,4.3679,4.4001,4.4031,4.3998,4.4001,4.3677,4.3496,4.3515,4.3515,4.3515,4.3515,4.3515,4.3515,4.3515,4.3515,4.3515,4.3515,4.3515,4.3938,4.4728,4.5571,4.6379,4.7186,4.7975,4.882,4.9555,4.9592,5.0086,5.0765,5.0802,5.0802,5.093,5.1738,5.1995,5.2142,5.2968,5.3185,5.3185,5.3185,5.3185,5.3185,5.3185,5.3185,5.3185,5.3185,5.3206,5.3318,5.372,5.417,5.439,5.3887,5.417,5.4357,5.3869,5.3464,5.3185,5.3185,5.3185,5.3185,5.3185,5.3185,5.3185,5.3185,5.3185,5.2876,5.2068,5.1261,5.0453,4.9647,4.8783,4.8306,4.8306,4.8306,4.8306,4.8306,4.8306,4.8306,4.8306,4.7516,4.6305,4.4728,4.469,4.425,3.8377,0.0,0.0,0.0,0.0,0.0,3.6725,3.7404,3.83,3.99,4.0575,4.1036,4.1656,4.2121,4.2529,4.2943,4.3275,4.3515,4.3515,4.3002,4.2635,4.2635,4.2121,4.1772,4.1772,4.2506,4.299,4.299,4.3799,4.4337,4.4433,4.4428,4.429,4.4016,4.3909,4.3758,4.3496,4.3515,4.3515,4.3515,4.3515,4.3515,4.3515,4.3515,4.3515,4.3515,4.3515,4.3643,4.3938,4.5333,4.6379,4.7186,4.7975,4.8453,4.8728,4.9372,4.9739,5.0033,5.06,5.0802,5.093,5.1738,5.1995,5.2142,5.2968,5.3185,5.3185,5.3185,5.3185,5.3185,5.3185,5.3185,5.3185,5.3185,5.3422,5.3644,5.3777,5.4401,5.4697,5.3959,5.417,5.4257,5.3484,5.3272,5.3185,5.3185,5.3185,5.3185,5.3185,5.3185,5.3185,5.3185,5.3185,5.2876,5.2068,5.1261,5.0453,4.9647,4.8783,4.8306,4.8306,4.8306,4.8306,4.8306,4.8306,4.8306,4.8306,4.8067,4.715,4.5535,4.436,4.3699,3.8735,3.7771,3.6945,3.7624,0.0,0.0,3.6523,3.6615,3.6835,3.812,3.8792,3.9327,3.9968,4.0396,4.0831,4.1479,4.1823,4.2296,4.3084,4.2511,4.2013,4.2013,4.1588,4.1354,4.1468,4.209,4.2622,4.2973,4.3651,4.4285,4.4775,4.4471,4.4084,4.3718,4.3569,4.3336,4.3001,4.3331,4.3515,4.3496,4.3646,4.371,4.371,4.371,4.371,4.3693,4.3546,4.3515,4.3642,4.5433,4.6425,4.6962,4.8125,4.855,4.8624,4.9122,4.9195,4.9114,4.9591,4.9756,4.9903,5.0729,5.1224,5.1646,5.2454,5.2931,5.3185,5.3185,5.3185,5.3185,5.3185,5.3318,5.3444,5.3444,5.3777,5.4153,5.4319,5.4741,5.4905,5.4219,5.4305,5.4274,5.3564,5.3316,5.3185,5.3185,5.3185,5.3251,5.3442,5.3295,5.3272,5.3424,5.3295,5.3023,5.2546,5.1756,5.1096,5.0639,4.9481,4.8838,4.8838,4.8489,4.8306,4.8306,4.8306,4.8141,4.7791,4.8141,4.748,4.5865,4.425,4.3563,3.8758,3.8102,3.7841,3.9292,3.7441,0.0,3.7052,3.6211,3.5353,3.6138,3.6824,3.75,3.83,3.8563,3.8921,3.97,3.9771,4.0421,4.24,4.1868,4.1295,4.1362,4.1259,4.1278,4.1569,4.1782,4.2234,4.3032,4.3189,4.3782,4.4957,4.4194,4.3558,4.3183,4.2964,4.2665,4.2304,4.3094,4.3513,4.3565,4.3849,4.4013,4.4076,4.4013,4.4001,4.3986,4.3646,4.3513,4.3709,4.5695,4.6491,4.6659,4.8329,4.898,4.898,4.898,4.8745,4.8439,4.8439,4.8402,4.8511,4.9376,5.0182,5.0949,5.1756,5.2587,5.3272,5.3316,5.3336,5.3336,5.3336,5.3604,5.3888,5.3888,5.4238,5.4655,5.5021,5.5147,5.5034,5.4597,5.4503,5.434,5.3814,5.3442,5.3185,5.3185,5.3185,5.3339,5.3758,5.3504,5.3402,5.3758,5.3484,5.3251,5.3206,5.2454,5.1958,5.1867,5.0455,4.9555,4.9463,4.871,4.8306,4.8306,4.8306,4.7957,4.7223,4.7681,4.7168,4.5736,4.4247,4.371,3.8611,3.8102,3.7584,3.7896,3.7492,0.0,3.6611,3.6285,3.6083,3.6266,3.6088,3.6077,3.6654,3.7687,3.8652,3.9248,3.8957,3.9439,4.1534,4.0352,3.9437,3.9865,3.9144,3.8726,3.9001,4.0482,4.1506,4.1677,4.2585,4.352,4.4419,4.3689,4.2967,4.2359,4.2887,4.2907,4.2304,4.3094,4.3647,4.3893,4.3971,4.4161,4.4474,4.4146,4.4001,4.3986,4.3646,4.3646,4.4042,4.5789,4.6507,4.6688,4.8626,4.9386,4.9386,4.9386,4.9326,4.9265,4.9265,4.9043,4.8909,4.9746,5.036,5.0949,5.1756,5.2778,5.3758,5.4137,5.424,5.424,5.424,5.4288,5.4355,5.4355,5.4686,5.5007,5.5075,5.5343,5.5375,5.4625,5.4503,5.4257,5.3462,5.3251,5.3185,5.3185,5.3185,5.3339,5.3758,5.3739,5.372,5.3796,5.3739,5.3546,5.3227,5.2454,5.172,5.1077,5.0143,4.9298,4.8581,4.8398,4.8306,4.8306,4.8306,4.8233,4.8067,4.6269,4.5241,4.4911,4.4235,4.394,3.8666,3.8414,3.8175,3.8612,3.8098,0.0,0.0,3.6872,3.6303,3.6303,3.574,3.5322,3.5597,3.5901,3.6478,3.7571,3.7158,3.7565,4.0011,3.8936,3.8053,3.8456,3.7902,3.7668,3.8118,3.8937,3.9862,4.084,4.1854,4.2816,4.3662,4.2912,4.2163,4.1522,4.2253,4.2361,4.1717,4.2892,4.3679,4.3998,4.4204,4.4387,4.4593,4.4392,4.419,4.3986,4.3646,4.3677,4.4106,4.5567,4.6516,4.7238,4.907,4.98,4.98,4.98,4.9678,4.9475,4.9265,4.9059,4.8937,4.9139,4.9675,5.0385,5.1413,5.2846,5.4204,5.442,5.4503,5.4503,5.4503,5.464,5.479,5.479,5.5121,5.5399,5.5399,5.5566,5.5512,5.4924,5.479,5.4468,5.338,5.3185,5.3185,5.3185,5.338,5.3662,5.4083,5.4153,5.4238,5.4433,5.4065,5.372,5.3525,5.2968,5.2252,5.1444,5.0637,4.9811,4.8967,4.8526,4.8306,4.8306,4.7901,4.77,4.77,4.6085,4.5498,4.5883,4.5447,4.5335,3.9145,3.9166,3.9292,3.9829,3.9081,3.826,0.0,0.0,0.0,3.6358,3.561,3.5004,3.5004,3.4472,3.4412,3.5624,3.5353,3.5749,3.7867,3.7227,3.682,3.7576,3.7016,3.6886,3.7737,3.7689,3.8338,4.0135,4.0912,4.17,4.2547,4.1871,4.1218,4.0665,4.1305,4.1493,4.1111,4.2543,4.3545,4.4117,4.4447,4.4631,4.4682,4.4618,4.4373,4.3986,4.3646,4.3726,4.4206,4.5523,4.6701,4.7859,4.9366,5.0073,5.0225,5.0225,5.0019,4.9659,4.928,4.9075,4.8947,4.855,4.9102,5.0193,5.1578,5.3217,5.4625,5.4701,5.4716,5.4716,5.4716,5.4979,5.5212,5.5212,5.5446,5.5703,5.5703,5.5703,5.5577,5.5173,5.5088,5.476,5.3642,5.3461,5.3461,5.3461,5.372,5.4101,5.4547,5.4628,5.4731,5.508,5.425,5.3645,5.3572,5.3055,5.2399,5.1573,5.093,5.0196,4.939,4.8673,4.8306,4.8306,4.7663,4.7333,4.7333,4.6764,4.6653,4.6985,4.6727,4.679,4.0494,4.082,4.0751,4.0344,4.0461,4.0218,3.8405,0.0,3.8028,3.6597,0.0,3.5004,3.5004,0.0,0.0,3.4174,3.4601,3.4944,3.4785,3.4626,3.5446,3.7928,3.6073,3.53,3.7032,3.7433,3.8108,3.9346,3.9534,3.9938,4.0746,4.0478,4.0125,3.9773,4.0244,4.0696,4.1111,4.1992,4.3132,4.4527,4.458,4.4763,4.5041,4.4739,4.4373,4.3986,4.3646,4.3884,4.4672,4.6286,4.7386,4.8135,4.9106,4.9951,5.0624,5.0624,5.0604,5.0523,5.0092,4.9733,4.9371,4.8963,4.9889,5.1558,5.3536,5.4564,5.5121,5.5446,5.5566,5.5566,5.5566,5.5599,5.564,5.564,5.5662,5.5703,5.5703,5.5703,5.5577,5.5173,5.5088,5.4952,5.4436,5.4357,5.4357,5.4357,5.439,5.4563,5.4979,5.5034,5.5048,5.5107,5.4,5.3125,5.2769,5.1708,5.0729,4.9922,4.9794,4.9353,4.8489,4.8361,4.8306,4.8306,4.8214,4.8159,4.8159,4.8435,4.7878,4.6555,4.6843,4.7161,4.1525,4.167,4.1582,4.1157,4.0866,4.0419,3.9309,3.8865,3.8505,3.7826,0.0,0.0,0.0,0.0,0.0,0.0,3.438,3.4564,3.5314,3.4183,3.4005,3.5988,3.5049,3.4549,3.5349,3.5725,3.6312,3.7261,3.7327,3.7982,3.95,3.928,3.9272,3.9592,4.0074,4.0333,4.0396,4.1662,4.2829,4.3851,4.4366,4.467,4.4812,4.4657,4.428,4.3693,4.3546,4.3915,4.4649,4.5361,4.6629,4.8144,4.8509,4.949,5.0712,5.0712,5.0712,5.0634,5.0249,4.9846,4.9525,4.9622,5.0751,5.2347,5.3723,5.4765,5.5489,5.5651,5.5703,5.5703,5.5703,5.5703,5.5703,5.5703,5.5703,5.5703,5.5703,5.5703,5.5651,5.5489,5.5435,5.5399,5.5244,5.4804,5.4503,5.4503,5.4705,5.4924,5.5075,5.5306,5.5435,5.5435,5.4097,5.312,5.2961,5.1621,5.0453,4.9647,4.9133,4.8673,4.8324,4.8306,4.8306,4.8306,4.8306,4.8402,4.8639,4.883,4.8799,4.8591,4.8725,4.8884,4.2359,4.2598,4.2611,4.1919,4.1241,4.0547,3.9834,3.9335,3.8964,3.8762,3.823,0.0,0.0,0.0,3.5206,0.0,0.0,3.4394,3.5183,3.3935,3.3474,3.4966,3.4703,3.4352,3.4206,3.4412,3.4848,3.5516,3.5782,3.6535,3.7995,3.8194,3.8522,3.9124,3.961,3.9878,3.9898,4.1277,4.2421,4.3303,4.4177,4.4593,4.4593,4.4593,4.4198,4.3515,4.3597,4.4004,4.4612,4.4941,4.6126,4.7817,4.8279,4.9221,5.0366,5.0616,5.0712,5.0634,5.0249,4.9846,4.9634,5.0427,5.1559,5.2775,5.3775,5.4828,5.5673,5.5577,5.561,5.5703,5.5703,5.5703,5.5703,5.5703,5.5703,5.5703,5.5703,5.5703,5.5703,5.5703,5.5703,5.5703,5.5703,5.5212,5.4819,5.4819,5.5075,5.525,5.525,5.5512,5.5703,5.5703,5.4325,5.3244,5.2892,5.1505,5.0243,4.9298,4.8655,4.8306,4.8306,4.8306,4.8345,4.8458,4.8458,4.8657,4.9059,4.9187,4.9419,4.9749,4.9997,5.0026,0.0,0.0,0.0,4.2492,0.0,4.1139,3.9508,3.9508,3.9643,3.8854,3.8689,3.8414,3.7621,0.0,0.0,0.0,0.0,0.0,0.0,3.333,3.4389,3.6038,3.5491,3.4768,3.4257,3.42,3.4357,3.4711,3.5469,3.5933,3.5981,3.7222,3.7932,3.7951,3.8471,3.9126,3.9882,4.0726,4.1883,4.3303,4.4177,4.4593,4.4593,4.4593,4.4198,4.3513,4.3833,4.4204,4.4694,4.5791,4.6527,4.7096,4.8721,4.9394,4.9529,5.0385,5.0712,5.0634,5.0249,4.9846,4.9772,5.1413,5.2233,5.2838,5.4095,5.5042,5.561,5.5224,5.5399,5.5703,5.5703,5.5703,5.5703,5.5703,5.5703,5.5703,5.5703,5.5703,5.5703,5.5703,5.5703,5.5703,5.5703,5.5673,5.5662,5.5662,5.5673,5.5673,5.5673,5.5684,5.5703,5.5703,5.4616,5.3386,5.2141,5.0932,4.9673,4.8417,4.8324,4.8306,4.8306,4.8306,4.8477,4.8863,4.888,4.9075,4.9475,4.9866,4.9649,4.886,4.9711,4.9854,0.0,0.0,4.4935,4.3621,0.0,0.0,0.0,0.0,4.0259,3.9198,3.9591,3.9613,3.7834,0.0,0.0,0.0,0.0,0.0,0.0,3.3623,3.4009,3.4578,3.4394,3.4123,3.3947,3.3954,3.3974,3.4087,3.4352,3.4834,3.5593,3.64,3.7178,3.7882,3.842,3.8836,3.9093,4.0432,4.1568,4.2523,4.3926,4.4593,4.4593,4.4593,4.4323,4.3852,4.3955,4.4341,4.4962,4.5349,4.6068,4.7,4.8105,4.8894,4.951,5.0385,5.0712,5.0634,5.0249,5.0183,5.0421,5.1281,5.2207,5.3195,5.4202,5.5067,5.5662,5.5543,5.5588,5.5703,5.5703,5.5703,5.5703,5.5703,5.5703,5.5703,5.5703,5.5703,5.5703,5.5703,5.5703,5.5703,5.5703,5.5703,5.5703,5.5703,5.5703,5.5703,5.5703,5.5703,5.5703,5.5703,5.4628,5.3381,5.2103,5.0123,4.8753,4.8324,4.855,4.871,4.871,4.8947,4.9155,4.9295,4.9295,4.9489,4.9898,5.0043,4.9798,4.9198,4.9505,4.9229,4.5056,4.5364,0.0,4.4181,4.3479,0.0,4.1586,0.0,4.1016,0.0,0.0,4.034,3.8561,0.0,0.0,0.0,0.0,0.0,0.0,3.3807,3.3807,3.3807,3.3807,3.3807,3.3807,3.3807,3.3807,3.3807,3.3807,3.4129,3.4853,3.5487,3.6288,3.7293,3.7941,3.8414,3.8707,4.0288,4.1442,4.2119,4.3794,4.4593,4.4593,4.4593,4.4373,4.4016,4.4146,4.4548,4.5107,4.5232,4.5736,4.6528,4.7355,4.8202,4.9086,5.0269,5.0712,5.0663,5.041,5.0483,5.0798,5.1338,5.2286,5.3336,5.4035,5.4924,5.5605,5.5159,5.5358,5.5626,5.5338,5.5491,5.5626,5.5338,5.5491,5.5607,5.5338,5.5491,5.5703,5.5703,5.5703,5.5703,5.5703,5.5703,5.5703,5.5703,5.5703,5.5703,5.5703,5.5703,5.5588,5.5299,5.4588,5.3467,5.1892,4.976,4.8568,4.871,4.8963,4.9108,4.9108,4.9356,4.9844,5.0585,5.0022,5.0196,5.1205,5.0294,4.955,4.8933,4.8668,4.8086]}]]